[[{"header":{"parameterUnit":"m.s-1","parameterCategory":1,"la1":30.6,"la2":28.766,"lo1":-90.7593,"lo2":-88.6598,"dy":0.0162,"dx":0.0183,"nx":116,"ny":114,"refTime":"2024-03-10T12:00:00:Z","depth":0,"parameterNumber":2,"parameterNumberName":"U-component_of_WINDS"},"data":[0.0,0.0,0.0,0.0,0.0,0.0,0.0,0.0,0.0,0.0,0.0,0.0,0.0,0.0,0.0,0.0,0.0,0.0,0.0,0.0,0.0,0.0,0.0,0.0,0.0,0.0,0.0,0.0,0.0,0.0,0.0,0.0,0.0,0.0,0.0,0.0,0.0,0.0,0.0,0.0,0.0,0.0,0.0,0.0,0.0,0.0,0.0,0.0,0.0,0.0,0.0,0.0,0.0,0.0,0.0,0.0,0.0,0.0,0.0,0.0,0.0,0.0,0.0,0.0,0.0,0.0,0.0,0.0,0.0,0.0,0.0,0.0,0.0,0.0,0.0,0.0,0.0,0.0,0.0,0.0,0.0,0.0,0.0,0.0,0.0,0.0,0.0,0.0,0.0,0.0,0.0,0.0,0.0,0.0,0.0,0.0,0.0,0.0,0.0,0.0,0.0,0.0,0.0,0.0,0.0,0.0,0.0,0.0,0.0,0.0,0.0,0.0,0.0,0.0,0.0,0.0,0.0,0.0,0.0,0.0,0.0,0.0,0.0,0.0,0.0,0.0,0.0,0.0,0.0,0.0,0.0,0.0,0.0,0.0,0.0,0.0,0.0,0.0,0.0,0.0,0.0,0.0,0.0,0.0,0.0,0.0,0.0,0.0,0.0,0.0,0.0,0.0,0.0,0.0,0.0,0.0,0.0,0.0,0.0,0.0,0.0,0.0,0.0,0.0,0.0,0.0,0.0,0.0,0.0,0.0,0.0,0.0,0.0,0.0,0.0,0.0,0.0,0.0,0.0,0.0,0.0,0.0,0.0,0.0,0.0,0.0,0.0,0.0,0.0,0.0,0.0,0.0,0.0,0.0,0.0,0.0,0.0,0.0,0.0,0.0,0.0,0.0,0.0,0.0,0.0,0.0,0.0,0.0,0.0,0.0,0.0,0.0,0.0,0.0,0.0,0.0,0.0,0.0,0.0,0.0,0.0,0.0,0.0,0.0,0.0,0.0,0.0,0.0,0.0,0.0,0.0,0.0,0.0,0.0,0.0,0.0,0.0,0.0,0.0,0.0,0.0,0.0,0.0,0.0,0.0,0.0,0.0,0.0,0.0,0.0,0.0,0.0,0.0,0.0,0.0,0.0,0.0,0.0,0.0,0.0,0.0,0.0,0.0,0.0,0.0,0.0,0.0,0.0,0.0,0.0,0.0,0.0,0.0,0.0,0.0,0.0,0.0,0.0,0.0,0.0,0.0,0.0,0.0,0.0,0.0,0.0,0.0,0.0,0.0,0.0,0.0,0.0,0.0,0.0,0.0,0.0,0.0,0.0,0.0,0.0,0.0,0.0,0.0,0.0,0.0,0.0,0.0,0.0,0.0,0.0,0.0,0.0,0.0,0.0,0.0,0.0,0.0,0.0,0.0,0.0,0.0,0.0,0.0,0.0,0.0,0.0,0.0,0.0,0.0,0.0,0.0,0.0,0.0,0.0,0.0,0.0,0.0,0.0,0.0,0.0,0.0,0.0,0.0,0.0,0.0,0.0,0.0,0.0,0.0,0.0,0.0,0.0,0.0,0.0,0.0,0.0,0.0,0.0,0.0,0.0,0.0,0.0,0.0,0.0,0.0,0.0,0.0,0.0,0.0,0.0,0.0,0.0,0.0,0.0,0.0,0.0,0.0,0.0,0.0,0.0,0.0,0.0,0.0,0.0,0.0,0.0,0.0,0.0,0.0,0.0,0.0,0.0,0.0,0.0,0.0,0.0,0.0,0.0,0.0,0.0,0.0,0.0,0.0,0.0,0.0,0.0,0.0,0.0,0.0,0.0,0.0,0.0,0.0,0.0,0.0,0.0,0.0,0.0,0.0,0.0,0.0,0.0,0.0,0.0,0.0,0.0,0.0,0.0,0.0,0.0,0.0,0.0,0.0,0.0,0.0,0.0,0.0,0.0,0.0,0.0,0.0,0.0,0.0,0.0,0.0,0.0,0.0,0.0,0.0,0.0,0.0,0.0,0.0,0.0,0.0,0.0,0.0,0.0,0.0,0.0,0.0,0.0,0.0,0.0,0.0,0.0,0.0,0.0,0.0,0.0,0.0,0.0,0.0,0.0,0.0,0.0,0.0,0.0,0.0,0.0,0.0,0.0,0.0,0.0,0.0,0.0,0.0,0.0,0.0,0.0,0.0,0.0,0.0,0.0,0.0,0.0,0.0,0.0,0.0,0.0,0.0,0.0,0.0,0.0,0.0,0.0,0.0,0.0,0.0,0.0,0.0,0.0,0.0,0.0,0.0,0.0,0.0,0.0,0.0,0.0,0.0,0.0,0.0,0.0,0.0,0.0,0.0,0.0,0.0,0.0,0.0,0.0,0.0,0.0,0.0,0.0,0.0,0.0,0.0,0.0,0.0,0.0,0.0,0.0,0.0,0.0,0.0,0.0,0.0,0.0,0.0,0.0,0.0,0.0,0.0,0.0,0.0,0.0,0.0,0.0,0.0,0.0,0.0,0.0,0.0,0.0,0.0,0.0,0.0,0.0,0.0,0.0,0.0,0.0,0.0,0.0,0.0,0.0,0.0,0.0,0.0,0.0,0.0,0.0,0.0,0.0,0.0,0.0,0.0,0.0,0.0,0.0,0.0,0.0,0.0,0.0,0.0,0.0,0.0,0.0,0.0,0.0,0.0,0.0,0.0,0.0,0.0,0.0,0.0,0.0,0.0,0.0,0.0,0.0,0.0,0.0,0.0,0.0,0.0,0.0,0.0,0.0,0.0,0.0,0.0,0.0,0.0,0.0,0.0,0.0,0.0,0.0,0.0,0.0,0.0,0.0,0.0,0.0,0.0,0.0,0.0,0.0,0.0,0.0,0.0,0.0,0.0,0.0,0.0,0.0,0.0,0.0,0.0,0.0,0.0,0.0,0.0,0.0,0.0,0.0,0.0,0.0,0.0,0.0,0.0,0.0,0.0,0.0,0.0,0.0,0.0,0.0,0.0,0.0,0.0,0.0,0.0,0.0,0.0,0.0,0.0,0.0,0.0,0.0,0.0,0.0,0.0,0.0,0.0,0.0,0.0,0.0,0.0,0.0,0.0,0.0,0.0,0.0,0.0,0.0,0.0,0.0,0.0,0.0,0.0,0.0,0.0,0.0,0.0,0.0,0.0,0.0,0.0,0.0,0.0,0.0,0.0,0.0,0.0,0.0,0.0,0.0,0.0,0.0,0.0,0.0,0.0,0.0,0.0,0.0,0.0,0.0,0.0,0.0,0.0,0.0,0.0,0.0,0.0,0.0,0.0,0.0,0.0,0.0,0.0,0.0,0.0,0.0,0.0,0.0,0.0,0.0,0.0,0.0,0.0,0.0,0.0,0.0,0.0,0.0,0.0,0.0,0.0,0.0,0.0,0.0,0.0,0.0,0.0,0.0,0.0,0.0,0.0,0.0,0.0,0.0,0.0,0.0,0.0,0.0,0.0,0.0,0.0,0.0,0.0,0.0,0.0,0.0,0.0,0.0,0.0,0.0,0.0,0.0,0.0,0.0,0.0,0.0,0.0,0.0,0.0,0.0,0.0,0.0,0.0,0.0,0.0,0.0,0.0,0.0,0.0,0.0,0.0,0.0,0.0,0.0,0.0,0.0,0.0,0.0,0.0,0.0,0.0,0.0,0.0,0.0,0.0,0.0,0.0,0.0,0.0,0.0,0.0,0.0,0.0,0.0,0.0,0.0,0.0,0.0,0.0,0.0,0.0,0.0,0.0,0.0,0.0,0.0,0.0,0.0,0.0,0.0,0.0,0.0,0.0,0.0,0.0,0.0,0.0,0.0,0.0,0.0,0.0,0.0,0.0,0.0,0.0,0.0,0.0,0.0,0.0,0.0,0.0,0.0,0.0,0.0,0.0,0.0,0.0,0.0,0.0,0.0,0.0,0.0,0.0,0.0,0.0,0.0,0.0,0.0,0.0,0.0,0.0,0.0,0.0,0.0,0.0,0.0,0.0,0.0,0.0,0.0,0.0,0.0,0.0,0.0,0.0,0.0,0.0,0.0,0.0,0.0,0.0,0.0,0.0,0.0,0.0,0.0,0.0,0.0,0.0,0.0,0.0,0.0,0.0,0.0,0.0,0.0,0.0,0.0,0.0,0.0,0.0,0.0,0.0,0.0,0.0,0.0,0.0,0.0,0.0,0.0,0.0,0.0,0.0,0.0,0.0,0.0,0.0,0.0,0.0,0.0,0.0,0.0,0.0,0.0,0.0,0.0,0.0,0.0,0.0,0.0,0.0,0.0,0.0,0.0,0.0,0.0,0.0,0.0,0.0,0.0,0.0,0.0,0.0,0.0,0.0,0.0,0.0,0.0,0.0,0.0,0.0,0.0,0.0,0.0,0.0,0.0,0.0,0.0,0.0,0.0,0.0,0.0,0.0,0.0,0.0,0.0,0.0,0.0,0.0,0.0,0.0,0.0,0.0,0.0,0.0,0.0,0.0,0.0,0.0,0.0,0.0,0.0,0.0,0.0,0.0,0.0,0.0,0.0,0.0,0.0,0.0,0.0,0.0,0.0,0.0,0.0,0.0,0.0,0.0,0.0,0.0,0.0,0.0,0.0,0.0,0.0,0.0,0.0,0.0,0.0,0.0,0.0,0.0,0.0,0.0,0.0,0.0,0.0,0.0,0.0,0.0,0.0,0.0,0.0,0.0,0.0,0.0,0.0,0.0,0.0,0.0,0.0,0.0,0.0,0.0,0.0,0.0,0.0,0.0,0.0,0.0,0.0,0.0,0.0,0.0,0.0,0.0,0.0,0.0,0.0,0.0,0.0,0.0,0.0,0.0,0.0,0.0,0.0,0.0,0.0,0.0,0.0,0.0,0.0,0.0,0.0,0.0,0.0,0.0,0.0,0.0,0.0,0.0,0.0,0.0,0.0,0.0,0.0,0.0,0.0,0.0,0.0,0.0,0.0,0.0,0.0,0.0,0.0,0.0,0.0,0.0,0.0,0.0,0.0,0.0,0.0,0.0,0.0,0.0,0.0,0.0,0.0,0.0,0.0,0.0,0.0,0.0,0.0,0.0,0.0,0.0,0.0,0.0,0.0,0.0,0.0,0.0,0.0,0.0,0.0,0.0,0.0,0.0,0.0,0.0,0.0,0.0,0.0,0.0,0.0,0.0,0.0,0.0,0.0,0.0,0.0,0.0,0.0,0.0,0.0,0.0,0.0,0.0,0.0,0.0,0.0,0.0,0.0,0.0,0.0,0.0,0.0,0.0,0.0,0.0,0.0,0.0,0.0,0.0,0.0,0.0,0.0,0.0,0.0,0.0,0.0,0.0,0.0,0.0,0.0,0.0,0.0,0.0,0.0,0.0,0.0,0.0,0.0,0.0,0.0,0.0,0.0,0.0,0.0,0.0,0.0,0.0,0.0,0.0,0.0,0.0,0.0,0.0,0.0,0.0,0.0,0.0,0.0,0.0,0.0,0.0,0.0,0.0,0.0,0.0,0.0,0.0,0.0,0.0,0.0,0.0,0.0,0.0,0.0,0.0,0.0,0.0,0.0,0.0,0.0,0.0,0.0,0.0,0.0,0.0,0.0,0.0,0.0,0.0,0.0,0.0,0.0,0.0,0.0,0.0,0.0,0.0,0.0,0.0,0.0,0.0,0.0,0.0,0.0,0.0,0.0,0.0,0.0,0.0,0.0,0.0,0.0,0.0,0.0,0.0,0.0,0.0,0.0,0.0,0.0,0.0,0.0,0.0,0.0,0.0,0.0,0.0,0.0,0.0,0.0,0.0,0.0,0.0,0.0,0.0,0.0,0.0,0.0,0.0,0.0,0.0,0.0,0.0,0.0,0.0,0.0,0.0,0.0,0.0,0.0,0.0,0.0,0.0,0.0,0.0,0.0,0.0,0.0,0.0,0.0,0.0,0.0,0.0,0.0,0.0,0.0,0.0,0.0,0.0,0.0,0.0,0.0,0.0,0.0,0.0,0.0,0.0,0.0,0.0,0.0,0.0,0.0,0.0,0.0,0.0,0.0,0.0,0.0,0.0,0.0,0.0,0.0,0.0,0.0,0.0,0.0,0.0,0.0,0.0,0.0,0.0,0.0,0.0,0.0,0.0,0.0,0.0,0.0,4.5881,0.0,0.0,0.0,0.0,0.0,0.0,0.0,0.0,0.0,0.0,0.0,0.0,0.0,0.0,0.0,0.0,0.0,0.0,0.0,0.0,0.0,0.0,0.0,0.0,0.0,0.0,0.0,0.0,0.0,0.0,0.0,0.0,0.0,0.0,0.0,0.0,0.0,4.1211,4.1211,4.115,4.1256,4.1594,4.2879,4.3539,0.0,0.0,0.0,0.0,0.0,0.0,0.0,0.0,0.0,0.0,0.0,0.0,0.0,0.0,0.0,0.0,0.0,0.0,0.0,0.0,0.0,0.0,0.0,0.0,0.0,0.0,0.0,0.0,0.0,0.0,0.0,0.0,0.0,0.0,0.0,0.0,0.0,0.0,0.0,0.0,0.0,0.0,0.0,0.0,0.0,0.0,0.0,0.0,0.0,0.0,0.0,0.0,0.0,0.0,0.0,0.0,0.0,0.0,0.0,0.0,0.0,0.0,0.0,0.0,0.0,0.0,0.0,0.0,0.0,0.0,0.0,0.0,4.5835,0.0,0.0,0.0,0.0,0.0,0.0,0.0,0.0,0.0,0.0,0.0,0.0,0.0,0.0,0.0,0.0,0.0,0.0,0.0,0.0,0.0,0.0,0.0,3.9883,4.0234,4.1094,4.1172,4.1172,0.0,0.0,0.0,0.0,0.0,4.1211,4.1211,4.1211,4.1172,4.1172,4.1168,4.1178,4.1277,4.3551,0.0,0.0,0.0,0.0,0.0,0.0,0.0,0.0,0.0,0.0,0.0,0.0,0.0,0.0,0.0,0.0,0.0,0.0,0.0,0.0,0.0,0.0,0.0,0.0,0.0,0.0,0.0,0.0,0.0,0.0,0.0,0.0,0.0,0.0,0.0,0.0,0.0,0.0,0.0,0.0,0.0,0.0,0.0,0.0,0.0,0.0,0.0,0.0,0.0,0.0,0.0,0.0,0.0,0.0,0.0,0.0,0.0,0.0,0.0,0.0,0.0,0.0,0.0,0.0,0.0,0.0,4.6268,4.6372,4.654,4.7084,4.7344,4.7304,4.6471,4.6074,4.6103,0.0,0.0,0.0,0.0,0.0,0.0,0.0,0.0,0.0,0.0,0.0,0.0,0.0,0.0,0.0,0.0,0.0,0.0,0.0,0.0,0.0,0.0,3.9883,4.0195,4.0976,4.1133,4.1133,4.1016,0.0,4.1211,4.1211,4.1211,4.1211,4.1211,4.1211,4.1133,4.1016,4.1606,4.2217,4.2919,4.3888,4.4283,4.4168,4.3656,0.0,0.0,0.0,0.0,0.0,0.0,0.0,0.0,0.0,0.0,0.0,0.0,0.0,0.0,0.0,0.0,0.0,0.0,0.0,0.0,0.0,0.0,0.0,0.0,0.0,0.0,0.0,0.0,0.0,0.0,0.0,0.0,0.0,0.0,0.0,0.0,0.0,0.0,0.0,0.0,0.0,0.0,0.0,4.5586,4.5586,0.0,0.0,0.0,0.0,0.0,0.0,0.0,0.0,0.0,0.0,0.0,0.0,0.0,4.6737,4.6737,4.7447,4.7869,4.7955,4.7861,4.7928,4.8155,4.7396,4.7109,4.7225,4.695,0.0,4.6852,4.6775,0.0,0.0,0.0,0.0,0.0,0.0,0.0,0.0,0.0,0.0,0.0,0.0,0.0,0.0,0.0,0.0,0.0,0.0,0.0,0.0,0.0,3.9805,4.0078,4.082,4.0944,4.0955,4.0898,4.1016,4.1094,4.1094,4.1172,4.1211,4.1211,4.1211,4.1384,4.1721,4.2922,4.3415,4.3209,4.447,4.4526,4.3624,4.3811,4.3659,4.3237,4.2558,0.0,0.0,0.0,0.0,0.0,0.0,0.0,0.0,0.0,0.0,0.0,0.0,0.0,0.0,0.0,0.0,0.0,0.0,0.0,0.0,0.0,0.0,0.0,0.0,0.0,0.0,0.0,0.0,0.0,0.0,0.0,0.0,0.0,0.0,0.0,0.0,0.0,0.0,0.0,4.6026,4.6142,4.5663,4.6026,4.595,0.0,0.0,0.0,0.0,0.0,0.0,0.0,0.0,0.0,4.6352,4.7139,4.7584,4.7568,4.8009,4.8199,4.8172,4.8183,4.8279,4.8374,4.8011,4.8155,4.8642,4.8601,4.8528,4.8355,4.7314,4.6737,4.6425,0.0,0.0,0.0,0.0,4.5699,4.5719,0.0,0.0,0.0,0.0,0.0,0.0,0.0,0.0,0.0,0.0,0.0,0.0,3.957,3.9476,3.9724,4.0703,4.0776,4.0796,4.0769,4.0898,4.0957,4.1015,4.1094,4.1172,4.1211,4.1172,4.1644,4.2637,4.3759,4.4051,4.3551,4.4739,4.447,4.3124,4.3948,4.3987,4.3464,4.314,4.2387,0.0,0.0,0.0,0.0,0.0,0.0,0.0,0.0,0.0,0.0,0.0,0.0,0.0,0.0,0.0,0.0,0.0,0.0,0.0,0.0,0.0,0.0,0.0,0.0,0.0,0.0,0.0,0.0,0.0,0.0,0.0,0.0,0.0,0.0,0.0,0.0,0.0,0.0,4.6352,4.6565,4.5722,4.6373,4.6313,0.0,0.0,0.0,0.0,0.0,0.0,4.6362,4.6978,4.7293,4.7258,4.8007,4.8451,4.8452,4.8798,4.8933,4.8798,4.8933,4.8971,4.8971,4.8837,4.899,4.9388,4.9637,4.9412,4.8818,4.7663,4.7122,4.687,4.595,4.568,4.5796,4.5663,4.5663,4.5719,0.0,0.0,0.0,0.0,0.0,0.0,0.0,0.0,0.0,0.0,0.0,3.6953,3.9414,3.8896,3.8999,4.0583,4.077,4.077,4.0699,4.0776,4.0858,4.0976,4.1016,4.1055,4.1211,4.1094,4.1836,4.3514,4.3361,4.3667,4.4427,4.4372,4.391,4.3124,4.3932,4.4295,4.4141,4.2541,4.2341,4.2934,0.0,0.0,0.0,0.0,0.0,0.0,0.0,0.0,0.0,0.0,0.0,0.0,0.0,0.0,0.0,0.0,0.0,0.0,0.0,0.0,0.0,0.0,0.0,0.0,0.0,0.0,0.0,0.0,0.0,0.0,0.0,0.0,0.0,0.0,0.0,0.0,0.0,0.0,0.0,4.5688,4.6357,0.0,0.0,0.0,0.0,4.6985,4.7212,4.7687,4.8514,4.8463,4.8354,4.8222,4.8933,4.9317,4.9317,5.0279,5.0779,5.0741,5.0779,5.0779,5.0741,4.9913,4.9067,4.8253,4.9195,4.8623,4.7088,4.778,4.7606,4.6814,4.595,4.5586,4.5586,4.5586,4.5586,4.5586,0.0,0.0,0.0,0.0,0.0,0.0,0.0,0.0,3.7344,3.8789,3.8594,3.8854,4.0252,4.0076,4.0046,4.0523,4.06,4.0385,3.9851,4.0423,4.0602,4.0121,4.075,4.1133,4.1211,4.1133,4.168,4.2812,4.314,4.3492,4.3794,4.3602,4.3355,4.3124,4.3948,4.4295,4.4239,4.3679,4.2986,4.2271,4.1732,4.1622,0.0,0.0,0.0,0.0,0.0,0.0,0.0,0.0,0.0,0.0,0.0,0.0,0.0,0.0,0.0,0.0,0.0,0.0,0.0,0.0,0.0,0.0,0.0,0.0,0.0,0.0,0.0,0.0,0.0,0.0,0.0,0.0,0.0,0.0,0.0,0.0,0.0,4.659,4.7702,0.0,4.6583,4.7024,4.7323,4.7164,4.7729,4.8236,4.8548,4.9055,4.9264,4.9144,4.9952,5.0317,5.024,5.0664,5.0898,5.0913,5.0913,5.0953,5.0991,5.0106,4.9829,5.0024,4.9819,4.9296,4.8606,4.824,4.7622,4.6814,4.595,4.5586,4.5586,4.5586,4.5586,4.5586,0.0,0.0,0.0,0.0,0.0,0.0,0.0,0.0,3.7266,3.8437,3.8711,3.9103,3.9895,4.0115,4.0315,4.0469,4.0254,3.9961,3.9735,3.9807,3.9815,3.9608,4.0349,4.0742,4.0742,4.1055,4.1601,4.2383,4.2783,4.2964,4.2948,4.2739,4.2662,4.2701,4.3525,4.391,4.3948,4.4509,4.3932,4.2585,4.2117,4.2156,4.2333,0.0,0.0,0.0,0.0,0.0,0.0,0.0,0.0,0.0,0.0,0.0,0.0,0.0,0.0,0.0,0.0,0.0,0.0,0.0,0.0,0.0,0.0,0.0,0.0,0.0,0.0,0.0,0.0,0.0,0.0,0.0,0.0,0.0,0.0,0.0,4.7959,4.7108,4.8432,4.8834,4.745,4.7948,4.8283,4.8045,4.8672,4.918,4.9453,4.9961,5.0239,5.0132,5.0636,5.0875,5.0779,5.0914,5.0985,5.0976,5.0976,5.1037,5.1126,5.0201,5.0096,5.0546,5.0041,4.9393,4.8664,4.8238,4.7447,4.639,4.5834,4.5586,4.5586,4.5586,4.5586,4.5586,0.0,0.0,0.0,0.0,0.0,0.0,0.0,3.6016,3.6016,3.6055,3.6641,3.7379,3.8267,3.8923,3.9646,4.0431,3.9769,3.9615,4.0408,3.9008,3.8599,3.96,3.9769,3.9883,3.9922,4.0742,4.1562,4.2344,4.2164,4.2082,4.2056,4.187,4.1777,4.1854,4.2701,4.3102,4.3233,4.491,4.5103,4.4218,4.2547,4.2431,4.3156,0.0,0.0,0.0,0.0,0.0,0.0,0.0,0.0,0.0,0.0,0.0,0.0,0.0,0.0,0.0,0.0,0.0,0.0,0.0,0.0,0.0,0.0,0.0,0.0,0.0,0.0,0.0,0.0,0.0,0.0,0.0,0.0,0.0,4.5971,4.7305,4.7996,4.7181,4.8491,4.9087,4.8241,4.8431,4.8916,4.9725,5.0078,5.0586,5.1367,5.1289,5.1211,5.1211,5.1023,5.0895,5.0914,5.1029,5.1102,5.1094,5.1094,5.1154,5.1183,5.0238,4.9766,4.9647,4.9794,4.876,4.7031,4.7815,4.7139,4.5624,4.5586,4.5586,4.5586,4.5586,4.5586,4.5624,0.0,0.0,0.0,0.0,0.0,0.0,0.0,3.6016,3.6211,3.6875,3.7578,3.8354,3.922,3.9915,4.0392,4.0639,3.9831,3.9384,3.96,3.9354,3.9661,4.0725,3.9603,0.0,4.082,4.0469,4.0664,4.1523,4.1362,4.1253,4.1155,4.1062,4.1277,4.1854,4.2701,4.341,4.4025,4.5141,4.547,4.5124,4.403,4.3838,4.403,0.0,0.0,0.0,0.0,0.0,0.0,0.0,0.0,0.0,0.0,0.0,0.0,0.0,0.0,0.0,0.0,0.0,0.0,0.0,0.0,0.0,0.0,0.0,0.0,0.0,0.0,0.0,0.0,0.0,0.0,0.0,0.0,4.6296,4.6914,4.7891,4.8699,4.9006,4.9875,5.0106,4.9125,4.9856,5.0234,4.9842,5.0586,5.1172,5.1406,5.1367,5.1289,5.1133,5.1109,5.1045,5.0914,5.1068,5.1179,5.1172,5.1133,5.1154,5.1183,5.0784,5.0586,5.0546,5.0583,4.9875,4.8702,4.8277,4.7486,4.6467,4.5834,4.5586,4.5586,4.5586,4.5663,4.5757,0.0,0.0,0.0,0.0,0.0,0.0,0.0,3.6016,3.6172,3.668,3.7734,3.8578,3.9108,4.0079,4.0694,4.0693,3.9831,3.9446,3.9792,3.9689,3.941,3.9023,0.0,3.9062,4.0078,3.9961,4.0312,4.1211,4.1055,4.0929,4.0822,4.1099,4.1623,4.2393,4.3239,4.4047,4.4872,4.5411,4.5509,4.5316,4.4607,4.4568,4.4876,4.397,4.4239,4.5068,4.5068,4.5068,4.5163,4.568,0.0,0.0,0.0,0.0,0.0,0.0,0.0,0.0,0.0,0.0,0.0,0.0,0.0,0.0,0.0,0.0,0.0,0.0,0.0,0.0,0.0,0.0,0.0,0.0,4.5894,4.7031,4.7891,4.8437,4.885,4.9225,5.024,5.0664,4.999,5.0664,5.0879,5.0389,5.1016,5.1406,5.1406,5.1406,5.1328,5.1133,5.1191,5.1113,5.0992,5.1147,5.1211,5.1211,5.1133,5.1154,5.1164,5.0619,5.0564,0.0,5.051,4.999,4.9356,4.8836,4.8161,0.0,0.0,0.0,0.0,0.0,4.5719,4.5796,0.0,0.0,0.0,0.0,0.0,0.0,0.0,3.5976,3.5976,3.6016,3.7383,3.8359,3.8281,3.9652,4.0537,4.0423,3.9662,3.9469,4.02,3.9663,3.8405,3.6363,3.7655,3.8516,3.8711,3.9492,4.0351,4.1328,4.1211,4.1153,4.1124,4.1801,4.2547,4.3278,4.397,4.4778,4.5586,4.5586,4.5396,4.5035,4.448,4.4747,4.5432,4.4641,4.4833,4.5586,4.5586,4.5586,4.5624,4.5757,0.0,0.0,0.0,0.0,0.0,0.0,0.0,0.0,0.0,0.0,0.0,0.0,0.0,0.0,0.0,0.0,0.0,0.0,0.0,0.0,0.0,0.0,0.0,0.0,4.6406,4.7851,4.8516,4.875,4.8867,4.8789,5.0037,5.0875,5.0702,5.0952,5.1087,5.1092,5.1367,5.1484,5.1406,0.0,0.0,0.0,0.0,5.1283,5.1094,5.1172,5.1211,5.1211,5.1133,5.1115,5.1145,5.0164,5.0144,5.0837,5.0067,4.9683,4.9567,4.9433,4.8817,4.7833,4.6334,4.568,4.5586,4.5719,4.577,4.5812,0.0,0.0,0.0,0.0,0.0,0.0,0.0,3.5937,3.5937,3.5976,3.7383,3.8164,3.7578,3.8952,3.9605,3.8823,3.8501,3.8439,3.87,3.7947,3.7643,3.7936,3.7652,3.8086,3.9453,3.9648,4.0547,4.2187,4.2148,4.2399,4.2905,4.3076,4.347,4.4085,4.4218,4.4795,4.5586,4.5586,4.5398,4.5003,4.4261,4.4461,4.5124,4.453,4.4837,4.5586,4.5586,4.5586,4.5586,4.5624,4.5603,4.5522,4.544,0.0,0.0,0.0,0.0,0.0,0.0,0.0,0.0,0.0,0.0,0.0,0.0,0.0,0.0,0.0,0.0,0.0,0.0,0.0,0.0,4.4961,4.6445,4.7422,4.6875,4.8594,5.0078,5.0547,5.0864,5.0991,5.0702,5.0952,5.1087,5.1092,5.1953,5.2148,5.1445,5.2734,5.2773,5.125,5.1981,5.1994,5.1172,5.1289,5.1328,5.1211,0.0,0.0,5.0952,5.0625,5.0587,5.0741,5.0548,5.0471,5.0394,4.9683,4.8491,4.7089,4.6796,4.6219,4.5586,4.5624,4.5747,4.5855,0.0,0.0,0.0,0.0,0.0,0.0,0.0,3.5937,3.5929,3.5937,3.7399,3.8242,3.7891,3.9355,4.0141,3.9591,3.9054,3.8424,3.7694,3.7661,3.7497,3.7166,3.7531,3.815,3.9013,3.9476,4.0586,4.2383,4.2383,4.275,4.3402,4.3834,4.4124,4.4316,4.4757,4.518,4.5586,4.5586,4.5304,4.4782,4.4109,4.3908,4.3891,4.3594,4.4077,4.4949,4.4932,4.524,4.5586,4.5586,4.5372,4.5026,4.4983,4.4707,4.4508,0.0,0.0,0.0,0.0,0.0,0.0,0.0,0.0,0.0,0.0,0.0,0.0,0.0,0.0,4.375,4.4219,0.0,4.5156,4.5586,4.6758,4.7617,4.7617,4.9101,5.0117,4.9844,5.0581,5.0991,5.0741,5.0952,5.1087,5.1092,5.168,5.1875,5.1406,5.2656,5.2695,5.125,5.2188,5.222,5.1211,5.1328,5.1367,5.1289,5.1161,5.105,5.0991,5.0779,5.0702,5.0702,5.0702,5.0702,5.0664,5.024,4.9048,4.7511,4.7489,4.6698,4.5586,4.568,4.5775,4.587,0.0,0.0,0.0,0.0,0.0,0.0,0.0,3.5898,3.5868,3.5868,3.7155,3.8114,3.8164,3.957,4.0465,4.0318,3.9292,3.8193,3.7057,3.7507,3.723,3.5932,3.7242,3.8155,3.8387,3.9394,4.082,4.2656,4.2812,4.3258,4.3916,4.4607,4.4816,4.4586,4.5278,4.5586,4.5586,4.5586,4.5204,4.4557,4.3933,4.3347,4.2773,4.2398,4.2983,4.4003,4.4047,4.4509,4.5124,4.5278,4.4893,4.4316,4.4491,4.4427,4.4322,4.4492,4.4906,0.0,0.0,0.0,0.0,0.0,0.0,0.0,0.0,0.0,4.2869,4.3735,4.4023,4.4375,4.5117,4.5234,4.5469,4.6172,4.7031,4.7851,4.8555,4.9531,4.9844,4.8906,5.0153,5.0991,5.0741,5.0952,5.1087,5.1092,5.1445,5.1641,5.1641,5.2656,5.2695,5.1523,5.2422,5.2383,5.125,5.1367,5.1406,5.1367,5.1205,5.1106,5.1106,5.0875,5.0741,5.0741,5.0702,5.0702,5.0702,5.0702,4.9683,4.8107,4.8084,4.7101,4.5624,4.5757,4.5834,4.5902,0.0,0.0,0.0,0.0,0.0,0.0,0.0,0.0,3.5711,3.5714,3.6524,3.7152,3.7302,3.8164,3.8662,3.8575,3.7031,3.6286,3.6942,3.6384,3.5927,3.5726,3.6573,3.7448,3.8271,3.9901,4.168,4.3555,4.4336,4.5018,4.5598,4.5718,4.5642,4.547,4.5547,4.5586,4.5586,4.5586,4.5227,4.4532,4.3696,4.3137,4.2687,4.1434,4.1765,4.2842,4.314,4.3316,4.3492,4.4222,4.4359,4.4453,4.5201,4.4932,4.4453,4.5218,0.0,4.3534,4.4145,4.3772,4.3343,4.3932,4.3657,4.3647,0.0,0.0,4.4805,4.5612,4.5898,4.6016,4.6133,4.6133,4.6172,4.6289,4.7031,4.7617,4.7734,4.9141,5.0117,4.9844,5.0581,5.1029,5.0914,5.1029,5.1087,5.1092,5.1992,5.2539,5.2539,5.4101,5.4258,5.2578,5.3398,5.3047,5.1406,5.1406,5.1328,5.1211,5.1205,5.1145,5.1106,5.0952,5.0875,5.0875,5.0741,5.0702,5.0702,5.0702,4.9683,4.8107,4.8084,4.7139,4.5796,4.5796,4.5834,4.5902,0.0,0.0,0.0,0.0,0.0,0.0,0.0,0.0,0.0,3.5663,3.6367,3.7153,3.7769,3.8645,3.8943,3.84,3.7189,3.6425,3.6248,3.591,3.5917,3.6394,3.7126,3.8232,3.9778,4.0998,4.2539,4.4453,4.4805,4.5309,4.5902,4.5893,4.5796,4.5586,4.5586,4.5586,4.5586,4.5586,4.5322,4.4842,4.4288,4.3568,4.2763,4.2411,4.1958,4.1617,4.2156,4.2662,0.0,0.0,4.359,4.3688,4.4051,4.4205,4.4359,4.4761,4.4722,0.0,4.3765,4.3761,0.0,0.0,4.3637,4.4387,4.5036,4.5082,4.5195,4.5935,4.6211,4.6289,4.6289,4.6289,4.6289,0.0,4.7031,4.7773,4.8281,4.9414,5.0547,5.1445,5.1708,5.1742,5.1606,5.1703,5.1784,5.1795,5.2344,5.2695,5.2695,5.4336,5.4726,5.3516,5.4297,5.3906,5.2187,5.2148,5.1875,5.1328,5.1224,5.119,5.1145,5.1068,5.1029,5.1029,5.0875,5.0837,5.0837,5.0741,4.9952,4.8818,4.8295,4.7735,4.7139,4.6142,4.5893,4.5981,0.0,0.0,0.0,0.0,0.0,0.0,0.0,0.0,0.0,0.0,3.6136,3.6884,3.7831,3.8783,3.9005,3.8161,3.722,0.0,0.0,3.5891,3.626,3.6779,3.7795,3.9171,4.0858,4.1935,4.3281,4.5,4.5234,4.5547,4.5937,4.5917,4.5796,4.5624,4.5624,4.5586,4.5586,4.5586,4.5393,4.5071,4.4729,4.4026,4.3091,4.2917,4.2109,4.12,4.1655,4.2063,0.0,0.0,4.2722,4.2783,4.3013,4.3492,4.4008,4.4205,4.4914,4.5355,4.4166,0.0,0.0,4.3417,4.418,4.5195,4.5156,4.5234,4.5508,4.6055,4.6211,4.6289,4.6289,4.6289,4.6289,4.6289,4.7031,4.7891,4.8789,4.9844,5.1055,5.2539,5.2695,5.2718,5.2915,5.2761,5.2676,5.2693,5.293,5.3164,5.3398,5.4609,5.5,5.4375,5.4961,5.457,5.3086,5.3047,5.2734,5.2109,5.2031,5.1865,5.1591,5.128,5.1242,5.1397,5.1073,5.0913,5.0914,5.0798,5.024,4.9375,4.8489,4.8102,4.7885,4.6408,4.613,4.6406,0.0,0.0,0.0,0.0,0.0,0.0,0.0,0.0,0.0,0.0,0.0,0.0,0.0,3.789,3.8125,3.7304,3.6328,0.0,0.0,3.6306,3.6741,3.6535,3.8271,3.9774,4.0885,4.251,4.3906,4.5,4.5859,4.6211,4.6094,4.5968,4.5873,4.5796,4.5663,4.5586,4.5586,4.5586,4.5393,4.5089,4.4734,4.4346,4.3787,4.2243,4.1781,4.1937,4.1838,0.0,4.0716,4.154,4.1863,4.1979,4.2842,4.3127,0.0,4.4068,4.4914,4.5624,0.0,0.0,4.5867,4.5961,4.6133,4.625,4.625,4.625,4.6289,4.6289,4.6289,4.6289,4.6289,4.6289,4.6289,4.6289,4.7031,4.7891,4.8789,5.0312,5.1719,5.2578,5.3203,5.3922,0.0,5.4122,5.36,5.3748,5.3867,5.4336,5.5195,5.5273,5.5273,5.5273,5.5273,5.4883,5.3984,5.3945,5.3945,5.3906,5.3906,5.3476,5.2617,5.164,5.1601,5.2226,5.1445,5.1008,5.0914,5.0914,5.0394,4.9509,4.8644,4.7914,4.7317,4.6435,4.664,4.7226,0.0,0.0,0.0,0.0,0.0,0.0,0.0,0.0,0.0,0.0,0.0,0.0,0.0,0.0,0.0,0.0,0.0,0.0,0.0,3.5755,3.6386,3.7189,3.8554,4.0289,4.2379,4.3641,4.4726,4.5742,4.6094,4.6211,4.6094,4.6558,4.6699,4.6589,4.6491,4.6471,4.6432,4.5855,4.5509,4.5376,4.481,4.4524,4.4291,4.3156,4.2394,4.1968,0.0,0.0,4.0562,4.0831,4.0947,4.0985,4.127,4.1786,4.2518,4.3876,4.4512,4.4761,4.4914,0.0,4.5816,4.5389,4.582,4.6289,4.6289,4.6289,4.6289,4.6289,4.5859,4.543,4.543,4.543,4.543,4.543,4.7148,4.8555,4.8867,5.0859,5.2578,5.3476,5.418,0.0,0.0,0.0,0.0,5.4609,5.4805,5.5,5.5273,5.5859,5.6172,5.6172,5.6172,5.5742,5.4883,5.4844,5.457,5.3984,5.3398,5.3281,5.3516,5.1992,5.1797,5.25,5.1562,5.116,5.1101,5.1045,5.0875,5.0508,4.9635,4.9248,4.9026,4.8166,4.8068,4.8164,0.0,0.0,0.0,0.0,0.0,0.0,0.0,0.0,0.0,0.0,0.0,0.0,0.0,0.0,0.0,0.0,0.0,0.0,0.0,0.0,3.6498,3.7536,3.8397,4.0068,4.2703,4.3141,4.4099,4.5664,4.5781,4.5937,4.6172,4.6557,4.6685,4.659,4.6493,4.6453,4.6394,4.5817,4.5586,4.553,4.4651,4.432,4.418,4.2881,4.2155,0.0,0.0,4.0902,4.0508,4.0508,4.0508,4.0508,4.0508,4.1116,4.2002,4.3085,4.3838,4.432,4.453,4.5209,4.582,4.5469,4.5859,4.6289,4.6289,4.6289,4.6289,4.6289,4.5625,4.5117,4.5391,4.5195,4.5117,4.5391,4.7148,4.8633,4.9297,5.1289,5.3125,5.4336,5.4844,5.5499,0.0,0.0,0.0,5.5547,5.5703,5.5742,5.5742,5.6289,5.6601,5.6601,5.6601,5.6328,5.5781,5.5742,5.5312,5.4453,5.3594,5.3476,5.3945,5.2187,5.1875,5.2656,5.168,5.125,5.121,5.1161,5.113,5.1048,5.0208,4.9975,4.9971,4.9083,4.8847,4.8711,0.0,0.0,0.0,0.0,0.0,0.0,0.0,0.0,0.0,0.0,0.0,0.0,0.0,0.0,0.0,0.0,0.0,0.0,0.0,0.0,0.0,3.7574,3.7901,3.9285,4.1956,4.1366,4.2276,4.4844,4.4961,4.543,4.6211,4.6055,4.5981,4.5956,4.5764,4.5647,4.5663,4.5624,4.5547,4.5432,4.4261,4.3777,4.3517,4.1576,0.0,0.0,0.0,0.0,0.0,4.0508,0.0,0.0,0.0,4.1155,4.1825,4.1902,4.3063,4.4376,4.4684,4.5326,4.5976,4.6211,4.6289,4.6289,4.6289,4.6289,4.6211,4.6211,4.5547,4.5195,0.0,0.0,4.5273,4.6172,4.707,4.8281,5.0039,5.1719,5.3398,0.0,0.0,0.0,0.0,0.0,0.0,5.6523,0.0,5.6601,5.6601,5.6601,5.6601,5.6601,5.6601,5.6601,5.6601,5.6562,5.6133,5.5351,5.4375,5.3984,5.4023,5.2266,5.1914,5.2656,5.1875,5.1406,5.1211,5.125,5.1257,5.1143,5.0354,5.0105,5.0085,4.9307,4.8983,4.8984,0.0,0.0,0.0,0.0,0.0,0.0,0.0,0.0,0.0,0.0,0.0,0.0,0.0,0.0,0.0,0.0,0.0,0.0,0.0,0.0,0.0,3.755,3.8469,3.9908,4.1952,0.0,0.0,4.3945,4.4648,4.5117,4.5351,4.6484,4.7015,4.7009,4.6742,4.6627,4.6606,4.5893,4.5218,4.4586,0.0,4.3395,4.2705,0.0,0.0,0.0,0.0,0.0,0.0,0.0,0.0,0.0,0.0,4.1632,4.2056,4.3297,4.4029,4.4614,4.5372,4.5832,4.6094,4.625,4.6289,4.6289,4.6289,4.5781,4.5312,4.5273,4.4609,4.4062,0.0,0.0,0.0,4.6172,4.7578,0.0,5.0859,5.2578,0.0,5.5156,0.0,5.6325,5.6563,5.636,0.0,0.0,5.6601,5.6601,5.6601,5.6601,5.6601,5.6601,5.6601,5.6601,5.6601,5.5976,5.5859,5.625,5.4062,5.3711,5.4922,5.3164,5.25,5.2734,5.3164,5.2578,5.1406,5.2031,5.1945,5.1318,5.1123,5.0694,5.026,5.062,5.0376,4.9961,0.0,0.0,0.0,0.0,0.0,0.0,0.0,0.0,0.0,0.0,0.0,0.0,0.0,0.0,0.0,0.0,0.0,0.0,0.0,0.0,3.6175,3.7718,3.807,3.9238,4.1384,0.0,0.0,0.0,0.0,0.0,4.4453,4.5312,4.5714,4.5716,4.5502,4.5376,4.5302,4.4781,0.0,0.0,0.0,0.0,0.0,0.0,0.0,0.0,0.0,0.0,0.0,0.0,0.0,4.1232,4.2133,4.2387,4.2547,4.3503,0.0,4.4639,4.5226,4.5724,4.6133,4.6289,4.6289,4.6211,4.582,4.5312,4.4922,4.4883,4.4227,0.0,0.0,0.0,0.0,0.0,0.0,0.0,5.168,5.2812,5.4023,0.0,5.6289,0.0,5.6601,5.6601,5.6601,0.0,5.6601,5.6601,5.6601,5.6601,5.6601,5.6601,5.6601,5.6601,5.6601,5.5742,5.5351,5.543,5.3984,5.3594,5.4141,5.3555,5.3281,5.3281,0.0,5.3437,5.2539,5.2656,5.2422,5.1914,5.1562,5.1133,5.0781,5.1211,5.1094,5.0781,0.0,0.0,0.0,0.0,0.0,0.0,0.0,0.0,0.0,0.0,3.7203,0.0,0.0,0.0,0.0,0.0,0.0,0.0,0.0,0.0,0.0,0.0,3.7516,3.83,0.0,0.0,0.0,0.0,0.0,0.0,0.0,0.0,0.0,0.0,0.0,0.0,0.0,0.0,0.0,0.0,0.0,0.0,0.0,0.0,0.0,0.0,0.0,0.0,0.0,0.0,4.217,4.2149,4.3065,4.3333,4.3286,4.3401,4.4051,4.4723,4.482,4.5469,4.6133,4.6289,4.6289,4.6055,4.5195,4.4844,4.4726,4.4642,0.0,4.4085,4.5655,4.6133,4.6601,4.7617,0.0,4.9961,5.25,5.2969,5.3945,5.6328,5.6601,5.6601,5.6601,5.6601,5.6601,5.6601,5.6601,5.6601,5.6601,5.6601,5.6601,5.6601,5.6601,5.6523,5.6445,5.5664,5.4844,5.3984,5.3984,5.3594,5.2891,5.3789,5.4101,5.4023,0.0,0.0,5.3945,5.332,5.2969,5.2773,5.1914,5.1562,5.1562,5.1445,5.1406,5.1406,0.0,0.0,0.0,0.0,0.0,0.0,0.0,0.0,0.0,0.0,3.7507,3.8496,0.0,0.0,0.0,0.0,0.0,0.0,0.0,0.0,0.0,0.0,0.0,0.0,0.0,0.0,0.0,0.0,0.0,0.0,0.0,0.0,0.0,0.0,0.0,0.0,0.0,0.0,0.0,0.0,0.0,0.0,0.0,0.0,0.0,0.0,0.0,0.0,0.0,0.0,4.317,4.3119,4.3979,4.4184,4.4243,4.4953,4.5393,4.5665,4.5679,4.5976,4.6289,4.6289,4.6289,4.6055,4.5195,4.4375,0.0,0.0,4.3713,4.3891,4.4911,4.5742,4.6836,4.8437,0.0,0.0,0.0,0.0,5.5273,0.0,0.0,0.0,0.0,0.0,0.0,0.0,0.0,5.6601,5.6601,5.6601,5.6601,5.6601,5.6601,5.625,5.5547,5.539,5.4844,5.3984,5.3984,5.3906,5.3789,5.4687,5.4687,5.4062,5.5508,0.0,5.4023,5.4609,5.4414,5.3672,5.2812,5.2461,5.2383,5.168,5.1406,5.1406,0.0,0.0,0.0,0.0,0.0,0.0,0.0,3.6454,3.7185,3.8493,3.9084,3.9419,3.9505,4.0015,4.0156,0.0,0.0,0.0,0.0,0.0,0.0,0.0,0.0,0.0,0.0,0.0,0.0,0.0,0.0,0.0,0.0,0.0,0.0,0.0,0.0,0.0,0.0,0.0,0.0,0.0,0.0,0.0,0.0,0.0,0.0,0.0,0.0,0.0,0.0,0.0,4.3825,4.4169,4.5065,4.524,4.5201,4.5624,4.5873,4.6012,4.5991,4.6133,4.6289,4.6289,4.6289,4.5937,4.457,0.0,0.0,0.0,4.354,4.3994,4.5271,0.0,0.0,0.0,0.0,0.0,0.0,0.0,0.0,0.0,0.0,0.0,0.0,0.0,0.0,0.0,0.0,5.6601,5.6601,5.6601,5.6601,5.6601,5.6601,5.6406,5.5976,5.5547,5.5078,5.4687,5.4687,5.4687,5.4726,5.5586,5.5742,5.539,5.625,0.0,5.5351,5.5312,5.5039,5.4609,5.3711,5.3086,5.2695,5.2734,5.2187,5.1445,0.0,0.0,0.0,0.0,0.0,0.0,0.0,3.681,3.7771,4.0162,4.0677,4.0677,4.0254,4.0805,4.0876,0.0,0.0,0.0,0.0,0.0,0.0,0.0,0.0,0.0,0.0,0.0,0.0,0.0,0.0,0.0,0.0,0.0,0.0,0.0,0.0,0.0,0.0,0.0,0.0,0.0,0.0,0.0,0.0,0.0,0.0,0.0,0.0,0.0,0.0,0.0,4.3945,4.4681,4.5354,4.562,4.5659,4.5866,4.5982,4.6096,4.6119,4.6211,4.6289,4.6289,4.6289,4.582,4.4023,4.3743,0.0,0.0,4.3674,4.4336,4.5859,0.0,0.0,0.0,0.0,0.0,0.0,0.0,0.0,0.0,0.0,0.0,0.0,0.0,0.0,0.0,0.0,0.0,5.6601,5.6601,5.6601,5.6601,5.6601,5.6523,5.6328,5.582,5.539,5.5039,5.539,5.5469,5.5312,5.6211,5.6601,5.6601,5.6601,0.0,0.0,5.5859,5.5586,5.5469,5.4414,5.3711,5.3281,5.3594,5.2851,5.1797,0.0,0.0,0.0,0.0,0.0,0.0,0.0,3.7162,3.824,4.0223,4.1309,4.2079,4.2701,4.2256,4.1853,0.0,0.0,0.0,0.0,0.0,0.0,0.0,0.0,0.0,0.0,0.0,0.0,0.0,0.0,0.0,0.0,0.0,0.0,0.0,0.0,0.0,0.0,0.0,0.0,0.0,0.0,0.0,0.0,0.0,0.0,0.0,0.0,0.0,0.0,0.0,0.0,4.3828,4.3902,4.4329,4.4956,4.5698,0.0,0.0,4.6094,4.6211,4.6289,4.6289,4.6289,4.5859,4.4101,0.0,0.0,4.3844,4.4257,4.5078,4.6094,4.6367,0.0,0.0,0.0,4.9883,0.0,0.0,0.0,0.0,0.0,0.0,0.0,0.0,0.0,0.0,0.0,0.0,5.6601,5.6601,5.6601,5.6601,5.6601,5.6211,5.543,5.6133,5.5703,5.4141,5.5703,5.6055,5.5312,5.6211,5.6601,5.6601,5.6601,0.0,0.0,5.6523,5.6484,5.6328,5.4648,5.4414,5.4883,5.3359,5.2734,5.2578,0.0,0.0,0.0,0.0,0.0,0.0,3.707,3.7562,3.8853,4.17,4.2409,4.3179,4.447,4.3871,4.2988,4.1983,0.0,0.0,0.0,0.0,0.0,0.0,0.0,0.0,0.0,0.0,0.0,0.0,0.0,0.0,0.0,0.0,0.0,0.0,0.0,0.0,0.0,0.0,0.0,0.0,0.0,0.0,0.0,0.0,0.0,0.0,0.0,0.0,0.0,0.0,0.0,0.0,4.3711,4.3516,0.0,0.0,4.5781,4.6211,4.6211,4.625,4.6289,4.6289,4.5898,4.5195,4.3945,0.0,4.408,4.3709,4.4336,4.5234,4.6133,4.6289,4.6406,0.0,0.0,0.0,0.0,0.0,0.0,0.0,0.0,0.0,0.0,0.0,0.0,0.0,0.0,0.0,5.6601,5.6601,5.6601,5.6601,5.6601,5.6445,5.6094,5.6445,5.625,5.5586,5.6289,5.6406,5.6094,5.6445,5.6601,5.6601,5.6601,0.0,0.0,5.6601,5.6601,5.6523,5.5859,5.5469,5.5273,5.5117,5.4062,5.2851,0.0,0.0,0.0,0.0,0.0,3.5698,3.7458,3.7967,3.9336,4.2646,4.3355,4.4047,4.5432,4.4855,4.3871,4.2656,4.1832,0.0,0.0,0.0,0.0,0.0,0.0,0.0,0.0,0.0,0.0,0.0,0.0,0.0,0.0,0.0,0.0,0.0,0.0,0.0,0.0,0.0,0.0,0.0,0.0,0.0,0.0,0.0,0.0,0.0,0.0,0.0,0.0,0.0,0.0,0.0,0.0,0.0,0.0,0.0,4.5234,4.5937,4.5937,4.6094,4.6289,4.6289,4.5859,4.5156,0.0,0.0,4.4375,4.4062,4.4726,4.5586,4.6172,4.6289,4.6289,4.6289,0.0,4.8906,5.0039,0.0,0.0,0.0,0.0,0.0,0.0,0.0,0.0,0.0,0.0,0.0,5.6992,5.7226,5.7148,5.6601,5.6601,5.6601,5.6601,5.6601,5.6601,5.6601,5.6601,5.6601,5.6601,5.6601,5.6601,5.6601,0.0,0.0,0.0,5.6601,5.6601,5.6562,5.6328,5.6015,5.5742,5.6094,5.5039,5.3633,0.0,0.0,0.0,0.0,0.0,0.0,3.7617,3.8303,3.9586,4.2706,4.391,4.4757,4.5509,4.4949,4.4449,4.4295,4.3547,0.0,0.0,0.0,0.0,0.0,0.0,0.0,0.0,0.0,4.5273,4.6289,4.6289,0.0,0.0,0.0,0.0,0.0,0.0,0.0,0.0,0.0,0.0,0.0,0.0,0.0,0.0,0.0,0.0,0.0,0.0,0.0,0.0,0.0,0.0,0.0,0.0,4.3008,4.3672,0.0,4.4336,4.5,4.5,4.5625,4.6289,4.6289,4.6289,4.6055,0.0,0.0,4.6016,4.5156,4.5664,4.6289,4.6289,4.6289,4.6289,4.6289,4.7031,0.0,4.9961,0.0,0.0,0.0,0.0,0.0,0.0,0.0,0.0,0.0,0.0,0.0,5.789,5.8711,5.8398,5.664,5.6601,5.6601,5.6601,5.6601,5.6601,5.6601,5.6601,5.6601,5.6601,5.6601,5.6601,0.0,0.0,0.0,0.0,5.6601,5.6601,5.6523,5.5664,5.5859,5.6484,5.5625,5.5312,5.5273,0.0,0.0,0.0,0.0,0.0,0.0,0.0,3.8004,3.9665,4.2398,4.3217,4.4064,4.5432,4.5411,4.497,4.4376,4.3585,0.0,0.0,0.0,0.0,0.0,0.0,0.0,0.0,0.0,4.5749,4.6172,4.6172,4.6133,4.6016,4.5859,0.0,0.0,0.0,0.0,0.0,0.0,0.0,0.0,0.0,0.0,0.0,0.0,0.0,0.0,0.0,0.0,0.0,0.0,0.0,0.0,0.0,0.0,0.0,4.3008,4.3437,4.4258,4.4844,4.5195,4.5547,4.6133,4.5859,4.5351,4.5078,0.0,4.5312,4.5078,4.5703,4.6289,4.6289,4.6289,4.6289,4.6289,4.7539,0.0,0.0,0.0,0.0,0.0,0.0,0.0,0.0,0.0,0.0,0.0,0.0,0.0,5.707,5.7851,5.8047,5.75,5.75,5.7187,5.6601,5.6601,5.6601,5.6601,5.6601,5.6601,5.6601,5.6601,0.0,0.0,0.0,0.0,0.0,5.6601,5.6601,5.6562,5.6289,5.6367,5.6562,5.6289,5.582,5.539,0.0,0.0,0.0,0.0,0.0,0.0,0.0,3.8375,3.9966,4.2283,4.3162,4.4102,4.5432,4.5586,4.5393,4.4837,4.4316,0.0,0.0,0.0,0.0,0.0,0.0,0.0,0.0,4.5854,4.5935,4.6016,4.6362,4.6307,4.5917,4.6385,4.6132,4.5273,0.0,0.0,0.0,0.0,0.0,0.0,0.0,0.0,4.6211,0.0,0.0,0.0,0.0,0.0,0.0,0.0,0.0,0.0,0.0,0.0,0.0,0.0,4.3516,4.3828,0.0,4.4766,4.5195,4.6094,4.5898,0.0,0.0,0.0,4.5508,4.5508,4.5937,4.6289,4.6289,4.625,4.625,4.6289,4.7734,0.0,0.0,0.0,0.0,0.0,0.0,0.0,0.0,0.0,0.0,0.0,0.0,0.0,5.8086,5.8555,5.8711,5.8398,5.7734,5.7148,5.6601,5.6601,5.6601,5.6601,5.6601,5.6601,5.6601,5.6601,0.0,0.0,0.0,0.0,0.0,5.6601,5.6601,5.6601,5.6601,5.6601,5.6601,5.6601,5.625,5.5859,0.0,0.0,0.0,0.0,0.0,0.0,0.0,3.9087,4.0392,4.2343,4.3525,4.4568,4.5509,4.5586,4.5586,4.5586,0.0,0.0,0.0,0.0,0.0,0.0,0.0,0.0,4.5796,4.5793,4.5816,4.5894,4.6705,4.6698,4.5893,4.6852,4.6868,4.6055,4.5391,0.0,0.0,0.0,0.0,0.0,0.0,4.6289,0.0,0.0,0.0,0.0,0.0,0.0,0.0,0.0,0.0,0.0,0.0,0.0,0.0,0.0,0.0,0.0,0.0,4.4375,4.5195,4.6094,4.6289,4.6289,0.0,0.0,0.0,4.6289,4.6289,4.6289,4.6289,4.6171,4.6129,4.6285,4.7652,0.0,0.0,0.0,0.0,0.0,0.0,0.0,0.0,0.0,0.0,0.0,0.0,0.0,6.0234,6.0273,5.9922,5.9023,5.7422,5.6601,5.6601,5.6601,5.6601,5.6601,5.6601,5.6601,5.6601,5.6601,0.0,0.0,0.0,0.0,0.0,5.6601,5.6601,5.6601,5.6601,5.6601,5.6601,5.6601,5.6601,5.6601,0.0,0.0,0.0,0.0,0.0,0.0,0.0,0.0,0.0,0.0,4.3073,4.3943,4.5449,4.5586,4.5586,0.0,0.0,0.0,0.0,0.0,0.0,0.0,0.0,0.0,4.5796,4.5795,4.5802,4.5802,4.6012,4.5991,4.5668,4.6068,4.6119,4.5937,4.5976,4.5976,0.0,0.0,0.0,0.0,4.6289,4.6289,0.0,0.0,0.0,0.0,4.2247,4.2556,0.0,0.0,0.0,0.0,0.0,0.0,0.0,0.0,4.4844,4.4687,4.4687,0.0,4.5195,4.6094,4.6289,4.6289,0.0,0.0,0.0,0.0,0.0,4.6289,4.6289,4.6208,4.6164,4.628,4.7666,0.0,0.0,0.0,0.0,0.0,0.0,0.0,0.0,0.0,0.0,0.0,0.0,6.043,5.8594,5.9101,5.8789,5.7265,5.6797,5.6601,5.6601,5.6601,5.6601,5.6601,5.6601,5.6601,5.6601,5.6601,0.0,0.0,0.0,0.0,5.6601,5.6601,5.6601,5.6601,5.6601,5.6601,5.6601,5.6601,5.6601,5.6601,0.0,0.0,0.0,0.0,0.0,0.0,0.0,0.0,0.0,0.0,0.0,4.3756,4.5393,4.5586,0.0,0.0,0.0,0.0,0.0,0.0,0.0,0.0,0.0,4.5624,4.5719,4.5719,4.5719,4.5719,4.6103,4.6086,4.5706,4.624,4.6274,4.5898,4.6133,4.6211,0.0,0.0,0.0,0.0,4.6211,0.0,0.0,0.0,0.0,0.0,4.2112,4.2267,0.0,4.3444,4.4406,4.5586,0.0,0.0,0.0,0.0,4.5586,4.5586,4.5586,4.5312,4.5195,4.6094,4.6289,4.6289,4.6289,0.0,0.0,0.0,0.0,0.0,4.631,0.0,0.0,0.0,4.8435,0.0,0.0,0.0,0.0,0.0,0.0,0.0,0.0,0.0,0.0,0.0,0.0,6.0874,0.0,5.9609,5.9045,5.7683,5.736,5.6992,5.6601,5.6601,5.6601,5.6601,5.6601,5.6797,5.7187,5.6797,5.6836,0.0,0.0,0.0,5.6601,5.6601,5.6601,5.6601,5.6601,5.6601,5.6601,5.6601,5.6601,5.6601,0.0,0.0,0.0,0.0,0.0,0.0,0.0,0.0,0.0,0.0,0.0,0.0,0.0,0.0,0.0,0.0,0.0,0.0,0.0,0.0,0.0,0.0,4.5586,4.5586,4.5586,4.5586,4.5586,4.5586,4.6467,4.6583,4.6026,4.6831,4.6745,4.5922,4.6039,4.6087,0.0,0.0,0.0,0.0,4.6133,0.0,0.0,0.0,0.0,0.0,0.0,0.0,0.0,4.3492,4.4178,4.5065,4.5819,0.0,0.0,0.0,0.0,0.0,4.6289,4.5742,4.5391,4.6133,4.6289,4.6289,4.6289,0.0,0.0,0.0,0.0,0.0,0.0,0.0,0.0,0.0,0.0,0.0,0.0,0.0,0.0,0.0,0.0,0.0,0.0,0.0,0.0,0.0,0.0,6.1256,0.0,6.0459,5.956,5.8703,5.8013,5.7291,5.6558,5.6549,5.6549,5.6558,5.6675,5.7026,5.7612,5.7148,5.7226,0.0,0.0,0.0,5.6601,5.6875,5.6914,5.6797,5.6797,5.6797,5.6797,5.664,5.668,5.6797,0.0,0.0,0.0,0.0,0.0,0.0,0.0,0.0,0.0,0.0,0.0,0.0,0.0,0.0,0.0,0.0,0.0,0.0,0.0,0.0,0.0,4.5586,4.5586,4.5586,4.5586,4.5586,4.5586,4.5586,4.6467,4.6908,4.6908,4.7104,4.6807,4.6066,4.6104,4.6095,4.6094,0.0,0.0,4.6133,4.6094,0.0,0.0,0.0,0.0,0.0,0.0,0.0,0.0,4.4047,4.4938,4.5661,4.5877,0.0,0.0,0.0,0.0,0.0,4.6289,4.6211,4.6133,4.6289,4.6289,4.6289,0.0,0.0,0.0,0.0,0.0,0.0,0.0,0.0,0.0,0.0,0.0,0.0,0.0,0.0,0.0,0.0,0.0,0.0,0.0,0.0,0.0,0.0,0.0,0.0,0.0,5.9387,5.853,5.7651,5.6869,5.6412,5.6251,5.6373,5.6373,5.6251,5.6933,5.6982,5.6494,5.7916,5.7851,0.0,0.0,5.7969,5.6719,5.8203,5.8359,5.7695,5.7695,5.7695,5.7617,5.6875,5.707,5.7695,0.0,0.0,0.0,0.0,0.0,0.0,0.0,0.0,0.0,0.0,0.0,0.0,0.0,0.0,0.0,0.0,0.0,0.0,0.0,0.0,4.5586,4.5586,4.5586,4.5586,4.5586,4.6065,4.6313,4.6313,4.7139,4.7661,4.7874,4.7462,4.7099,4.666,4.6275,4.6053,4.6016,4.6211,4.6211,4.6093,0.0,0.0,0.0,0.0,0.0,0.0,0.0,0.0,0.0,0.0,4.3957,4.5115,4.5138,0.0,0.0,0.0,0.0,0.0,4.6172,4.625,4.6289,4.6289,4.6236,4.6202,0.0,0.0,0.0,0.0,0.0,0.0,0.0,0.0,0.0,0.0,0.0,0.0,0.0,0.0,0.0,0.0,0.0,0.0,0.0,0.0,0.0,0.0,0.0,0.0,0.0,0.0,5.9547,5.8734,5.7949,5.7486,5.7362,5.6983,5.6829,5.6842,5.7693,5.8157,5.8291,5.8648,5.8647,5.837,0.0,5.8594,5.789,5.8828,5.8945,5.8594,5.8594,5.8594,5.8555,5.8164,5.8242,5.8555,0.0,0.0,0.0,0.0,0.0,0.0,0.0,0.0,0.0,0.0,0.0,0.0,0.0,0.0,0.0,0.0,0.0,0.0,0.0,0.0,4.5586,4.5586,4.5586,4.5719,4.5911,4.6544,4.7006,4.7181,4.8007,4.8536,4.8793,4.804,4.7528,4.721,4.6436,4.6053,4.5976,4.6172,4.6172,4.6052,0.0,0.0,0.0,0.0,0.0,0.0,0.0,0.0,0.0,0.0,0.0,0.0,0.0,0.0,0.0,4.5565,4.5781,4.5984,4.5807,4.5968,4.6204,0.0,0.0,0.0,0.0,0.0,0.0,0.0,0.0,0.0,0.0,0.0,0.0,0.0,0.0,0.0,0.0,0.0,0.0,0.0,0.0,0.0,0.0,0.0,0.0,0.0,0.0,0.0,0.0,0.0,6.0358,5.9765,5.8787,5.8286,5.8319,5.7742,5.7511,5.7604,5.8473,5.9127,5.9565,5.9358,5.9399,5.9657,5.9537,5.9237,5.8945,5.9492,5.9648,5.9492,5.9492,5.9375,5.9219,5.9414,5.9375,5.914,0.0,0.0,0.0,0.0,0.0,0.0,0.0,0.0,0.0,0.0,0.0,0.0,0.0,0.0,0.0,0.0,0.0,0.0,0.0,0.0,4.5586,4.5586,4.5586,4.5988,4.6775,4.687,4.7296,4.803,4.8894,4.9433,4.9683,4.8945,4.8163,4.7336,4.6474,4.6091,4.6094,4.6094,4.6055,4.5896,4.5841,0.0,0.0,0.0,0.0,0.0,0.0,0.0,0.0,0.0,0.0,0.0,0.0,0.0,4.4453,4.4581,4.5192,4.565,4.4978,4.536,4.5949,4.609,0.0,0.0,0.0,0.0,0.0,0.0,0.0,0.0,0.0,0.0,0.0,0.0,0.0,0.0,0.0,0.0,0.0,0.0,0.0,0.0,0.0,0.0,0.0,0.0,0.0,0.0,0.0,0.0,0.0,5.9511,5.7934,5.7473,5.828,5.8242,5.8242,5.8242,5.905,5.9088,5.8473,6.0089,6.0035,5.871,6.0393,6.0268,5.9023,6.0664,6.0937,6.0312,6.0312,5.9844,5.9297,6.0039,5.9844,5.9297,0.0,0.0,0.0,0.0,0.0,0.0,0.0,0.0,0.0,0.0,0.0,0.0,0.0,0.0,0.0,0.0,0.0,0.0,0.0,4.5586,4.5586,4.5586,4.5586,4.6026,4.687,4.7394,4.8337,4.9721,5.0702,5.0998,5.0508,4.9375,4.832,4.7383,4.6592,4.6132,4.5976,4.6076,4.5986,4.5847,4.5812,4.5719,0.0,0.0,0.0,0.0,0.0,0.0,0.0,0.0,4.3855,4.3701,4.453,4.4953,4.5124,4.518,4.5466,4.5731,4.5448,4.5631,4.5905,0.0,0.0,0.0,0.0,0.0,0.0,0.0,0.0,0.0,0.0,0.0,0.0,0.0,0.0,0.0,0.0,0.0,0.0,0.0,0.0,0.0,0.0,0.0,0.0,0.0,0.0,0.0,0.0,0.0,0.0,6.0319,5.9165,5.8973,5.9858,5.9319,5.9319,5.9858,6.0165,6.0165,5.9896,6.055,6.0512,5.9973,6.0781,6.075,6.0279,6.1062,6.1198,6.0971,6.1047,6.0898,6.0662,6.0962,6.0932,6.0703,0.0,0.0,0.0,0.0,0.0,0.0,0.0,0.0,0.0,0.0,0.0,0.0,0.0,0.0,0.0,0.0,0.0,0.0,4.5432,4.5547,4.5586,4.5586,4.5586,4.595,4.6698,4.7394,4.8567,5.0279,5.1395,5.149,5.0586,4.9453,4.835,4.7357,4.6635,4.6169,4.5909,4.6009,4.595,4.5796,4.5757,4.568,0.0,0.0,0.0,0.0,0.0,0.0,0.0,0.0,4.3688,4.3611,4.4453,4.4932,4.5201,4.5201,4.5449,4.5659,4.5411,4.5565,4.5834,0.0,0.0,0.0,0.0,0.0,0.0,0.0,0.0,0.0,0.0,0.0,0.0,0.0,0.0,0.0,0.0,0.0,0.0,0.0,0.0,0.0,0.0,0.0,0.0,0.0,0.0,0.0,0.0,0.0,0.0,0.0,5.9935,5.9935,6.0781,5.9935,5.9935,6.0781,6.0781,6.0781,6.0781,6.0781,6.0781,6.0819,6.0896,6.0935,6.102,6.1152,6.1229,6.1298,6.1412,6.1426,6.1442,6.1446,6.1483,6.1478,0.0,0.0,0.0,0.0,0.0,0.0,0.0,0.0,0.0,0.0,0.0,0.0,0.0,0.0,0.0,0.0,0.0,0.0,4.5124,4.5393,4.5586,4.5586,4.5586,4.5834,4.6275,4.6698,4.772,4.9394,5.0525,5.0646,4.9766,4.918,4.8347,4.7366,4.6616,4.6147,4.59,4.5896,4.5873,4.5796,4.5624,4.5586,4.5509,0.0,0.0,0.0,0.0,0.0,0.0,0.0,4.5009,4.4432,4.5316,4.5009,4.4316,4.4316,4.4932,4.5393,4.4547,4.4932,0.0,0.0,0.0,0.0,0.0,0.0,0.0,0.0,0.0,0.0,0.0,0.0,0.0,0.0,0.0,0.0,0.0,0.0,0.0,0.0,0.0,0.0,0.0,0.0,0.0,0.0,0.0,0.0,0.0,0.0,0.0,0.0,5.9973,5.9935,6.0781,5.9935,5.9935,6.0781,6.0781,6.0781,6.0781,6.0781,6.0781,6.0781,6.0781,6.0858,6.0973,6.0973,6.1112,6.1304,6.1304,6.1273,6.1277,6.1277,6.132,6.1296,0.0,0.0,0.0,0.0,0.0,0.0,0.0,0.0,0.0,0.0,0.0,0.0,0.0,0.0,0.0,0.0,0.0,0.0,4.5071,4.5393,4.5586,4.5586,4.5586,4.568,4.5796,4.7068,4.8279,4.9394,5.047,5.03,4.8867,4.8163,4.7376,4.6485,4.6162,4.5936,4.5822,4.5819,4.5757,4.5663,4.5624,4.5586,4.5509,0.0,0.0,0.0,0.0,0.0,0.0,0.0,0.0,0.0,4.5316,4.5432,4.5201,4.5201,4.5393,4.5547,4.5278,4.5393,0.0,0.0,0.0,0.0,0.0,0.0,0.0,0.0,0.0,0.0,0.0,0.0,0.0,0.0,0.0,0.0,0.0,0.0,0.0,0.0,0.0,0.0,0.0,0.0,0.0,0.0,0.0,0.0,0.0,0.0,0.0,0.0,6.055,6.055,6.0781,6.055,6.055,6.0781,6.0781,6.0781,6.0781,6.0781,6.0781,6.0781,6.0781,6.0819,6.0858,6.0858,6.0896,6.0935,6.105,6.1087,6.1079,6.1079,6.1169,6.1289,0.0,0.0,0.0,0.0,0.0,0.0,0.0,0.0,0.0,0.0,4.3623,0.0,0.0,0.0,0.0,0.0,0.0,0.0,0.0,4.5393,4.5586,4.5586,4.547,4.5393,4.5393,4.7375,4.8241,4.7876,4.9644,4.964,4.7969,4.7571,4.6908,4.6026,4.595,4.5827,4.5699,4.578,4.5719,4.5586,4.5586,4.5586,4.5547,0.0,0.0,0.0,0.0,0.0,0.0,0.0,0.0,0.0,4.5432,4.5586,4.5586,4.5586,4.5586,4.5586,4.5586,0.0,0.0,0.0,0.0,0.0,0.0,0.0,0.0,0.0,0.0,0.0,0.0,0.0,0.0,0.0,0.0,0.0,0.0,0.0,0.0,0.0,0.0,0.0,0.0,0.0,0.0,0.0,0.0,0.0,0.0,0.0,0.0,0.0,6.0781,6.0781,6.0781,6.0781,6.0781,6.0781,6.0781,6.0781,6.0781,6.0781,6.0781,6.0781,6.0781,6.0781,6.0781,6.0781,6.0781,6.0819,6.0896,6.0896,6.0896,6.0896,6.0973,6.1074,0.0,0.0,3.9423,4.0965,0.0,0.0,0.0,0.0,0.0,0.0,4.3497,4.3497,0.0,0.0,0.0,0.0,0.0,0.0,0.0,0.0,4.5571,4.5571,4.5322,4.5225,4.5337,4.7625,4.7798,4.5706,4.8372,4.8771,4.7067,4.7209,4.6775,4.5911,4.5873,4.5757,4.5586,4.5719,4.5719,4.5586,4.5586,4.5586,4.5586,4.5586,0.0,0.0,0.0,0.0,0.0,0.0,0.0,0.0,4.5586,4.5586,4.5586,4.5586,4.5586,4.5586,4.5586,0.0,0.0,0.0,0.0,0.0,0.0,0.0,0.0,0.0,0.0,0.0,0.0,0.0,0.0,0.0,0.0,0.0,0.0,0.0,0.0,0.0,0.0,0.0,0.0,0.0,0.0,0.0,0.0,0.0,0.0,0.0,0.0,6.0781,6.0781,6.0781,6.0781,6.0781,6.0781,0.0,6.0781,6.0781,6.0781,6.0781,6.0781,6.0781,6.0781,6.0781,6.0781,6.0781,6.0781,6.0781,6.0781,6.0781,6.0781,6.0781,6.0781,6.0781,0.0,0.0,4.0891,4.1882,0.0,0.0,0.0,0.0,0.0,0.0,0.0,0.0,0.0,0.0,0.0,0.0,0.0,0.0,0.0,4.5175,4.5228,4.5228,4.5735,4.6344,4.6973,4.7818,4.7722,4.6606,4.7948,4.7752,4.6098,4.6148,4.6026,4.5834,4.5719,4.5624,4.5586,4.5624,4.5624,4.5586,4.5586,4.5586,4.5586,4.5586,4.5586,0.0,0.0,0.0,0.0,0.0,0.0,0.0,4.5586,4.5586,4.5586,4.5586,4.5586,4.5586,0.0,0.0,0.0,0.0,0.0,0.0,0.0,0.0,0.0,0.0,0.0,0.0,0.0,0.0,0.0,0.0,0.0,0.0,0.0,0.0,0.0,0.0,0.0,0.0,0.0,0.0,0.0,0.0,0.0,0.0,6.0781,0.0,0.0,6.0781,6.0781,6.0781,6.0781,6.0781,6.0781,0.0,6.0781,6.0781,6.0781,6.0781,6.0781,6.0781,6.0781,6.0781,6.0781,6.0781,6.0781,6.0781,6.0781,6.0781,6.0781,6.0781,6.0781,6.0781,0.0,0.0,0.0,0.0,0.0,0.0,0.0,0.0,0.0,0.0,0.0,0.0,0.0,0.0,0.0,0.0,0.0,0.0,0.0,0.0,4.4944,4.4573,4.5677,4.6225,4.6101,4.7395,4.7509,4.6278,4.7199,4.7008,4.579,4.578,4.5796,4.5796,4.5663,4.5586,4.5586,4.5586,4.5532,4.5381,4.5381,4.5263,4.5099,4.5099,4.5222,4.5381,4.5381,0.0,0.0,0.0,0.0,0.0,0.0,0.0,4.5586,4.5586,4.5586,4.5586,0.0,0.0,0.0,0.0,0.0,0.0,0.0,0.0,0.0,0.0,0.0,0.0,0.0,0.0,0.0,0.0,0.0,0.0,0.0,0.0,0.0,0.0,0.0,0.0,0.0,0.0,0.0,0.0,0.0,6.0781,6.0781,6.0781,6.0781,6.0781,6.0781,6.0781,6.0781,6.0781,6.0781,6.0781,6.0781,6.0781,6.0781,6.0781,6.0781,6.0781,6.0781,6.0781,6.0781,6.0781,6.0781,6.0781,6.0781,6.0781,6.0781,6.0781,6.0781,6.0781,0.0,0.0,0.0,0.0,0.0,0.0,0.0,0.0,0.0,0.0,0.0,0.0,0.0,0.0,0.0,0.0,0.0,0.0,0.0,0.0,0.0,4.4152,4.5453,4.5821,4.5024,4.6894,4.7201,4.5817,4.6394,0.0,0.0,0.0,4.5757,4.5757,4.5624,4.5586,4.5586,4.555,4.5361,4.5077,4.5033,4.4849,4.4624,4.4676,4.4872,4.5115,4.518,4.5381,4.5586,4.5586,0.0,0.0,0.0,0.0,4.5586,4.5586,4.5586,4.5586,0.0,0.0,0.0,0.0,0.0,0.0,0.0,0.0,0.0,0.0,0.0,0.0,0.0,0.0,0.0,0.0,0.0,0.0,0.0,0.0,0.0,0.0,0.0,0.0,0.0,0.0,0.0,0.0,0.0,6.0781,6.0781,6.0781,6.0781,6.0781,6.0781,6.0781,6.0781,6.0781,6.0781,6.0781,6.0781,6.0781,6.0781,6.0781,6.0781,6.0781,6.0781,6.0781,6.0781,6.0781,6.0781,6.0781,6.0781,6.0781,6.0781,6.0781,6.0781,6.0819,0.0,0.0,0.0,0.0,0.0,0.0,0.0,0.0,0.0,0.0,4.3424,0.0,0.0,4.247,4.2458,4.2435,4.3075,4.362,4.4031,0.0,0.0,4.4597,4.5402,4.6123,4.669,4.6946,4.6971,4.674,0.0,0.0,0.0,0.0,0.0,4.5624,0.0,4.5586,4.5586,4.5283,4.5159,4.5055,4.48,4.465,4.465,4.4919,4.5033,0.0,0.0,4.5568,4.5586,4.5586,4.5586,0.0,0.0,0.0,0.0,4.5586,4.5586,4.5586,0.0,0.0,0.0,0.0,0.0,0.0,0.0,0.0,0.0,0.0,0.0,0.0,0.0,0.0,0.0,0.0,0.0,0.0,0.0,0.0,0.0,0.0,0.0,0.0,0.0,0.0,0.0,0.0,6.0781,6.0781,6.0781,6.0781,6.0781,6.0781,6.0781,6.0781,6.0781,6.0781,6.0781,6.0781,6.0781,6.0781,6.0781,6.0781,6.0781,6.0781,6.0781,6.0781,6.0781,6.0781,6.0781,6.0781,6.0781,6.0781,6.0781,6.0781,6.0781,6.0896,0.0,0.0,0.0,0.0,0.0,0.0,0.0,0.0,0.0,0.0,0.0,4.2873,4.2947,4.258,4.2364,4.2482,4.2415,4.2581,4.3201,4.3726,4.3998,4.4046,4.4736,4.5278,4.5655,4.5969,4.6163,4.6163,0.0,0.0,0.0,4.5586,4.5586,0.0,0.0,0.0,4.5303,0.0,4.4872,4.4482,4.4318,4.4154,4.4004,0.0,0.0,0.0,0.0,0.0,0.0,0.0,0.0,0.0,0.0,0.0,0.0,0.0,0.0,0.0,4.674,0.0,0.0,0.0,0.0,0.0,0.0,0.0,0.0,0.0,0.0,0.0,0.0,0.0,0.0,0.0,0.0,0.0,0.0,0.0,0.0,0.0,0.0,0.0,0.0,0.0,0.0,0.0,6.0781,6.0781,6.0781,6.0781,6.0781,6.0781,6.0781,6.0781,6.0781,6.0781,6.0781,6.0781,6.0781,6.0781,6.0781,6.0781,6.0781,6.0781,6.0781,6.0781,6.0781,6.0781,6.0781,6.0781,6.0781,6.0781,6.0781,6.0781,6.1089,6.1589,0.0,0.0,0.0,0.0,0.0,0.0,0.0,0.0,0.0,0.0,0.0,4.2543,4.313,0.0,0.0,0.0,4.1642,4.1716,4.2723,4.3274,4.3536,4.3495,4.4213,4.4599,4.4599,4.5263,4.5586,0.0,0.0,0.0,4.5586,4.5586,4.5586,0.0,4.5586,0.0,0.0,0.0,0.0,0.0,0.0,4.3726,4.3532,0.0,0.0,0.0,0.0,0.0,0.0,0.0,0.0,0.0,0.0,0.0,0.0,0.0,0.0,0.0,0.0,0.0,0.0,0.0,0.0,0.0,0.0,0.0,0.0,0.0,0.0,0.0,0.0,0.0,0.0,0.0,0.0,0.0,0.0,0.0,0.0,0.0,0.0,0.0,0.0,0.0,0.0,0.0,6.0781,6.0781,6.0781,6.0781,6.0781,6.0781,6.0781,6.0781,6.0781,6.0781,6.0781,6.0781,6.0781,6.0781,6.0781,6.0781,6.0781,6.0781,6.0781,6.0781,6.0781,6.0781,6.0781,6.0781,6.0781,6.0781,6.0781,6.0781,6.1358,6.2127,0.0,0.0,0.0,0.0,0.0,0.0,0.0,0.0,0.0,0.0,0.0,4.2323,4.2359,4.1662,4.0977,4.0477,4.0449,4.112,4.2686,4.2511,4.2724,4.3461,4.4213,0.0,4.4599,4.5263,0.0,0.0,0.0,0.0,4.5586,4.5586,4.5586,4.5586,4.5586,4.5419,4.5094,0.0,0.0,0.0,4.3627,4.3532,0.0,0.0,0.0,0.0,0.0,0.0,0.0,0.0,0.0,0.0,0.0,0.0,0.0,0.0,0.0,0.0,0.0,0.0,0.0,0.0,0.0,0.0,0.0,0.0,0.0,0.0,0.0,0.0,0.0,0.0,0.0,0.0,0.0,0.0,0.0,0.0,0.0,0.0,0.0,0.0,0.0,0.0,0.0,0.0,6.0781,6.0781,6.0781,6.0781,6.0781,6.0781,6.0781,6.0781,6.0781,6.0781,6.0781,6.0781,6.0781,6.0781,6.0781,6.0781,6.0781,6.0781,6.0781,6.0781,6.0781,6.0781,6.0781,6.0781,6.0781,6.0781,6.0781,6.0781,6.1358,6.2204,0.0,0.0,0.0,0.0,0.0,0.0,0.0,0.0,0.0,0.0,0.0,0.0,0.0,4.1589,4.0809,4.0087,4.0523,4.1298,4.2405,4.2864,4.3204,4.3497,4.4213,4.4599,4.4599,4.5263,0.0,0.0,0.0,4.5475,4.5263,4.5475,4.5586,4.5586,4.5381,4.5077,4.4776,4.4373,0.0,0.0,4.3529,4.3497,4.3532,0.0,0.0,0.0,0.0,0.0,0.0,0.0,0.0,0.0,0.0,0.0,0.0,0.0,0.0,0.0,0.0,0.0,0.0,0.0,0.0,0.0,0.0,0.0,0.0,0.0,0.0,0.0,0.0,0.0,0.0,0.0,0.0,0.0,0.0,0.0,0.0,0.0,0.0,0.0,0.0,0.0,0.0,0.0,0.0,6.0781,6.0781,6.0781,6.0781,6.0781,6.0781,6.0781,6.0781,6.0781,6.0781,6.0781,6.0781,6.0781,6.0781,6.0781,6.0781,6.0781,6.0781,6.0781,6.0781,6.0781,6.0781,6.0781,6.0781,6.0781,6.0781,6.0781,6.1666,6.2897,0.0,0.0,0.0,0.0,0.0,0.0,0.0,0.0,0.0,0.0,0.0,0.0,0.0,0.0,4.1185,4.0377,4.0781,4.1442,4.2249,4.28,4.3204,4.3497,4.4213,4.4546,4.4401,0.0,0.0,0.0,0.0,0.0,0.0,4.5438,4.555,4.5419,4.5055,4.4825,0.0,0.0,0.0,4.3497,0.0,4.3497,4.3497,0.0,0.0,0.0,0.0,0.0,0.0,0.0,0.0,0.0,0.0,0.0,0.0,0.0,0.0,0.0,0.0,0.0,0.0,0.0,0.0,0.0,0.0,0.0,0.0,0.0,0.0,0.0,0.0,0.0,0.0,0.0,0.0,0.0,0.0,0.0,0.0,0.0,0.0,0.0,0.0,0.0,0.0,0.0,0.0,0.0,6.0781,6.0781,6.0781,6.0781,6.0781,6.0781,6.0781,6.0781,6.0781,6.0781,6.0781,6.0781,6.0781,6.0781,6.0781,6.0781,6.0781,6.0781,6.0781,6.0781,6.0781,6.0781,6.0781,6.0973,6.1243,6.1243,6.2281,6.3743,0.0,0.0,0.0,0.0,0.0,0.0,0.0,0.0,0.0,4.2286,0.0,0.0,0.0,0.0,0.0,4.1222,4.1148,4.1479,4.2286,4.2323,4.269,4.3461,4.4213,4.4401,4.3998,0.0,0.0,0.0,0.0,0.0,0.0,0.0,4.5419,4.5055,4.4751,4.4599,4.4572,0.0,4.3823,4.3497,0.0,4.3497,4.3497,0.0,0.0,0.0,4.3497,4.3497,0.0,0.0,0.0,0.0,0.0,0.0,0.0,0.0,0.0,0.0,0.0,0.0,0.0,0.0,0.0,0.0,5.2997,0.0,5.3006,0.0,0.0,0.0,0.0,0.0,0.0,0.0,0.0,0.0,0.0,0.0,0.0,0.0,0.0,0.0,0.0,0.0,0.0,0.0,6.0781,6.0781,6.0781,6.0781,6.0781,6.0781,6.0781,6.0781,6.0781,6.0781,6.0781,6.0781,6.0781,6.0781,6.0781,6.0781,6.0781,6.0781,6.0781,6.0781,6.0781,6.0781,6.0781,6.0781,6.0781,6.132,6.2089,6.2089,6.3166,6.4589,0.0,0.0,0.0,0.0,0.0,0.0,4.2433,4.2286,4.2286,0.0,0.0,0.0,0.0,4.1919,4.1589,4.1956,4.1992,4.2323,4.313,4.3167,4.3277,4.3497,4.3943,4.4117,4.3998,0.0,0.0,0.0,0.0,0.0,0.0,0.0,0.0,0.0,4.4455,4.4146,4.4146,4.3791,0.0,0.0,4.3497,4.3497,0.0,0.0,0.0,0.0,0.0,4.3497,0.0,0.0,4.3563,4.3664,0.0,0.0,0.0,0.0,0.0,0.0,4.4336,0.0,0.0,0.0,0.0,0.0,4.9943,5.0579,5.1395,0.0,0.0,0.0,0.0,0.0,0.0,0.0,0.0,0.0,0.0,0.0,0.0,0.0,0.0,0.0,0.0,0.0,0.0,0.0,6.0781,6.0781,6.0781,6.0781,6.0781,6.0781,6.0781,6.0781,6.0781,6.0781,6.0781,6.0781,6.0781,6.0781,6.0781,6.0781,6.0781,6.0781,6.0781,6.0781,6.0781,6.0781,6.0781,6.0781,6.0781,6.132,6.2089,6.2089,6.3166,6.4589,0.0,0.0,4.3497,4.3497,0.0,4.3314,4.2873,4.28,4.28,0.0,0.0,0.0,0.0,0.0,4.2286,4.2763,4.28,4.2983,4.3461,4.3497,4.3497,4.3497,4.3818,4.3943,4.3786,0.0,0.0,0.0,0.0,0.0,0.0,0.0,0.0,0.0,4.4204,0.0,0.0,0.0,0.0,0.0,4.3497,0.0,0.0,4.3497,4.3497,0.0,0.0,0.0,4.3497,4.3497,4.3497,0.0,0.0,0.0,0.0,0.0,0.0,0.0,0.0,0.0,0.0,0.0,0.0,0.0,4.9183,4.9546,5.0164,0.0,0.0,0.0,0.0,0.0,0.0,0.0,0.0,0.0,0.0,0.0,0.0,0.0,0.0,0.0,0.0,6.1247,6.132,6.132,6.1012,6.0781,6.0781,6.0781,6.0781,6.0781,6.0781,6.0781,6.0781,6.0781,6.0781,6.0781,6.0781,6.0781,6.0781,6.0781,6.0781,6.0781,6.0781,6.0781,6.0781,6.0781,6.0781,6.0781,6.0781,6.155,6.2589,6.2589,6.3666,6.5128,0.0,0.0,4.3497,4.3497,4.3497,4.3497,4.3497,4.3497,4.3497,0.0,4.3497,4.3497,0.0,0.0,4.3497,4.3497,4.3497,4.3497,4.3497,4.3497,4.3497,4.3497,4.3791,4.3786,4.3532,4.3786,4.3823,0.0,0.0,0.0,0.0,0.0,0.0,0.0,4.3937,4.3791,0.0,0.0,0.0,4.3497,4.3497,4.3497,0.0,0.0,4.3497,0.0,4.3497,4.3497,4.3497,4.3497,4.3497,0.0,0.0,0.0,0.0,0.0,4.3937,0.0,0.0,0.0,0.0,0.0,0.0,0.0,4.9408,4.9152,4.922,5.2864,0.0,0.0,0.0,0.0,0.0,0.0,0.0,0.0,0.0,0.0,0.0,0.0,0.0,0.0,6.1332,6.172,6.1964,6.1887,6.1219,6.0781,6.0781,6.0781,6.0781,6.0781,6.0781,6.0781,6.0781,6.0781,6.0781,6.0781,6.0781,6.0781,6.0781,6.0781,6.0781,6.0781,6.0781,6.0781,6.0781,6.0781,6.0858,6.0935,6.0935,6.1973,6.3435,6.3435,6.4474,6.5897,4.3461,4.3497,4.3497,4.3497,4.3497,4.3497,4.3497,4.3497,4.3497,4.3497,4.3497,0.0,0.0,0.0,4.3497,4.3497,4.3497,4.3497,4.3497,4.3497,4.3497,4.3497,4.3563,4.3563,4.3497,4.3563,4.3563,4.3497,0.0,0.0,0.0,0.0,0.0,0.0,4.3726,4.3563,0.0,0.0,0.0,4.3497,4.3497,0.0,4.3497,4.3497,4.3497,4.3497,4.3497,4.3497,4.3497,0.0,4.3497,4.3497,0.0,0.0,0.0,0.0,0.0,0.0,0.0,0.0,0.0,0.0,0.0,0.0,4.6715,4.7091,4.831,0.0,5.2361,0.0,0.0,0.0,0.0,0.0,0.0,0.0,0.0,0.0,0.0,0.0,0.0,0.0,6.0849,6.1172,6.1182,6.0523,6.0674,6.0781,6.0781,6.0781,6.0781,6.0781,6.0781,6.0781,6.0781,6.0781,6.0781,6.0781,6.0781,6.0781,6.0781,6.0781,6.0781,6.0781,6.0781,6.0781,6.0781,6.0781,6.1204,6.1858,6.1858,6.2858,6.4359,6.4359,6.5013,6.5974,4.3497,4.3497,4.3497,4.3497,4.3497,4.3497,4.3497,4.3497,4.3497,4.3497,4.3497,0.0,0.0,0.0,0.0,4.3497,4.3497,4.3497,4.3497,4.3497,4.3497,4.3497,4.3497,4.3497,4.3497,4.3497,4.3497,4.3497,0.0,0.0,0.0,0.0,0.0,0.0,0.0,0.0,0.0,0.0,4.3497,4.3497,4.3497,0.0,4.3497,4.3497,4.3497,4.3497,4.3497,4.3497,4.3497,4.3497,4.3754,0.0,0.0,4.3754,4.4011,0.0,4.3497,4.3571,0.0,0.0,0.0,4.4743,0.0,0.0,0.0,4.6838,4.7829,5.0288,5.0802,5.1514,0.0,0.0,0.0,0.0,0.0,0.0,0.0,0.0,0.0,0.0,0.0,0.0,6.0979,6.1553,6.1438,6.0179,6.0533,6.0781,6.0781,6.0781,6.0781,6.0781,6.0781,6.0781,6.0781,6.0781,6.0781,6.0781,6.0781,6.0781,6.0781,6.0781,6.0781,6.0781,6.0781,6.0781,6.0781,6.0781,6.155,6.2666,6.2243,6.3128,6.4589,6.4589,6.5397,6.6551,4.3497,4.3497,4.3497,4.3497,4.3497,4.3497,4.3497,4.3497,4.3497,4.3497,0.0,0.0,0.0,0.0,0.0,0.0,0.0,4.3497,0.0,0.0,4.3424,4.3277,4.3424,4.3424,4.3277,4.3424,4.3497,4.3497,4.3497,0.0,0.0,0.0,0.0,0.0,0.0,0.0,0.0,0.0,0.0,4.3497,0.0,4.3497,4.3497,4.3497,4.3497,4.3497,4.3497,4.3497,4.3497,4.3681,0.0,4.4635,4.4121,4.4305,0.0,0.0,0.0,0.0,0.0,0.0,0.0,0.0,0.0,4.6691,0.0,0.0,0.0,4.926,0.0,0.0,0.0,0.0,0.0,0.0,0.0,0.0,0.0,0.0,0.0,0.0,0.0,0.0,0.0,6.1644,6.1454,6.0179,6.0456,6.0671,6.0781,6.0781,6.0781,6.0781,6.0781,6.0781,6.0781,6.0781,6.0781,6.0781,6.0781,6.0781,6.0781,6.0781,6.0781,6.0781,6.0781,6.0781,6.0819,6.0973,6.1935,6.3243,6.2589,6.3358,6.4859,6.5013,6.5936,6.7128,4.3497,4.3497,4.3497,4.3497,4.3497,4.3497,4.3497,4.3497,4.3497,4.3497,4.3497,0.0,0.0,0.0,0.0,0.0,0.0,0.0,4.3497,0.0,0.0,4.247,4.313,4.3167,4.2433,4.313,4.3497,4.3497,4.3497,4.3497,0.0,0.0,0.0,0.0,4.3497,0.0,0.0,0.0,4.3497,0.0,4.3497,4.3497,0.0,4.3497,4.3497,4.3497,4.3497,4.3497,4.3608,0.0,4.4635,4.4819,0.0,4.5186,0.0,0.0,0.0,0.0,0.0,0.0,0.0,0.0,4.8086,0.0,0.0,0.0,4.8453,4.937,0.0,0.0,0.0,0.0,0.0,0.0,0.0,0.0,0.0,0.0,0.0,0.0,0.0,0.0,0.0,6.0106,5.9853,6.0074,6.0161,6.0365,6.0781,6.0781,6.0781,6.0781,6.0781,6.0781,6.0781,6.0781,6.0781,6.0781,6.0781,6.0781,6.0781,6.0781,6.0781,6.0781,6.0781,6.0781,6.0858,6.1627,6.2474,6.3281,6.3205,6.4205,6.582,6.6551,6.6936,6.7321,4.3497,4.3497,4.3497,4.3497,4.3497,4.3497,4.3497,4.3497,4.3644,4.4121,0.0,0.0,0.0,0.0,0.0,0.0,0.0,0.0,0.0,0.0,0.0,4.302,4.3314,0.0,4.2983,4.3314,4.3497,4.3497,4.3497,4.3497,4.3497,0.0,0.0,0.0,4.3497,0.0,4.3497,0.0,0.0,0.0,0.0,0.0,0.0,4.3497,4.3497,4.3497,4.3497,4.3497,4.3534,0.0,4.4635,0.0,0.0,0.0,0.0,0.0,0.0,0.0,0.0,0.0,0.0,0.0,0.0,0.0,0.0,0.0,4.8563,0.0,0.0,0.0,0.0,0.0,0.0,0.0,0.0,0.0,0.0,0.0,0.0,0.0,0.0,0.0,0.0,0.0,0.0,0.0,6.0103,6.0311,6.0757,6.0781,6.0781,6.0781,6.0781,6.0781,6.0781,6.0781,6.0781,6.0781,6.0781,6.0781,6.0781,6.0781,6.0781,6.0781,6.0781,6.1089,6.1589,6.1935,6.2858,6.4051,6.4051,6.482,6.6013,6.6782,6.7398,6.8013,4.3497,0.0,0.0,0.0,0.0,4.3497,4.3497,4.3497,0.0,0.0,0.0,0.0,4.5736,4.4672,0.0,0.0,0.0,4.3497,0.0,0.0,4.3387,0.0,0.0,0.0,0.0,0.0,4.3497,4.3497,4.3497,4.3497,4.3497,0.0,0.0,0.0,0.0,4.3718,4.3497,0.0,0.0,4.3497,4.3718,4.3828,4.3791,4.3571,4.3497,4.3497,4.3497,4.3497,4.3534,4.3754,4.4599,0.0,4.4452,0.0,0.0,0.0,0.0,0.0,4.9407,0.0,0.0,0.0,0.0,0.0,0.0,0.0,0.0,0.0,0.0,0.0,0.0,0.0,0.0,0.0,0.0,0.0,0.0,0.0,0.0,0.0,0.0,0.0,0.0,0.0,0.0,0.0,0.0,5.9988,6.0559,6.0503,6.055,6.0781,6.0781,6.0781,6.0781,6.0781,6.0781,6.0781,6.0781,6.0781,6.0781,6.0781,6.0781,6.0819,6.105,6.1512,6.2127,6.2589,6.3512,6.4628,6.4859,6.5474,6.632,6.7167,6.8013,6.8898,4.3497,4.3497,0.0,0.0,0.0,0.0,0.0,0.0,0.0,0.0,0.0,0.0,0.0,0.0,0.0,0.0,0.0,4.3497,4.3497,0.0,4.313,0.0,0.0,0.0,0.0,0.0,0.0,4.3497,4.3497,4.3497,0.0,0.0,0.0,0.0,0.0,4.4232,4.3534,4.4342,4.4195,4.3571,4.4342,4.4672,4.4599,0.0,4.3497,4.3497,4.3497,0.0,0.0,4.4415,4.4709,0.0,0.0,0.0,0.0,0.0,0.0,0.0,0.0,0.0,0.0,0.0,0.0,0.0,0.0,0.0,5.0508,0.0,0.0,0.0,0.0,0.0,0.0,0.0,0.0,0.0,0.0,0.0,0.0,0.0,0.0,0.0,0.0,0.0,0.0,0.0,0.0,0.0,6.0094,5.9766,5.9935,6.0781,6.0781,6.0781,6.0781,6.0781,6.0781,6.0781,6.0781,6.0781,6.0781,6.0781,6.0781,6.0858,6.1666,6.205,6.2204,6.3858,6.4551,6.4666,6.5513,6.6359,6.7167,6.8052,6.8898,6.9783,0.0,0.0,0.0,0.0,0.0,0.0,0.0,4.3497,0.0,0.0,0.0,0.0,0.0,0.0,4.548,0.0,0.0,4.4085,4.3534,4.4011,0.0,0.0,0.0,4.4452,0.0,0.0,0.0,0.0,0.0,0.0,4.4268,0.0,0.0,0.0,0.0,4.3754,0.0,0.0,0.0,0.0,0.0,4.5039,4.5369,0.0,0.0,4.3497,4.3497,4.3497,0.0,4.3791,4.4268,4.4672,4.4378,4.4856,4.559,4.614,4.7058,0.0,0.0,0.0,5.0472,5.0729,0.0,0.0,0.0,0.0,0.0,0.0,0.0,0.0,0.0,0.0,0.0,0.0,0.0,0.0,0.0,0.0,5.4727,0.0,0.0,0.0,0.0,0.0,0.0,0.0,0.0,0.0,0.0,5.968,5.9855,6.0781,6.0508,6.0482,6.0781,6.0781,6.0781,6.0781,6.0781,6.0781,6.0781,6.0781,6.0781,6.0858,6.1704,6.2397,6.2974,6.4128,6.4936,6.5474,6.5782,6.6744,6.8013,6.8282,6.8936,6.9821,4.3105,0.0,0.0,0.0,0.0,0.0,0.0,0.0,0.0,0.0,4.57,0.0,4.8122,0.0,4.6324,0.0,4.5333,4.4599,4.4378,4.4305,0.0,4.3938,4.4635,0.0,0.0,0.0,0.0,0.0,0.0,4.4599,0.0,0.0,0.0,0.0,0.0,0.0,0.0,0.0,4.5223,0.0,0.0,4.5443,0.0,0.0,4.3938,4.3901,0.0,4.3497,4.3497,4.3497,4.3828,4.4195,4.3644,4.4195,4.5112,4.5406,4.6397,4.7682,4.8783,4.9517,0.0,5.0655,5.0215,0.0,4.9958,0.0,0.0,0.0,0.0,0.0,0.0,0.0,0.0,0.0,0.0,0.0,0.0,5.3604,0.0,0.0,0.0,0.0,0.0,0.0,0.0,0.0,0.0,0.0,0.0,0.0,5.952,6.0296,6.0355,6.0482,6.0781,6.0781,6.0781,6.0781,6.0781,6.0781,6.0819,6.1127,6.1243,6.132,6.2474,6.3281,6.382,6.4705,6.5397,6.5897,6.5897,6.6936,6.8398,6.8398,6.9129,7.0206,0.0,0.0,0.0,0.0,4.3534,0.0,0.0,0.0,4.5076,0.0,4.6691,4.7498,4.8269,4.7645,4.7168,4.7131,4.57,0.0,4.581,4.4452,0.0,0.0,4.3975,4.3571,4.3497,0.0,0.0,0.0,0.0,0.0,0.0,0.0,0.0,0.0,4.559,0.0,4.3718,4.614,4.6287,4.4966,4.5626,4.592,4.5847,4.5002,0.0,4.4599,4.3791,4.3497,4.3497,4.3497,4.3497,4.3497,4.3497,4.3534,4.3718,4.4488,4.5296,4.6287,4.7829,4.9481,5.0765,5.0802,0.0,0.0,0.0,0.0,5.3225,0.0,0.0,0.0,0.0,0.0,0.0,0.0,0.0,0.0,0.0,0.0,0.0,0.0,0.0,0.0,0.0,0.0,0.0,0.0,0.0,0.0,0.0,0.0,5.8929,5.9504,6.0287,6.0734,6.0757,6.0757,6.0757,6.0781,6.0781,6.0819,6.0896,6.1704,6.2127,6.2243,6.3897,6.4589,6.4666,6.5551,6.5897,6.5897,6.5936,6.6974,6.8475,6.8513,6.9552,7.0975,4.3031,4.3689,4.4378,0.0,4.3901,4.3901,0.0,0.0,0.0,0.0,4.7865,4.8306,4.915,4.8489,4.7755,4.713,4.6728,0.0,0.0,0.0,0.0,4.3828,4.4745,4.4709,4.3534,4.4856,0.0,4.4709,0.0,0.0,4.5883,0.0,0.0,0.0,0.0,0.0,4.4562,4.6985,4.7755,4.7278,4.6287,4.625,0.0,0.0,4.4195,4.4599,4.3791,4.3497,4.3497,4.3497,4.3497,4.3497,4.3497,4.3901,4.4452,4.4635,4.57,4.6911,4.7315,4.8636,5.0031,5.0655,5.0949,5.1206,0.0,0.0,0.0,0.0,0.0,0.0,0.0,0.0,0.0,0.0,0.0,0.0,0.0,0.0,0.0,0.0,0.0,0.0,0.0,0.0,0.0,0.0,0.0,0.0,0.0,0.0,0.0,5.9349,5.9311,5.9559,6.0283,6.0283,6.0456,6.0781,6.0781,6.1127,6.1781,6.1973,6.2435,6.3051,6.4128,6.4589,6.4666,6.5551,6.5897,6.5974,6.6551,6.7859,6.9436,7.0052,7.0937,7.186,4.3578,0.0,0.0,4.57,0.0,0.0,4.625,0.0,0.0,4.8159,4.8636,0.0,4.9517,4.9481,4.9224,4.8783,4.8049,0.0,0.0,0.0,0.0,4.5112,4.5259,4.5112,4.4562,4.5076,0.0,4.5773,0.0,0.0,4.6948,4.6581,0.0,0.0,0.0,4.676,0.0,4.7457,4.8526,4.871,4.7095,0.0,0.0,4.4672,4.4085,4.4158,4.4048,4.3791,4.3497,4.3497,4.3718,4.4011,4.4011,4.4599,4.5296,4.5663,4.6397,4.7278,4.8012,4.915,5.0325,5.1132,5.161,5.1977,5.2417,5.2858,5.3298,0.0,0.0,0.0,0.0,0.0,0.0,0.0,0.0,0.0,0.0,0.0,0.0,0.0,0.0,0.0,0.0,0.0,0.0,0.0,0.0,0.0,0.0,0.0,0.0,5.8298,5.9354,5.9938,6.0103,6.0693,6.0917,6.0781,6.1166,6.1627,6.2127,6.2858,6.3435,6.3935,6.4782,6.5166,6.5243,6.609,6.6397,6.6551,6.7744,6.9052,7.0283,7.0744,7.1437,7.2206,0.0,0.0,0.0,0.0,0.0,0.0,0.0,4.7419,0.0,4.8519,0.0,4.9884,4.9884,5.0435,5.0802,5.0802,0.0,4.8746,4.937,4.7315,4.6324,4.6948,4.5626,4.5186,4.5883,4.5333,0.0,0.0,0.0,0.0,4.8122,4.7572,0.0,0.0,0.0,0.0,0.0,4.7782,4.8673,0.0,4.7682,4.6691,4.5957,4.5149,4.4415,4.3901,4.4599,4.4268,4.3497,4.3608,4.4121,4.4709,4.4709,4.5333,4.6177,4.6911,4.7278,4.7755,4.9187,5.0251,5.1132,5.183,5.2601,5.3225,5.3225,5.3225,5.3445,5.4216,5.3775,5.3665,0.0,0.0,0.0,0.0,0.0,0.0,0.0,0.0,0.0,0.0,0.0,0.0,0.0,0.0,0.0,0.0,0.0,0.0,0.0,0.0,0.0,5.7325,5.9842,6.1005,6.0599,0.0,6.1848,6.132,6.1935,6.232,6.2474,6.3935,6.4666,6.482,6.5667,6.6051,6.6128,6.6936,6.7321,6.759,6.9129,7.0206,7.0898,7.0898,7.1514,7.236,0.0,0.0,0.0,0.0,0.0,4.7583,4.8366,4.8938,4.9539,5.0335,5.1098,0.0,5.1573,5.1096,5.0802,5.0802,4.9921,0.0,0.0,0.0,0.0,4.614,4.5847,4.5773,4.5883,4.6434,4.6838,0.0,0.0,0.0,0.0,0.0,0.0,0.0,0.0,0.0,4.7931,4.8194,0.0,4.7535,4.7241,4.7021,4.6801,4.5993,4.559,4.548,4.5626,4.4745,4.3608,4.4268,4.4599,4.4709,4.4709,4.5736,4.6948,4.7095,4.8049,4.915,4.9481,5.0655,5.183,5.194,5.2601,5.3225,5.3225,5.3225,5.3445,5.4216,5.3775,5.3482,5.4436,0.0,0.0,0.0,0.0,0.0,0.0,0.0,0.0,0.0,0.0,0.0,0.0,0.0,0.0,0.0,0.0,0.0,0.0,0.0,0.0,0.0,5.9962,0.0,0.0,0.0,6.2995,6.3935,6.3358,6.3474,6.4166,6.4474,6.4974,6.5705,6.6551,6.6898,6.6974,6.7821,6.859,6.9283,6.959,7.0206,7.0898,7.0898,7.1898,7.3283,0.0,0.0,0.0,0.0,0.0,0.0,0.0,5.0031,0.0,5.0865,5.1185,5.1566,5.1935,5.2013,5.205,5.205,5.1316,5.0655,5.0251,4.9481,4.8673,4.7829,4.7792,0.0,4.7792,0.0,4.7755,4.904,0.0,0.0,0.0,0.0,0.0,4.6302,0.0,4.8875,0.0,0.0,0.0,4.9003,4.8563,4.8122,4.7645,4.6838,4.625,4.5957,4.6361,4.5773,4.4782,4.5186,4.559,4.5957,4.5957,4.6764,4.7829,4.8269,4.893,4.9738,5.0582,5.1389,5.2087,5.2527,5.2931,5.3225,5.3225,5.3225,5.3335,5.3702,5.3482,5.3445,5.4252,5.4069,0.0,0.0,0.0,0.0,0.0,0.0,0.0,0.0,0.0,0.0,0.0,0.0,0.0,0.0,0.0,0.0,0.0,0.0,0.0,0.0,0.0,0.0,0.0,0.0,0.0,6.357,6.3835,6.4205,6.4628,6.5051,6.5743,6.6551,6.6936,6.7359,6.7859,6.8706,6.9821,7.0937,7.0514,7.136,7.2783,7.1898,7.2937,7.4668,0.0,4.7348,0.0,0.0,4.8522,0.0,4.9378,5.0504,5.129,5.1392,5.1585,5.1946,5.2705,5.3335,5.3665,5.3482,5.2711,5.216,5.2013,5.1242,5.0508,4.9884,4.9848,4.9848,4.9848,4.8379,4.8526,0.0,0.0,0.0,0.0,0.0,0.0,0.0,0.0,0.0,0.0,0.0,4.9958,5.0508,5.0031,4.9444,4.8783,4.8159,4.7498,4.6985,4.7462,4.7352,4.6911,4.6728,4.6874,4.7131,4.7315,4.7939,4.8746,4.9591,4.9958,5.0362,5.1646,5.2123,5.2454,5.3261,5.3482,5.3518,5.3665,5.3702,5.3665,5.3482,5.3482,5.3665,5.4289,5.4546,0.0,0.0,0.0,0.0,0.0,0.0,0.0,0.0,0.0,0.0,0.0,0.0,0.0,0.0,0.0,0.0,0.0,0.0,0.0,0.0,0.0,6.1106,6.0852,0.0,6.3682,0.0,6.4221,6.4718,6.4756,6.5718,6.6513,6.7128,6.7475,6.8129,6.8975,6.9667,7.0744,7.186,7.136,7.2399,7.4014,7.2899,7.386,7.5515,0.0,0.0,0.0,0.0,0.0,0.0,0.0,4.9825,5.1672,5.2995,5.377,5.4447,5.52,5.5317,5.506,5.4363,5.3555,5.2784,5.205,5.1242,5.0765,5.0692,5.0692,5.0692,5.0692,4.9811,4.9077,0.0,0.0,0.0,0.0,0.0,0.0,0.0,0.0,0.0,0.0,4.8967,4.9627,4.9738,5.0398,5.0655,5.0545,5.0472,5.0398,5.0251,4.9591,4.9774,5.0215,4.9481,4.8306,4.7241,4.7976,4.8783,4.9627,5.0435,5.1206,5.1793,5.194,5.2527,5.3298,5.4106,5.4289,5.4473,5.5207,5.5354,5.517,5.4436,5.4289,5.4326,5.4399,5.4987,5.5244,0.0,0.0,0.0,0.0,0.0,0.0,0.0,0.0,0.0,0.0,0.0,0.0,0.0,0.0,0.0,0.0,0.0,0.0,5.8524,0.0,6.2096,6.3992,6.4218,0.0,6.5313,6.5161,6.5047,6.5085,6.6419,6.7013,6.7167,6.8783,6.9937,7.0667,7.0744,7.0898,7.1091,7.1783,7.2206,7.2514,7.3129,7.4014,7.4822,0.0,0.0,0.0,0.0,0.0,0.0,0.0,5.1285,5.2413,5.3903,5.3934,5.4295,5.5485,5.5574,5.5464,5.5133,5.484,5.4289,5.3482,5.3151,5.2527,5.1573,5.1977,5.2013,5.1536,5.1206,5.0875,0.0,0.0,0.0,0.0,0.0,0.0,0.0,0.0,4.8164,4.8696,4.9834,5.0582,5.1096,5.194,5.194,5.1499,5.1499,5.1206,5.0765,5.0435,5.0545,5.0765,5.0435,4.9554,4.8746,4.9554,4.9701,4.9848,5.1132,5.1756,5.2087,5.2601,5.3298,5.3995,5.4326,5.4766,5.5207,5.5537,5.5574,5.55,5.517,5.55,5.5831,5.5831,5.6088,5.6198,0.0,0.0,0.0,0.0,0.0,0.0,0.0,0.0,0.0,0.0,0.0,0.0,0.0,0.0,0.0,0.0,0.0,0.0,5.8252,0.0,6.0633,6.2011,6.3766,6.4795,6.5132,6.6099,6.6624,6.6624,6.7505,6.8167,6.8744,6.9898,7.0591,7.0937,7.1475,7.1975,7.2514,7.286,7.3591,7.4514,7.4861,7.5553,7.6322,4.8483,0.0,4.8908,0.0,5.0373,5.0439,5.1758,5.2367,5.3099,5.4435,5.4288,5.458,5.5869,5.6181,5.6198,5.5978,5.5941,5.5611,5.4803,5.4509,5.3995,5.3078,5.3151,0.0,5.2711,5.2234,5.1867,5.1646,5.0858,0.0,0.0,0.0,0.0,0.0,4.7913,4.8901,4.9767,5.0738,5.161,5.2417,5.2968,5.2858,5.2344,5.2344,5.2013,5.1463,5.1242,5.1316,5.1463,5.1242,5.0765,5.0398,5.0949,5.0765,5.0582,5.194,5.2527,5.2821,5.3408,5.4142,5.4803,5.506,5.5537,5.6014,5.6235,5.6308,5.6235,5.5978,5.6418,5.6822,5.6822,5.7005,5.7079,5.6859,0.0,0.0,0.0,0.0,0.0,0.0,0.0,5.2417,5.172,0.0,0.0,0.0,0.0,0.0,0.0,0.0,0.0,0.0,0.0,0.0,0.0,6.3427,6.4735,6.4958,6.6597,6.7376,6.7376,6.8369,6.9398,7.0475,7.1052,7.1437,7.1706,7.2322,7.2937,7.3514,7.3783,7.4591,7.5668,7.6207,7.6784,7.74,4.7902,4.9052,5.0067,5.0067,5.1285,5.2029,5.1352,5.2536,5.3768,5.4494,5.5228,5.5968,5.6825,5.7546,5.7666,5.6859,5.6785,5.6455,5.5647,5.484,5.473,0.0,0.0,5.3592,5.4363,5.2821,5.161,5.0802,0.0,0.0,4.6436,0.0,4.7701,4.759,4.984,5.0452,4.9803,5.1323,5.2454,5.3188,5.3225,5.3188,5.3188,5.3188,5.3188,5.3078,5.227,5.2491,5.3078,5.2234,5.1977,5.1977,5.1977,5.1977,5.2123,5.2968,5.3739,5.4363,5.4363,5.495,5.5757,5.6565,5.6785,5.7005,5.7776,5.796,5.774,5.6969,5.6785,5.6822,5.6822,5.7446,5.774,5.6932,0.0,0.0,0.0,0.0,0.0,0.0,5.4876,5.3445,5.1059,0.0,0.0,0.0,0.0,0.0,0.0,0.0,0.0,5.6785,5.9134,0.0,6.2768,6.3649,6.4494,6.5301,6.6288,6.6785,6.6861,6.8824,7.0591,7.2168,7.2168,7.2668,7.3476,7.3476,7.3514,7.3591,7.4399,7.4707,7.4938,7.663,7.7284,7.74,4.939,5.0168,5.1014,5.1522,5.1995,5.2401,5.2739,5.3179,5.3583,5.3827,5.4495,5.5203,5.6004,5.7266,5.7886,0.0,5.7629,5.7262,0.0,5.6198,5.5904,5.5611,5.5097,5.495,5.5207,5.4179,5.3017,5.1701,0.0,0.0,0.0,4.7683,4.7557,4.712,4.9341,5.0446,5.078,5.217,5.3298,5.3959,5.3445,5.3555,5.4032,5.4032,5.3702,5.3335,5.4142,5.3922,5.3261,5.3555,5.3628,5.3628,5.3628,5.3261,5.2968,5.3775,5.4583,5.5207,5.5207,5.5794,5.6492,5.6748,5.7226,5.7703,5.7923,5.7997,5.7923,5.7666,5.7629,5.7629,5.7629,5.7813,5.7923,5.7666,5.7813,0.0,0.0,0.0,0.0,0.0,0.0,5.2013,0.0,5.1426,0.0,0.0,0.0,0.0,0.0,0.0,0.0,0.0,6.0236,0.0,6.3686,6.5044,6.6145,6.6916,6.7635,6.8659,6.9997,7.1551,7.2591,7.3091,7.3091,7.3245,7.3553,7.4091,7.4322,7.4399,7.5245,7.5592,7.5745,7.6861,7.763,7.8246,5.0473,5.1116,5.1758,5.2232,5.257,5.2909,5.3416,5.3518,5.3618,5.3881,5.4544,5.532,5.6059,5.7266,0.0,5.7997,5.7997,5.7776,5.7299,5.6969,5.6712,5.6492,5.5904,5.5721,5.6051,0.0,0.0,5.2546,5.1736,5.0277,4.8232,4.8583,4.8646,4.8538,5.041,5.1511,5.2076,5.3508,5.4399,5.4803,5.4289,5.4399,5.484,5.484,5.4546,5.4216,5.5244,5.495,5.4179,5.4693,5.484,5.484,5.484,5.473,5.4583,5.4803,5.5427,5.6051,5.6051,5.6638,5.7262,5.7262,5.7629,5.7997,5.7997,5.7997,5.7997,5.7997,5.7997,5.7997,5.7997,5.7997,5.7997,5.7997,5.7997,5.7703,5.6932,0.0,0.0,0.0,0.0,0.0,0.0,5.2234,0.0,0.0,0.0,0.0,0.0,0.0,0.0,5.9612,6.152,0.0,6.4971,6.6292,6.7357,6.8128,6.8989,7.0267,7.1887,7.2729,7.3445,7.3976,7.3976,7.413,7.4476,7.4976,7.5207,7.5245,7.5784,7.6207,7.6592,7.7438,7.8284,7.9092,5.115,5.1894,0.0,0.0,5.301,0.0,5.3518,5.3518,5.3717,5.4419,5.5154,5.5907,5.6668,5.7388,5.7847,5.7821,0.0,0.0,0.0,5.7299,5.7226,5.796,5.6565,5.6124,5.6859,5.6043,5.4848,5.3243,5.1099,4.9777,4.9187,4.9864,5.0541,5.1282,5.2752,5.3387,5.3495,5.4963,5.5611,5.5684,5.5611,5.5611,5.5684,5.5684,5.5647,5.5611,5.5721,5.5684,5.5611,5.5647,5.5684,5.5684,5.5684,5.6235,5.6748,5.5904,5.6235,5.6895,5.6895,5.7446,5.7997,5.7997,5.7997,5.7997,5.7997,5.7997,5.7997,5.7997,5.7997,5.7997,5.7997,5.8033,5.807,5.7997,5.7997,5.7703,5.6859,0.0,0.0,0.0,0.0,0.0,0.0,5.4179,5.4913,0.0,0.0,0.0,0.0,0.0,5.9795,6.0529,6.2952,6.5007,6.6549,6.7357,6.8201,6.9009,7.0397,7.1569,7.2581,7.2729,7.3466,7.4725,7.4755,7.5245,7.6015,7.6015,7.6015,7.6015,7.6053,7.6592,7.74,7.8207,7.9054,7.9939,0.0,0.0,5.3213,5.3213,5.3382,5.3518,5.3518,5.3518,5.3551,5.3717,5.4359,5.4918,5.5129,5.5788,5.6246,5.6204,5.7315,5.7997,5.7997,5.7813,5.7813,5.7997,5.7629,5.7519,5.7703,5.6394,5.4645,5.2529,5.1424,5.0832,5.071,5.0879,5.1048,5.1282,5.2752,5.3387,5.3495,5.4963,5.5941,5.6455,5.5831,5.5978,5.6528,5.6528,5.6124,5.5757,5.6969,5.6638,5.5684,5.6308,5.6528,5.6528,5.6528,5.7079,5.7556,5.6748,5.7079,5.7703,5.7703,5.785,5.7997,5.7997,5.7997,5.7997,5.7997,5.7997,5.7997,5.7997,5.7997,5.7997,5.7997,5.851,5.8731,5.8107,5.7997,5.7483,5.6088,5.5721,0.0,0.0,5.4583,5.4913,5.3922,5.4363,5.4766,0.0,0.0,0.0,0.0,6.0419,6.2034,6.2254,6.464,6.6402,6.7393,6.8201,6.9009,6.9816,7.1858,7.2608,7.2341,7.3838,7.4705,7.5,7.5511,7.5822,7.6015,7.6015,7.6015,7.6053,7.6746,7.713,7.74,7.8207,7.9054,7.9823,5.2773,5.3213,5.3518,5.3518,5.3788,5.389,5.3551,5.3788,5.3991,5.3991,5.4634,5.5132,5.5098,5.5784,5.6139,5.5738,5.6825,5.7498,5.7498,5.7821,5.7997,5.7997,5.7997,5.7821,5.7498,5.6717,5.5151,5.2874,5.2043,5.1725,5.1725,5.2097,5.2266,5.2332,5.3801,5.4449,5.4559,5.6055,5.6932,5.7299,5.6859,5.6969,5.7336,5.7336,5.7079,5.6785,5.7666,5.7446,5.6748,5.7189,5.7336,5.7336,5.7336,5.7666,5.7923,5.7483,5.7923,5.8474,5.8107,5.8253,5.8547,5.8547,5.8547,5.8547,5.8547,5.8547,5.8547,5.8547,5.8841,5.9098,5.9098,5.9171,5.9061,5.8621,5.7923,5.7005,5.5757,5.5574,0.0,5.3922,5.517,5.5831,5.5023,5.5611,5.5904,5.5611,0.0,0.0,5.9061,6.2548,6.4163,6.3429,6.5778,6.743,6.8238,6.9412,7.0403,7.1211,7.2373,7.3082,7.3317,7.4372,7.5036,7.5281,7.5918,7.6158,7.6158,7.6041,7.6438,7.713,7.7246,7.7784,7.8515,7.8938,7.9669,8.04,5.3382,5.3585,5.3619,5.3518,5.4194,5.4532,5.3788,5.4296,5.4735,5.46,5.5275,5.5598,5.5357,5.6187,5.6375,5.5625,5.638,5.6867,5.6912,5.7594,5.7997,5.7997,5.7997,5.7679,5.6912,5.6668,5.5553,5.3487,5.2861,5.2469,5.2503,5.3281,5.3687,5.372,5.5339,5.6007,5.6014,5.7546,5.8107,5.7997,5.7997,5.7997,5.7997,5.7997,5.7997,5.7997,5.7997,5.7997,5.7997,5.7997,5.7997,5.8033,5.8143,5.818,5.8217,5.8327,5.8951,5.9355,5.8437,5.8767,5.9391,5.9391,5.9391,5.9391,5.9391,5.9391,5.9391,5.9391,5.9942,6.0419,6.0419,5.9832,5.9355,5.9245,5.785,5.6528,5.5684,0.0,5.5354,5.4656,5.6124,5.6895,5.6198,5.7373,5.7703,5.6565,5.8914,6.0639,0.0,6.4567,6.5999,6.4861,6.6916,6.8458,6.9265,7.0624,7.1725,7.2496,7.2606,7.3314,7.4502,7.4569,7.4885,7.5366,7.581,7.6123,7.6237,7.6016,7.6901,7.8308,7.777,7.8454,7.9823,7.9939,8.0477,8.1093,5.3484,5.3991,5.4228,5.3619,5.4634,5.5277,5.4532,5.5074,5.531,5.4668,5.528,5.5247,5.399,5.5077,5.5587,5.4838,5.6038,5.6846,5.6881,5.7594,5.7997,5.7997,5.7997,5.7679,5.6912,5.5645,5.451,5.3515,5.3382,5.3315,5.3348,5.4059,5.4431,5.4499,5.6737,5.7352,5.6808,5.8333,5.8621,5.7997,5.7997,5.7997,5.7997,5.7997,5.7997,5.7997,5.7997,5.7997,5.7997,5.7997,5.7997,5.8107,5.8804,5.9024,5.9171,5.9832,6.0603,6.0896,5.9428,5.9612,6.0236,6.0236,6.0236,6.0236,6.0236,6.0236,6.0236,6.0236,6.0309,6.0419,6.0419,6.0309,6.0015,5.9318,5.785,5.6528,5.5684,0.0,5.5537,5.5427,5.7446,5.8804,5.8657,5.8877,5.9465,6.0566,6.0493,6.163,6.4383,6.5778,6.7026,6.8128,6.9192,7.011,7.0917,7.1211,7.1725,7.2496,7.3193,7.3618,7.3901,7.4397,7.4672,7.4698,7.4651,7.4989,7.5631,7.5603,7.6462,7.7795,7.8406,7.9114,7.99,8.0631,8.0977,8.1093,5.4093,5.4431,5.4735,5.4702,5.5006,5.5243,5.5209,5.5818,5.619,5.5818,5.6089,5.6055,5.5344,5.5886,5.6021,5.5277,5.6196,5.6802,5.6858,5.798,5.864,5.8611,5.8251,5.7474,5.6281,5.4787,5.402,5.4093,5.4093,5.4093,5.4093,5.4837,5.5209,5.5278,5.7227,5.7883,5.7588,5.8732,5.8988,5.8621,5.818,5.7997,5.7997,5.7997,5.8253,5.8657,5.8657,5.8914,5.9281,5.9281,5.9281,5.9355,5.9722,5.9869,5.9942,6.0309,6.0676,6.0896,6.0566,6.075,6.1043,6.1043,6.1043,6.1043,6.1043,6.1043,6.1043,6.1043,6.141,6.1704,6.1704,6.097,6.0419,6.0493,5.8033,0.0,0.0,5.6528,5.6418,5.6822,5.8657,5.9869,5.9869,6.0236,6.0786,6.152,6.2475,6.3906,6.5852,6.754,6.8788,6.9522,7.033,7.0917,7.1321,7.2165,7.2569,7.2532,7.3744,7.4111,7.3707,7.4863,7.518,7.483,7.5482,7.6005,7.6354,7.6187,7.7068,7.8462,7.8386,7.9017,7.9999,8.042,8.0783,8.1093,5.4871,5.5108,5.5412,5.5683,5.5649,5.5683,5.5919,5.6596,5.7002,5.6833,5.6799,5.6731,5.6562,5.6697,5.6562,5.6021,5.6645,5.715,5.7313,5.8532,5.9114,5.8928,5.8214,5.7233,5.5992,5.47,5.4296,5.4871,5.4871,5.4871,5.4871,5.5615,5.6094,5.6337,5.7884,5.8639,5.8659,5.9452,5.9648,5.9428,5.8804,5.8547,5.8547,5.8547,5.8951,5.9501,5.9501,5.9905,6.0419,6.0419,6.0529,6.0713,6.0896,6.1117,6.13,6.1484,6.1557,6.1667,6.2291,6.2181,6.1924,6.2108,6.2181,6.2108,6.1924,6.2034,6.2108,6.1924,6.2365,6.2805,6.2805,6.163,6.0823,6.1263,0.0,0.0,0.0,5.7629,5.7593,5.8217,5.9722,6.0676,6.0676,6.1594,6.2254,6.2438,6.4567,6.6292,6.7283,6.9265,7.044,7.066,7.1101,7.1505,7.1872,7.3083,7.3487,7.3083,7.4515,7.4882,7.4294,7.5542,7.5763,7.5212,7.6124,7.6661,7.6827,7.668,7.7539,7.8887,7.8247,7.8768,7.9929,8.0048,8.0427,8.0888,5.5649,5.619,5.6461,5.5818,5.6799,5.7442,5.6833,5.734,5.7577,5.69,5.6799,5.6562,5.5886,5.6393,5.6799,5.6731,5.7378,5.8146,5.8871,5.9071,5.88,5.8119,5.7324,5.6819,5.669,5.5894,5.5581,5.5649,5.5649,5.5649,5.5649,5.6393,5.7157,5.7901,5.9468,6.0249,6.0286,6.1076,6.1006,6.0309,6.0236,6.0236,6.0236,6.0236,6.0272,6.0309,6.0309,6.0346,6.0419,6.0419,6.0896,6.163,6.2401,6.3172,6.398,6.4714,6.4934,6.4971,6.5007,6.3906,6.2915,6.3686,6.3906,6.3686,6.2915,6.3356,6.3686,6.2879,6.2768,6.2805,6.2805,6.2108,6.13,6.0603,0.0,0.0,5.8107,5.8584,5.9061,5.9098,6.0529,6.152,6.152,6.2952,6.42,6.4971,6.6586,6.8201,6.9743,7.0734,7.1578,7.2312,7.1688,7.2018,7.3487,7.3634,7.4037,7.4735,7.5616,7.5983,7.5946,7.6056,7.6056,7.5983,7.5345,7.5455,7.6213,7.6139,7.7012,7.8325,7.8288,7.8716,7.9335,7.9888,8.0125,8.0239,5.6393,5.6968,5.7374,5.7103,5.7509,5.7814,5.7509,5.7712,5.778,5.7509,5.7476,5.7374,5.7103,5.7306,5.7476,5.7476,5.8152,5.8502,5.8351,5.9254,5.9279,5.8072,5.723,5.6774,5.6781,5.606,5.5919,5.6393,5.6393,5.6393,5.6393,5.7137,5.7907,5.8695,5.9882,6.0677,6.119,6.1441,6.141,6.108,6.0603,6.0419,6.0419,6.0419,6.0713,6.1153,6.1153,6.1447,6.1961,6.2511,6.2879,6.3282,6.409,6.4604,6.5007,6.5815,6.5705,6.5521,6.6512,6.5595,6.4457,6.4751,6.4861,6.4751,6.4457,6.4604,6.4751,6.442,6.4347,6.4347,6.4347,6.3686,6.3209,6.3429,0.0,6.0199,6.0896,6.0823,6.086,6.1374,6.2915,6.3906,6.3906,6.5375,6.6439,6.6769,6.8752,7.022,7.0807,7.1615,7.2422,7.323,7.2459,7.2569,7.367,7.4184,7.4588,7.4918,7.5726,7.5836,7.5395,7.6387,7.657,7.613,7.6313,7.657,7.6864,7.6864,7.7192,7.7651,7.7651,7.809,7.8704,7.9335,7.9556,7.9685,5.7137,5.7746,5.8254,5.8254,5.8423,5.8592,5.8592,5.8592,5.8592,5.8592,5.8592,5.8592,5.8592,5.8592,5.8592,5.8592,5.9066,5.9032,5.8287,5.9074,5.9219,5.8383,5.7598,5.7158,5.7137,5.6664,5.663,5.7137,5.7374,5.7374,5.7171,5.8118,5.8897,5.9492,6.0089,6.1077,6.2253,6.1818,6.1871,6.2291,6.1484,6.1337,6.1557,6.1557,6.2071,6.2768,6.2768,6.3135,6.3686,6.4273,6.464,6.4934,6.5521,6.5852,6.6145,6.6696,6.6476,6.6366,6.7687,6.7283,6.6329,6.5815,6.5705,6.5632,6.5375,6.5521,6.5632,6.5375,6.5301,6.5301,6.5301,6.4861,6.4567,6.4861,6.3246,6.2254,6.3099,6.2952,6.2952,6.3539,6.4604,6.5301,6.5301,6.6769,6.7687,6.7687,6.9926,7.1541,7.2055,7.2569,7.3266,7.4037,7.378,7.3891,7.4441,7.4771,7.5028,7.5285,7.6093,7.6203,7.5689,7.6827,7.7011,7.6533,7.7084,7.7304,7.7304,7.7304,7.7304,7.7304,7.7304,7.757,7.8035,7.8704,7.8914,7.9058,5.7915,5.849,5.9032,5.9032,5.9607,6.0114,6.0114,6.0114,6.0114,6.0114,6.0114,6.0114,6.0114,6.0114,6.0114,6.0114,6.0114,5.981,5.9066,5.8321,5.828,5.9044,5.8317,5.7881,5.7881,5.7881,5.7881,5.7915,5.866,5.8626,5.7949,5.9404,6.0159,6.0324,6.0324,6.1671,6.3784,6.229,6.2585,6.4016,6.3172,6.3356,6.409,6.409,6.4604,6.5301,6.5301,6.5301,6.5301,6.5301,6.5852,6.6512,6.6512,6.7063,6.7687,6.7687,6.7687,6.7871,6.8678,6.8898,6.8531,6.6916,6.6512,6.6329,6.5521,6.5925,6.6292,6.5485,6.5338,6.5338,6.5338,6.5338,6.5081,6.4273,6.4787,6.5044,6.4237,6.4824,6.5301,6.5301,6.5301,6.5338,6.5338,6.6769,6.7724,6.7724,6.9963,7.2018,7.3597,7.3707,7.4074,7.4882,7.5689,7.6093,7.6093,7.5322,7.5322,7.613,7.6937,7.7304,7.7304,7.7304,7.7304,7.7304,7.7304,7.7304,7.7304,7.7304,7.7304,7.7304,7.7304,7.7304,7.7365,7.8072,7.8309,7.8379,5.8693,5.9268,5.9776,5.9776,5.9945,6.0114,6.0114,6.0114,6.0114,6.0114,6.0114,6.0114,6.0114,6.0114,6.0114,6.0114,6.0622,6.0622,5.981,5.9573,5.9349,5.8991,5.8298,5.7881,5.7881,5.7881,5.8152,5.8693,5.8896,5.9167,5.9438,5.9877,6.0467,6.1051,6.1051,6.2099,6.3856,6.3387,6.3875,6.4934,6.4677,6.4714,6.4934,6.4934,6.5081,6.5301,6.5301,6.5301,6.5411,6.5962,6.6659,6.743,6.8017,6.8348,6.8531,6.8531,6.8531,6.8605,6.8825,6.8495,6.8091,6.8164,6.8201,6.7981,6.7173,6.7173,6.743,6.776,6.7834,6.8017,6.8568,6.8201,6.776,6.7504,6.6733,6.6072,6.5815,6.5999,6.6145,6.6145,6.6623,6.699,6.699,6.8421,6.9376,6.9376,7.1615,7.345,7.4478,7.4551,7.4918,7.5726,7.5432,7.5542,7.6093,7.5873,7.6166,7.6937,7.6607,7.6754,7.7304,7.7304,7.7304,7.7304,7.7304,7.7304,7.7304,7.7304,7.7304,7.7304,7.7304,7.7304,7.7365,7.8072,7.8016,7.7731,5.9032,5.9844,6.0588,6.0588,6.0825,6.0994,6.0994,6.0994,6.0994,6.0994,6.0994,6.0994,6.0994,6.0994,6.0994,6.0994,6.1197,6.1095,6.0622,6.0283,5.9911,5.9471,5.8998,5.8761,5.8761,5.8761,5.8998,5.9438,5.9776,5.9979,6.0114,6.0723,6.1129,6.1341,6.1341,6.2439,6.4337,6.3693,6.4339,6.5742,6.5448,6.5485,6.5778,6.5778,6.5962,6.6256,6.6256,6.6256,6.6366,6.7173,6.7981,6.8715,6.9229,6.9376,6.9376,6.9376,6.9376,6.9449,6.9779,6.9265,6.8825,6.9669,6.9119,6.8385,6.8201,6.8164,6.8385,6.9192,6.9376,6.9522,7.0,6.9706,6.9265,6.8972,6.8091,6.7357,6.7026,6.6953,6.6953,6.6953,6.7393,6.7834,6.8128,6.9339,7.0477,7.1431,7.3156,7.4515,7.5322,7.5395,7.5763,7.657,7.613,7.6093,7.657,7.657,7.668,7.6827,7.6644,7.6827,7.7304,7.7304,7.7304,7.7304,7.7304,7.7304,7.7304,7.7304,7.7304,7.7304,7.7304,7.7304,7.7365,7.7768,7.7651,7.7426,5.9201,6.0385,6.14,6.14,6.1941,6.2381,6.2381,6.2381,6.2381,6.2381,6.2381,6.2381,6.2381,6.2381,6.2381,6.2381,6.1772,6.1366,6.1298,6.0689,6.0283,6.0216,6.0317,6.0419,6.0419,6.0216,6.0148,6.0216,6.0926,6.096,6.0351,6.1738,6.2042,6.14,6.14,6.266,6.476,6.3477,6.4268,6.6406,6.5763,6.5962,6.6623,6.6623,6.71,6.7797,6.7724,6.776,6.8017,6.8862,6.9559,7.011,7.0183,7.022,7.022,7.022,7.022,7.0367,7.1101,7.0734,7.0293,7.1027,6.9522,6.8091,6.8862,6.9009,6.9229,7.0036,7.022,7.022,7.0293,7.0183,6.9853,6.9119,6.8898,6.8531,6.7797,6.7687,6.7687,6.7687,6.776,6.8091,6.8825,6.9743,7.1321,7.3707,7.4588,7.5359,7.6166,7.6203,7.6533,7.7304,7.7304,7.7304,7.7304,7.7304,7.6937,7.624,7.6974,7.7304,7.7304,7.7304,7.7304,7.7304,7.7304,7.7304,7.7304,7.7304,7.7304,7.7304,7.7304,7.7304,7.7304,7.7304,7.7304,7.7304,6.0689,6.1535,6.2144,6.2144,6.2279,6.2381,6.2381,6.2381,6.2381,6.2381,6.2381,6.2381,6.2381,6.2381,6.2381,6.2381,6.2245,6.1907,6.1332,6.167,6.1637,6.1061,6.2144,6.2787,6.2787,6.1028,6.0419,6.1028,6.1231,6.1501,6.1907,6.2245,6.2313,6.2144,6.2144,6.2836,6.4007,6.4312,6.5287,6.6446,6.6994,6.7283,6.743,6.743,6.7944,6.8568,6.7907,6.8495,6.9706,7.0513,7.0477,7.022,7.0844,7.1064,7.1064,7.1064,7.1064,7.1101,7.1248,7.0734,7.0146,7.033,6.9963,6.9633,6.9816,6.9853,7.0073,7.0881,7.1064,7.1248,7.1872,7.0954,7.0036,6.9853,6.8788,6.7907,6.7724,6.7687,6.7687,6.7687,6.8238,6.8715,6.8898,7.077,7.2973,7.5395,7.5726,7.6203,7.7011,7.7047,7.7121,7.7304,7.7304,7.7304,7.7304,7.7304,7.7231,7.7047,7.7231,7.7304,7.7304,7.7304,7.7304,7.7304,7.7304,7.7304,7.7304,7.7304,7.7304,7.7304,7.7304,7.7304,7.7304,7.7304,7.7304,7.7304,6.1231,6.1873,6.2381,6.2381,6.2381,6.2381,6.2381,6.2381,6.2381,6.2381,6.2381,6.2516,6.2888,6.2618,6.2516,6.2888,6.2922,6.2922,6.2888,6.3226,6.3294,6.2888,6.3632,6.4038,6.4038,6.2854,6.2279,6.2347,6.2347,6.2381,6.2381,6.2381,6.2381,6.2381,6.2381,6.2855,6.3791,6.4597,6.5554,6.6464,6.7378,6.7687,6.7724,6.8128,6.8311,6.8385,6.8715,6.9633,7.0734,7.1174,7.1284,7.1321,7.1762,7.1872,7.1872,7.1872,7.1872,7.1872,7.1872,7.1284,7.077,7.1138,7.0954,7.066,7.066,7.066,7.0917,7.1725,7.1872,7.2018,7.2422,7.1505,7.055,7.0146,6.9082,6.8128,6.7724,6.7687,6.7834,6.8238,6.8641,6.9339,7.0513,7.2459,7.4331,7.5983,7.646,7.6864,7.7304,7.7304,7.7304,7.7304,7.7304,7.7304,7.7304,7.7304,7.7304,7.7304,7.7304,7.7304,7.7304,7.7304,7.7304,7.7304,7.7304,7.7304,7.7304,7.7304,7.7304,7.7304,7.7304,7.7304,7.7304,7.7304,7.7304,7.7365,6.1467,6.1975,6.2381,6.2381,6.2381,6.2415,6.255,6.2584,6.2618,6.2753,6.2753,6.299,6.3632,6.3159,6.3024,6.3632,6.37,6.3971,6.4546,6.4613,6.4613,6.4613,6.4715,6.4783,6.4783,6.4918,6.4546,6.37,6.37,6.3396,6.2753,6.2753,6.2719,6.2584,6.2584,6.2915,6.3501,6.4564,6.5426,6.6247,6.7286,6.7687,6.7797,6.8605,6.8568,6.8274,6.9596,7.0624,7.1321,7.1468,7.1945,7.2496,7.2496,7.2496,7.2496,7.2496,7.2496,7.2496,7.2496,7.2018,7.1688,7.2349,7.2018,7.1541,7.1541,7.1541,7.1688,7.2349,7.2496,7.2496,7.2496,7.1835,7.1101,7.0403,6.9633,6.8862,6.8201,6.8091,6.8348,6.9045,6.9229,7.0257,7.2679,7.4147,7.5285,7.624,7.6937,7.7304,7.7304,7.7304,7.7304,7.7304,7.7304,7.7304,7.7304,7.7304,7.7304,7.7304,7.7304,7.7304,7.7304,7.7304,7.7304,7.7304,7.7304,7.7304,7.7304,7.7304,7.7304,7.7304,7.7304,7.7304,7.7304,7.7304,7.7304,7.7365,6.211,6.2313,6.2381,6.2381,6.2381,6.2618,6.326,6.3362,6.3599,6.4208,6.4309,6.4343,6.4444,6.4377,6.4343,6.4444,6.4444,6.4478,6.458,6.4613,6.4613,6.4613,6.5189,6.5527,6.5527,6.617,6.5831,6.4444,6.4444,6.441,6.4309,6.4309,6.3971,6.3362,6.3362,6.3069,6.2659,6.4288,6.5065,6.5326,6.7024,6.7687,6.7797,6.8605,6.9265,6.9779,7.0,7.0624,7.1431,7.2092,7.2422,7.2496,7.2496,7.2496,7.2496,7.2496,7.2496,7.2496,7.2496,7.2422,7.2349,7.2459,7.2422,7.2349,7.2349,7.2349,7.2386,7.2496,7.2496,7.2496,7.2496,7.1835,7.1284,7.1174,7.0477,6.9889,6.9779,6.9779,6.9816,6.9926,7.055,7.1945,7.4368,7.4771,7.5542,7.7047,7.7268,7.7304,7.7304,7.7304,7.7304,7.7304,7.7304,7.7304,7.7304,7.7304,7.7304,7.7304,7.7304,7.7304,7.7304,7.7304,7.7304,7.7304,7.7304,7.7304,7.7304,7.7304,7.7304,7.7304,7.7304,7.7304,7.7304,7.7304,7.7304,7.7304,6.2347,6.2719,6.3024,6.3024,6.3362,6.3734,6.4072,6.4106,6.4241,6.4546,6.4613,6.4749,6.5155,6.5222,6.5222,6.5222,6.5222,6.5561,6.6406,6.644,6.6643,6.7083,6.7421,6.759,6.759,6.7489,6.7117,6.644,6.5628,6.4986,6.4613,6.4613,6.4444,6.4106,6.4106,6.3937,6.3679,6.4966,6.5829,6.6372,6.7258,6.8179,6.9082,6.9449,6.9779,7.0146,7.0624,7.1284,7.2018,7.2386,7.2496,7.2496,7.2496,7.2496,7.2496,7.2496,7.2496,7.2496,7.2496,7.2496,7.2496,7.2496,7.2496,7.2496,7.2496,7.2496,7.2496,7.2496,7.2496,7.2496,7.2496,7.1835,7.1321,7.1321,7.0624,7.011,7.011,7.011,7.0257,7.0734,7.1872,7.323,7.4771,7.5322,7.6056,7.7231,7.7304,7.7304,7.7304,7.7304,7.7304,7.7304,7.7304,7.7304,7.7304,7.7304,7.7304,7.7304,7.7304,7.7304,7.7304,7.7304,7.7304,7.7304,7.7304,7.7304,7.7304,7.7304,7.7304,7.7304,7.7304,7.7304,7.7304,7.7304,7.7304,7.7365]},{"header":{"parameterUnit":"m.s-1","parameterCategory":1,"la1":30.6,"la2":28.766,"lo1":-90.7593,"lo2":-88.6598,"dy":0.0162,"dx":0.0183,"nx":116,"ny":114,"refTime":"2024-03-10T12:00:00:Z","depth":0,"parameterNumber":3,"parameterNumberName":"V-component_of_WINDS"},"data":[0.0,0.0,0.0,0.0,0.0,0.0,0.0,0.0,0.0,0.0,0.0,0.0,0.0,0.0,0.0,0.0,0.0,0.0,0.0,0.0,0.0,0.0,0.0,0.0,0.0,0.0,0.0,0.0,0.0,0.0,0.0,0.0,0.0,0.0,0.0,0.0,0.0,0.0,0.0,0.0,0.0,0.0,0.0,0.0,0.0,0.0,0.0,0.0,0.0,0.0,0.0,0.0,0.0,0.0,0.0,0.0,0.0,0.0,0.0,0.0,0.0,0.0,0.0,0.0,0.0,0.0,0.0,0.0,0.0,0.0,0.0,0.0,0.0,0.0,0.0,0.0,0.0,0.0,0.0,0.0,0.0,0.0,0.0,0.0,0.0,0.0,0.0,0.0,0.0,0.0,0.0,0.0,0.0,0.0,0.0,0.0,0.0,0.0,0.0,0.0,0.0,0.0,0.0,0.0,0.0,0.0,0.0,0.0,0.0,0.0,0.0,0.0,0.0,0.0,0.0,0.0,0.0,0.0,0.0,0.0,0.0,0.0,0.0,0.0,0.0,0.0,0.0,0.0,0.0,0.0,0.0,0.0,0.0,0.0,0.0,0.0,0.0,0.0,0.0,0.0,0.0,0.0,0.0,0.0,0.0,0.0,0.0,0.0,0.0,0.0,0.0,0.0,0.0,0.0,0.0,0.0,0.0,0.0,0.0,0.0,0.0,0.0,0.0,0.0,0.0,0.0,0.0,0.0,0.0,0.0,0.0,0.0,0.0,0.0,0.0,0.0,0.0,0.0,0.0,0.0,0.0,0.0,0.0,0.0,0.0,0.0,0.0,0.0,0.0,0.0,0.0,0.0,0.0,0.0,0.0,0.0,0.0,0.0,0.0,0.0,0.0,0.0,0.0,0.0,0.0,0.0,0.0,0.0,0.0,0.0,0.0,0.0,0.0,0.0,0.0,0.0,0.0,0.0,0.0,0.0,0.0,0.0,0.0,0.0,0.0,0.0,0.0,0.0,0.0,0.0,0.0,0.0,0.0,0.0,0.0,0.0,0.0,0.0,0.0,0.0,0.0,0.0,0.0,0.0,0.0,0.0,0.0,0.0,0.0,0.0,0.0,0.0,0.0,0.0,0.0,0.0,0.0,0.0,0.0,0.0,0.0,0.0,0.0,0.0,0.0,0.0,0.0,0.0,0.0,0.0,0.0,0.0,0.0,0.0,0.0,0.0,0.0,0.0,0.0,0.0,0.0,0.0,0.0,0.0,0.0,0.0,0.0,0.0,0.0,0.0,0.0,0.0,0.0,0.0,0.0,0.0,0.0,0.0,0.0,0.0,0.0,0.0,0.0,0.0,0.0,0.0,0.0,0.0,0.0,0.0,0.0,0.0,0.0,0.0,0.0,0.0,0.0,0.0,0.0,0.0,0.0,0.0,0.0,0.0,0.0,0.0,0.0,0.0,0.0,0.0,0.0,0.0,0.0,0.0,0.0,0.0,0.0,0.0,0.0,0.0,0.0,0.0,0.0,0.0,0.0,0.0,0.0,0.0,0.0,0.0,0.0,0.0,0.0,0.0,0.0,0.0,0.0,0.0,0.0,0.0,0.0,0.0,0.0,0.0,0.0,0.0,0.0,0.0,0.0,0.0,0.0,0.0,0.0,0.0,0.0,0.0,0.0,0.0,0.0,0.0,0.0,0.0,0.0,0.0,0.0,0.0,0.0,0.0,0.0,0.0,0.0,0.0,0.0,0.0,0.0,0.0,0.0,0.0,0.0,0.0,0.0,0.0,0.0,0.0,0.0,0.0,0.0,0.0,0.0,0.0,0.0,0.0,0.0,0.0,0.0,0.0,0.0,0.0,0.0,0.0,0.0,0.0,0.0,0.0,0.0,0.0,0.0,0.0,0.0,0.0,0.0,0.0,0.0,0.0,0.0,0.0,0.0,0.0,0.0,0.0,0.0,0.0,0.0,0.0,0.0,0.0,0.0,0.0,0.0,0.0,0.0,0.0,0.0,0.0,0.0,0.0,0.0,0.0,0.0,0.0,0.0,0.0,0.0,0.0,0.0,0.0,0.0,0.0,0.0,0.0,0.0,0.0,0.0,0.0,0.0,0.0,0.0,0.0,0.0,0.0,0.0,0.0,0.0,0.0,0.0,0.0,0.0,0.0,0.0,0.0,0.0,0.0,0.0,0.0,0.0,0.0,0.0,0.0,0.0,0.0,0.0,0.0,0.0,0.0,0.0,0.0,0.0,0.0,0.0,0.0,0.0,0.0,0.0,0.0,0.0,0.0,0.0,0.0,0.0,0.0,0.0,0.0,0.0,0.0,0.0,0.0,0.0,0.0,0.0,0.0,0.0,0.0,0.0,0.0,0.0,0.0,0.0,0.0,0.0,0.0,0.0,0.0,0.0,0.0,0.0,0.0,0.0,0.0,0.0,0.0,0.0,0.0,0.0,0.0,0.0,0.0,0.0,0.0,0.0,0.0,0.0,0.0,0.0,0.0,0.0,0.0,0.0,0.0,0.0,0.0,0.0,0.0,0.0,0.0,0.0,0.0,0.0,0.0,0.0,0.0,0.0,0.0,0.0,0.0,0.0,0.0,0.0,0.0,0.0,0.0,0.0,0.0,0.0,0.0,0.0,0.0,0.0,0.0,0.0,0.0,0.0,0.0,0.0,0.0,0.0,0.0,0.0,0.0,0.0,0.0,0.0,0.0,0.0,0.0,0.0,0.0,0.0,0.0,0.0,0.0,0.0,0.0,0.0,0.0,0.0,0.0,0.0,0.0,0.0,0.0,0.0,0.0,0.0,0.0,0.0,0.0,0.0,0.0,0.0,0.0,0.0,0.0,0.0,0.0,0.0,0.0,0.0,0.0,0.0,0.0,0.0,0.0,0.0,0.0,0.0,0.0,0.0,0.0,0.0,0.0,0.0,0.0,0.0,0.0,0.0,0.0,0.0,0.0,0.0,0.0,0.0,0.0,0.0,0.0,0.0,0.0,0.0,0.0,0.0,0.0,0.0,0.0,0.0,0.0,0.0,0.0,0.0,0.0,0.0,0.0,0.0,0.0,0.0,0.0,0.0,0.0,0.0,0.0,0.0,0.0,0.0,0.0,0.0,0.0,0.0,0.0,0.0,0.0,0.0,0.0,0.0,0.0,0.0,0.0,0.0,0.0,0.0,0.0,0.0,0.0,0.0,0.0,0.0,0.0,0.0,0.0,0.0,0.0,0.0,0.0,0.0,0.0,0.0,0.0,0.0,0.0,0.0,0.0,0.0,0.0,0.0,0.0,0.0,0.0,0.0,0.0,0.0,0.0,0.0,0.0,0.0,0.0,0.0,0.0,0.0,0.0,0.0,0.0,0.0,0.0,0.0,0.0,0.0,0.0,0.0,0.0,0.0,0.0,0.0,0.0,0.0,0.0,0.0,0.0,0.0,0.0,0.0,0.0,0.0,0.0,0.0,0.0,0.0,0.0,0.0,0.0,0.0,0.0,0.0,0.0,0.0,0.0,0.0,0.0,0.0,0.0,0.0,0.0,0.0,0.0,0.0,0.0,0.0,0.0,0.0,0.0,0.0,0.0,0.0,0.0,0.0,0.0,0.0,0.0,0.0,0.0,0.0,0.0,0.0,0.0,0.0,0.0,0.0,0.0,0.0,0.0,0.0,0.0,0.0,0.0,0.0,0.0,0.0,0.0,0.0,0.0,0.0,0.0,0.0,0.0,0.0,0.0,0.0,0.0,0.0,0.0,0.0,0.0,0.0,0.0,0.0,0.0,0.0,0.0,0.0,0.0,0.0,0.0,0.0,0.0,0.0,0.0,0.0,0.0,0.0,0.0,0.0,0.0,0.0,0.0,0.0,0.0,0.0,0.0,0.0,0.0,0.0,0.0,0.0,0.0,0.0,0.0,0.0,0.0,0.0,0.0,0.0,0.0,0.0,0.0,0.0,0.0,0.0,0.0,0.0,0.0,0.0,0.0,0.0,0.0,0.0,0.0,0.0,0.0,0.0,0.0,0.0,0.0,0.0,0.0,0.0,0.0,0.0,0.0,0.0,0.0,0.0,0.0,0.0,0.0,0.0,0.0,0.0,0.0,0.0,0.0,0.0,0.0,0.0,0.0,0.0,0.0,0.0,0.0,0.0,0.0,0.0,0.0,0.0,0.0,0.0,0.0,0.0,0.0,0.0,0.0,0.0,0.0,0.0,0.0,0.0,0.0,0.0,0.0,0.0,0.0,0.0,0.0,0.0,0.0,0.0,0.0,0.0,0.0,0.0,0.0,0.0,0.0,0.0,0.0,0.0,0.0,0.0,0.0,0.0,0.0,0.0,0.0,0.0,0.0,0.0,0.0,0.0,0.0,0.0,0.0,0.0,0.0,0.0,0.0,0.0,0.0,0.0,0.0,0.0,0.0,0.0,0.0,0.0,0.0,0.0,0.0,0.0,0.0,0.0,0.0,0.0,0.0,0.0,0.0,0.0,0.0,0.0,0.0,0.0,0.0,0.0,0.0,0.0,0.0,0.0,0.0,0.0,0.0,0.0,0.0,0.0,0.0,0.0,0.0,0.0,0.0,0.0,0.0,0.0,0.0,0.0,0.0,0.0,0.0,0.0,0.0,0.0,0.0,0.0,0.0,0.0,0.0,0.0,0.0,0.0,0.0,0.0,0.0,0.0,0.0,0.0,0.0,0.0,0.0,0.0,0.0,0.0,0.0,0.0,0.0,0.0,0.0,0.0,0.0,0.0,0.0,0.0,0.0,0.0,0.0,0.0,0.0,0.0,0.0,0.0,0.0,0.0,0.0,0.0,0.0,0.0,0.0,0.0,0.0,0.0,0.0,0.0,0.0,0.0,0.0,0.0,0.0,0.0,0.0,0.0,0.0,0.0,0.0,0.0,0.0,0.0,0.0,0.0,0.0,0.0,0.0,0.0,0.0,0.0,0.0,0.0,0.0,0.0,0.0,0.0,0.0,0.0,0.0,0.0,0.0,0.0,0.0,0.0,0.0,0.0,0.0,0.0,0.0,0.0,0.0,0.0,0.0,0.0,0.0,0.0,0.0,0.0,0.0,0.0,0.0,0.0,0.0,0.0,0.0,0.0,0.0,0.0,0.0,0.0,0.0,0.0,0.0,0.0,0.0,0.0,0.0,0.0,0.0,0.0,0.0,0.0,0.0,0.0,0.0,0.0,0.0,0.0,0.0,0.0,0.0,0.0,0.0,0.0,0.0,0.0,0.0,0.0,0.0,0.0,0.0,0.0,0.0,0.0,0.0,0.0,0.0,0.0,0.0,0.0,0.0,0.0,0.0,0.0,0.0,0.0,0.0,0.0,0.0,0.0,0.0,0.0,0.0,0.0,0.0,0.0,0.0,0.0,0.0,0.0,0.0,0.0,0.0,0.0,0.0,0.0,0.0,0.0,0.0,0.0,0.0,0.0,0.0,0.0,0.0,0.0,0.0,0.0,0.0,0.0,0.0,0.0,0.0,0.0,0.0,0.0,0.0,0.0,0.0,0.0,0.0,0.0,0.0,0.0,0.0,0.0,0.0,0.0,0.0,0.0,0.0,0.0,0.0,0.0,0.0,0.0,0.0,0.0,0.0,0.0,0.0,0.0,0.0,0.0,0.0,0.0,0.0,0.0,0.0,0.0,0.0,0.0,0.0,0.0,0.0,0.0,0.0,0.0,0.0,0.0,0.0,0.0,0.0,0.0,0.0,0.0,0.0,0.0,0.0,0.0,0.0,0.0,0.0,0.0,0.0,0.0,0.0,0.0,0.0,0.0,0.0,0.0,0.0,0.0,0.0,0.0,0.0,0.0,0.0,0.0,0.0,0.0,0.0,0.0,0.0,0.0,0.0,0.0,0.0,0.0,0.0,0.0,0.0,0.0,0.0,0.0,0.0,0.0,0.0,0.0,0.0,0.0,0.0,0.0,0.0,0.0,0.0,0.0,0.0,0.0,0.0,0.0,0.0,0.0,0.0,0.0,0.0,0.0,0.0,0.0,0.0,0.0,0.0,0.0,0.0,0.0,0.0,0.0,0.0,0.0,0.0,0.0,0.0,0.0,0.0,0.0,0.0,0.0,0.0,0.0,0.0,0.0,0.0,0.0,0.0,-0.351,0.0,0.0,0.0,0.0,0.0,0.0,0.0,0.0,0.0,0.0,0.0,0.0,0.0,0.0,0.0,0.0,0.0,0.0,0.0,0.0,0.0,0.0,0.0,0.0,0.0,0.0,0.0,0.0,0.0,0.0,0.0,0.0,0.0,0.0,0.0,0.0,0.0,0.0,-0.0,-0.2247,-0.4701,-0.7054,-0.4601,-0.2854,0.0,0.0,0.0,0.0,0.0,0.0,0.0,0.0,0.0,0.0,0.0,0.0,0.0,0.0,0.0,0.0,0.0,0.0,0.0,0.0,0.0,0.0,0.0,0.0,0.0,0.0,0.0,0.0,0.0,0.0,0.0,0.0,0.0,0.0,0.0,0.0,0.0,0.0,0.0,0.0,0.0,0.0,0.0,0.0,0.0,0.0,0.0,0.0,0.0,0.0,0.0,0.0,0.0,0.0,0.0,0.0,0.0,0.0,0.0,0.0,0.0,0.0,0.0,0.0,0.0,0.0,0.0,0.0,0.0,0.0,0.0,0.0,-0.15,0.0,0.0,0.0,0.0,0.0,0.0,0.0,0.0,0.0,0.0,0.0,0.0,0.0,0.0,0.0,0.0,0.0,0.0,0.0,0.0,0.0,0.0,0.0,0.0,0.0,0.0,0.0,0.0,0.0,0.0,0.0,0.0,0.0,0.0,0.0,0.0,0.0,-0.0,-0.4782,-0.7168,-0.7278,-0.719,0.0,0.0,0.0,0.0,0.0,0.0,0.0,0.0,0.0,0.0,0.0,0.0,0.0,0.0,0.0,0.0,0.0,0.0,0.0,0.0,0.0,0.0,0.0,0.0,0.0,0.0,0.0,0.0,0.0,0.0,0.0,0.0,0.0,0.0,0.0,0.0,0.0,0.0,0.0,0.0,0.0,0.0,0.0,0.0,0.0,0.0,0.0,0.0,0.0,0.0,0.0,0.0,0.0,0.0,0.0,0.0,0.0,0.0,0.0,0.0,0.0,0.0,0.0,0.0,0.0,0.0,-0.3033,-0.3751,-0.7788,-0.2468,0.0,-0.0103,-0.1115,-0.4031,-0.8026,0.0,0.0,0.0,0.0,0.0,0.0,0.0,0.0,0.0,0.0,0.0,0.0,0.0,0.0,0.0,0.0,0.0,0.0,0.0,0.0,0.0,0.0,0.0,0.0,0.0,0.0,0.0,0.0,0.0,0.0,0.0,0.0,0.0,0.0,0.0,0.0,-0.0,-0.474,-0.7349,-0.7858,-0.7541,-0.7311,-0.7292,-0.6524,0.0,0.0,0.0,0.0,0.0,0.0,0.0,0.0,0.0,0.0,0.0,0.0,0.0,0.0,0.0,0.0,0.0,0.0,0.0,0.0,0.0,0.0,0.0,0.0,0.0,0.0,0.0,0.0,0.0,0.0,0.0,0.0,0.0,0.0,0.0,0.0,0.0,0.0,0.0,0.0,0.0,0.0,0.0,-0.8038,-0.8038,0.0,0.0,0.0,0.0,0.0,0.0,0.0,0.0,0.0,0.0,0.0,0.0,0.0,-0.8031,-0.8031,-0.8046,-0.5666,-0.1151,-0.503,-0.727,-0.7842,-0.2484,0.0,-0.0309,-0.5453,0.0,-0.8051,-0.8037,0.0,0.0,0.0,0.0,0.0,0.0,0.0,0.0,0.0,0.0,0.0,0.0,0.0,0.0,0.0,0.0,0.0,0.0,0.0,0.0,0.0,0.0,0.0,0.0,-0.2415,-0.2864,-0.0178,0.0,0.0,0.0,0.0,0.0,0.0,0.0,-0.1355,-0.4017,-0.6415,-0.7753,-0.8008,-0.7841,-0.7751,-0.7692,-0.7528,-0.6233,-0.4163,-0.4285,0.0,0.0,0.0,0.0,0.0,0.0,0.0,0.0,0.0,0.0,0.0,0.0,0.0,0.0,0.0,0.0,0.0,0.0,0.0,0.0,0.0,0.0,0.0,0.0,0.0,0.0,0.0,0.0,0.0,0.0,0.0,0.0,0.0,0.0,0.0,0.0,0.0,0.0,0.0,-0.8012,-0.8032,-0.8052,-0.8012,-0.7999,0.0,0.0,0.0,0.0,0.0,0.0,0.0,0.0,0.0,-0.7965,-0.7994,-0.8176,-0.8495,-0.8465,-0.7311,-0.5063,-0.7416,-0.8513,-0.8421,-0.6108,-0.4849,-0.4684,-0.7263,-0.8448,-0.8526,-0.813,-0.8031,-0.7769,0.0,0.0,0.0,0.0,-0.6016,-0.7959,0.0,0.0,0.0,0.0,0.0,0.0,0.0,0.0,0.0,0.0,0.0,0.0,0.0,-0.112,-0.1821,-0.1777,-0.5097,-0.5552,-0.2047,-0.1786,-0.1251,-0.0089,0.0,0.0,0.0,0.0,-0.1727,-0.533,-0.7127,-0.7966,-0.7875,-0.7889,-0.7841,-0.7604,-0.765,-0.7657,-0.7469,-0.751,-0.7283,0.0,0.0,0.0,0.0,0.0,0.0,0.0,0.0,0.0,0.0,0.0,0.0,0.0,0.0,0.0,0.0,0.0,0.0,0.0,0.0,0.0,0.0,0.0,0.0,0.0,0.0,0.0,0.0,0.0,0.0,0.0,0.0,0.0,0.0,0.0,0.0,0.0,0.0,-0.7965,-0.8106,-0.8165,-0.8073,-0.7958,0.0,0.0,0.0,0.0,0.0,0.0,-0.2024,-0.5872,-0.802,-0.8227,-0.8249,-0.8434,-0.8871,-0.8934,-0.8849,-0.8934,-0.8849,-0.8855,-0.8855,-0.8941,-0.8528,-0.8043,-0.7973,-0.838,-0.8828,-0.8404,-0.8097,-0.7948,-0.7999,-0.7952,-0.7972,-0.8052,-0.8052,-0.7959,0.0,0.0,0.0,0.0,0.0,0.0,0.0,0.0,0.0,0.0,0.0,0.0,0.0,-0.4002,-0.6701,-0.67,-0.7005,-0.7005,-0.6719,-0.6732,-0.4746,-0.0179,0.0,0.0,0.0,0.0,-0.0091,-0.038,-0.5516,-0.7896,-0.7634,-0.7724,-0.7644,-0.7604,-0.7746,-0.7711,-0.7684,-0.731,-0.7085,-0.7088,0.0,0.0,0.0,0.0,0.0,0.0,0.0,0.0,0.0,0.0,0.0,0.0,0.0,0.0,0.0,0.0,0.0,0.0,0.0,0.0,0.0,0.0,0.0,0.0,0.0,0.0,0.0,0.0,0.0,0.0,0.0,0.0,0.0,0.0,0.0,0.0,0.0,0.0,0.0,-0.8777,-0.8383,0.0,0.0,0.0,0.0,-0.7968,-0.7795,-0.7553,-0.7575,-0.7893,-0.8309,-0.8829,-0.8849,-0.8918,-0.8918,-0.8866,-0.8954,-0.8947,-0.8954,-0.8954,-0.8947,-0.8913,-0.8541,-0.7967,-0.8012,-0.8355,-0.894,-0.8855,-0.8501,-0.8044,-0.7999,-0.8038,-0.8038,-0.8038,-0.8038,-0.8038,0.0,0.0,0.0,0.0,0.0,0.0,0.0,0.0,0.0,0.0,0.0,-0.1017,-0.3787,-0.59,-0.7061,-0.7054,-0.7068,-0.6939,-0.6579,-0.6946,-0.634,-0.466,-0.1601,0.0,0.0,0.0,0.0,-0.0,-0.349,-0.6016,-0.7624,-0.759,-0.7645,-0.7604,-0.765,-0.7711,-0.7801,-0.7604,-0.7483,-0.7263,-0.7171,-0.6128,0.0,0.0,0.0,0.0,0.0,0.0,0.0,0.0,0.0,0.0,0.0,0.0,0.0,0.0,0.0,0.0,0.0,0.0,0.0,0.0,0.0,0.0,0.0,0.0,0.0,0.0,0.0,0.0,0.0,0.0,0.0,0.0,0.0,0.0,0.0,0.0,0.0,-0.8845,-0.8411,0.0,-0.8004,-0.7975,-0.6546,-0.3091,-0.2815,-0.2845,-0.2863,-0.2893,-0.4744,-0.8776,-0.892,-0.8872,-0.8859,-0.8933,-0.6927,-0.3226,-0.3226,-0.5131,-0.8876,-0.8948,-0.6671,-0.306,-0.6448,-0.836,-0.8899,-0.8506,-0.8183,-0.8044,-0.7999,-0.8038,-0.8038,-0.8038,-0.8038,-0.8038,0.0,0.0,0.0,0.0,0.0,0.0,0.0,0.0,0.0,0.0,0.0,-0.1707,-0.6051,-0.6893,-0.7109,-0.7136,-0.7007,-0.6867,-0.656,-0.684,-0.7021,-0.7073,-0.2556,0.0,0.0,0.0,0.0,-0.0,-0.2429,-0.4895,-0.7476,-0.7536,-0.7522,-0.7529,-0.7577,-0.7644,-0.765,-0.7848,-0.7746,-0.7509,-0.7237,-0.7244,-0.6894,0.0,0.0,0.0,0.0,0.0,0.0,0.0,0.0,0.0,0.0,0.0,0.0,0.0,0.0,0.0,0.0,0.0,0.0,0.0,0.0,0.0,0.0,0.0,0.0,0.0,0.0,0.0,0.0,0.0,0.0,0.0,0.0,0.0,0.0,0.0,-0.6208,-0.8625,-0.854,-0.8282,-0.826,-0.8131,-0.5822,-0.0419,0.0,0.0,0.0,0.0,-0.1864,-0.5823,-0.7907,-0.8856,-0.8954,-0.8863,-0.5922,0.0,0.0,-0.3122,-0.8785,-0.6832,-0.3723,-0.0331,-0.5923,-0.8487,-0.88,-0.8289,-0.8046,-0.7971,-0.7979,-0.8038,-0.8038,-0.8038,-0.8038,-0.8038,0.0,0.0,0.0,0.0,0.0,0.0,0.0,0.0,0.0,0.0,0.0,-0.1795,-0.6576,-0.7126,-0.708,-0.7129,-0.6834,-0.6807,-0.7034,-0.6878,-0.6719,-0.6893,-0.2432,0.0,0.0,0.0,0.0,-0.0,-0.2302,-0.4702,-0.7132,-0.7289,-0.7366,-0.738,-0.7529,-0.7503,-0.7429,-0.7818,-0.7851,-0.7697,-0.7502,-0.7482,-0.7416,0.0,0.0,0.0,0.0,0.0,0.0,0.0,0.0,0.0,0.0,0.0,0.0,0.0,0.0,0.0,0.0,0.0,0.0,0.0,0.0,0.0,0.0,0.0,0.0,0.0,0.0,0.0,0.0,0.0,0.0,0.0,0.0,0.0,-0.0702,0.0,-0.22,-0.8213,-0.8878,-0.8876,-0.8941,-0.8322,-0.579,-0.0434,0.0,0.0,0.0,0.0,0.0,0.0,-0.5588,-0.8745,-0.8863,-0.8883,-0.5935,0.0,0.0,-0.3129,-0.868,-0.2743,0.0,-0.0325,-0.6335,-0.8927,-0.8823,-0.8216,-0.7994,-0.8045,-0.8038,-0.8038,-0.8038,-0.8038,-0.8038,-0.8045,0.0,0.0,0.0,0.0,0.0,0.0,0.0,0.0,0.0,0.0,0.0,-0.1842,-0.6563,-0.7128,-0.7122,-0.7074,-0.6934,-0.6767,-0.6893,-0.6939,-0.5486,-0.2134,-0.0691,0.0,0.0,0.0,0.0,-0.0,-0.0632,-0.3066,-0.7072,-0.7148,-0.7278,-0.738,-0.7529,-0.7557,-0.7664,-0.7858,-0.8018,-0.7957,-0.7863,-0.7828,-0.7863,0.0,0.0,0.0,0.0,0.0,0.0,0.0,0.0,0.0,0.0,0.0,0.0,0.0,0.0,0.0,0.0,0.0,0.0,0.0,0.0,0.0,0.0,0.0,0.0,0.0,0.0,0.0,0.0,0.0,0.0,0.0,0.0,-0.1718,-0.0205,0.0,-0.2233,-0.8201,-0.8907,-0.8948,-0.8883,-0.8791,-0.6279,-0.0435,0.0,0.0,0.0,0.0,0.0,0.0,-0.1562,-0.4578,-0.8863,-0.889,-0.5944,0.0,0.0,-0.3129,-0.868,-0.2773,0.0,-0.0331,-0.6323,-0.8907,-0.8807,-0.8295,-0.8053,-0.7985,-0.7979,-0.8038,-0.8038,-0.8038,-0.8052,-0.7965,0.0,0.0,0.0,0.0,0.0,0.0,0.0,0.0,0.0,0.0,0.0,-0.1094,-0.3852,-0.501,-0.5991,-0.6992,-0.6934,-0.6867,-0.6927,-0.6109,-0.3968,-0.017,0.0,0.0,0.0,0.0,0.0,0.0,0.0,-0.1966,-0.5646,-0.6693,-0.7339,-0.7475,-0.7624,-0.7767,-0.7811,-0.7905,-0.8024,-0.7991,-0.7966,-0.7959,-0.8014,-0.7753,-0.7801,-0.8048,-0.8048,-0.8048,-0.7963,-0.7952,0.0,0.0,0.0,0.0,0.0,0.0,0.0,0.0,0.0,0.0,0.0,0.0,0.0,0.0,0.0,0.0,0.0,0.0,0.0,0.0,0.0,0.0,0.0,0.0,-0.2004,0.0,0.0,0.0,-0.1279,-0.474,-0.7396,-0.8933,-0.8927,-0.8933,-0.6473,-0.044,0.0,0.0,0.0,0.0,0.0,0.0,-0.2459,-0.4247,-0.5135,-0.515,-0.3469,0.0,0.0,-0.3129,-0.8792,-0.532,-0.3758,0.0,-0.7436,-0.8927,-0.8925,-0.8501,-0.8276,0.0,0.0,0.0,0.0,0.0,-0.7959,-0.7972,0.0,0.0,0.0,0.0,0.0,0.0,0.0,0.0,0.0,0.0,0.0,0.0,0.0,-0.2425,-0.4798,-0.6946,-0.6993,-0.6959,-0.7088,-0.487,-0.2349,0.0555,0.0246,0.0,0.0,0.0,0.0,0.0,0.0,-0.1257,-0.3688,-0.6247,-0.7502,-0.7631,-0.7753,-0.7896,-0.8038,-0.8038,-0.8209,-0.8448,-0.8646,-0.8496,-0.8011,-0.7771,-0.7805,-0.8038,-0.8038,-0.8038,-0.8045,-0.7965,0.0,0.0,0.0,0.0,0.0,0.0,0.0,0.0,0.0,0.0,0.0,0.0,0.0,0.0,0.0,0.0,0.0,0.0,0.0,0.0,0.0,0.0,0.0,0.0,0.0,0.0,0.0,0.0,0.0,0.0,-0.5259,-0.8856,-0.894,-0.887,-0.6386,-0.0446,0.0,0.0,0.0,0.0,0.0,0.0,0.0,-0.607,-0.0111,0.0,0.0,0.0,0.0,-0.3126,-0.8903,-0.8845,-0.8955,-0.885,-0.8941,-0.8872,-0.8852,-0.8939,-0.8608,-0.8112,-0.8066,-0.7952,-0.8038,-0.7959,-0.7659,-0.7153,0.0,0.0,0.0,0.0,0.0,0.0,0.0,0.0,0.0,0.0,0.0,0.0,0.0,-0.3836,-0.6628,-0.702,-0.7049,-0.6951,-0.6824,-0.4743,-0.0986,0.4826,0.1809,0.0,0.0,0.0,0.0,0.0,0.0,-0.1388,-0.3942,-0.6438,-0.7665,-0.7773,-0.7697,-0.7798,-0.8038,-0.8038,-0.9236,-1.1325,-1.3006,-1.1395,-0.7957,-0.7952,-0.8007,-0.8038,-0.8038,-0.8038,-0.8038,-0.8045,-0.7939,-0.772,-0.6184,0.0,0.0,0.0,0.0,0.0,0.0,0.0,0.0,0.0,0.0,0.0,0.0,0.0,0.0,0.0,0.0,0.0,0.0,0.0,0.0,0.0,0.0,0.0,0.0,0.0,0.0,0.0,-0.5234,-0.8876,-0.894,-0.887,-0.6386,-0.0446,0.0,0.0,0.0,0.0,0.0,0.0,-0.5808,-0.6039,-0.0112,0.0,0.0,0.0,0.0,0.0,-0.887,-0.8927,-0.892,-0.8947,-0.8913,-0.8899,-0.8886,-0.8872,-0.8878,-0.8727,-0.8146,-0.8046,-0.8038,-0.8045,-0.5313,-0.2002,0.0,0.0,0.0,0.0,0.0,0.0,0.0,0.0,0.0784,0.2907,0.1306,0.0,0.0,-0.2149,-0.4485,-0.6714,-0.7062,-0.7035,-0.6901,-0.3792,0.0491,0.6053,0.4276,0.317,0.3156,0.112,0.0,0.0,0.0,-0.14,-0.4084,-0.6649,-0.778,-0.7814,-0.7791,-0.7865,-0.8038,-0.8038,-0.8704,-1.0236,-1.3908,-1.3634,-1.0943,-0.9465,-0.8468,-0.7825,-0.7923,-0.7977,-0.8038,-0.8038,-0.7898,-0.7838,-0.7628,-0.7381,-0.7149,0.0,0.0,0.0,0.0,0.0,0.0,0.0,0.0,0.0,0.0,0.0,0.0,0.0,0.0,0.0,0.0,0.0,0.0,0.0,0.0,0.0,0.0,0.0,0.0,0.0,-0.5316,-0.8876,-0.8947,-0.887,-0.6386,-0.0446,0.0,0.0,0.0,0.0,0.0,0.0,-0.2849,-0.2965,-0.0,0.0,0.0,-0.0,-0.3017,-0.6042,-0.8876,-0.8954,-0.894,-0.894,-0.894,-0.894,-0.8933,-0.8859,-0.8869,-0.8806,-0.8267,-0.8024,-0.8038,-0.7952,-0.6331,-0.4114,0.0,0.0,0.0,0.0,0.0,0.0,0.0,0.0,0.1488,0.5761,0.3332,0.0915,0.0083,0.0,-0.1855,-0.6386,-0.684,-0.6993,-0.7119,-0.287,0.1625,0.6094,0.6316,0.6299,0.6338,0.2151,0.0,0.0,0.0,-0.1416,-0.4035,-0.6766,-0.7902,-0.7862,-0.7984,-0.8038,-0.8038,-0.8038,-0.8174,-0.8863,-1.3014,-1.4609,-1.4105,-1.1559,-0.9332,-0.7561,-0.7767,-0.7848,-0.7957,-0.7984,-0.7916,-0.7814,-0.7945,-0.7634,-0.7318,-0.7246,-0.7615,0.0,0.0,0.0,0.0,0.0,0.0,0.0,0.0,0.0,-0.6502,-0.1145,0.0,0.0,0.0,0.0,0.0,0.0,0.0,0.0,0.0,0.0,0.0,0.0,-0.5271,-0.8876,-0.8947,-0.887,-0.6386,-0.0446,0.0,0.0,0.0,0.0,0.0,0.0,0.0,0.0,0.0,0.0,0.0,-0.0112,-0.6061,-0.8897,-0.8897,-0.8856,-0.8947,-0.8947,-0.894,-0.894,-0.894,-0.894,-0.8872,-0.8808,-0.8262,-0.7988,-0.8045,-0.7965,-0.7979,-0.7578,0.0,0.0,0.0,0.0,0.0,0.0,0.0,0.0,0.1481,0.5736,0.5867,0.4151,0.0407,0.0,-0.1942,-0.6628,-0.6613,-0.6562,-0.7097,-0.2704,0.1883,0.6139,0.6284,0.6267,0.6319,0.2178,0.0,0.0,0.0,-0.1375,-0.409,-0.6731,-0.7945,-0.8018,-0.8031,-0.8038,-0.8038,-0.8038,-0.8894,-1.0281,-1.0591,-1.2675,-1.5431,-1.4166,-1.0899,-0.7169,-0.751,-0.7638,-0.7767,-0.7897,-0.8021,-0.7938,-0.797,-0.7923,-0.7938,-0.7872,0.0,-0.797,-0.7883,-0.7521,-0.7253,-0.7746,-0.7502,-0.6037,0.0,0.0,-0.6496,-0.1095,0.0,0.0,0.0,0.0,0.0,0.0,0.0,0.0,0.0,0.0,0.0,0.0,-0.5316,-0.8883,-0.8863,-0.8883,-0.6386,-0.0446,0.0,0.0,0.0,0.0,0.0,0.0,0.0,0.0,0.0,0.0,0.0,-0.0112,-0.6061,-0.8903,-0.8897,-0.887,-0.8856,-0.8856,-0.8947,-0.894,-0.894,-0.894,-0.8872,-0.8808,-0.8262,-0.7994,-0.7972,-0.7972,-0.7979,-0.7578,0.0,0.0,0.0,0.0,0.0,0.0,0.0,0.0,0.0,0.6048,0.6331,0.5635,0.3886,0.1434,-0.1785,-0.6254,-0.639,-0.4311,0.0395,0.1411,0.3142,0.6172,0.6296,0.6312,0.63,0.2149,0.0,0.0,0.0,-0.0593,-0.1803,-0.6042,-0.7972,-0.8038,-0.8038,-0.8038,-0.8038,-0.8038,-0.84,-0.9225,-1.0633,-1.3009,-1.5565,-1.3576,-1.0461,-0.7151,-0.7244,-0.7522,0.0,0.0,-0.7882,-0.7999,-0.7966,-0.7994,-0.8021,-0.7993,-0.7986,0.0,-0.8013,-0.7815,0.0,0.0,-0.3147,-0.2423,-0.0491,-0.1771,-0.2665,-0.0501,0.0,0.0,0.0,0.0,0.0,0.0,0.0,0.0,0.0,0.0,0.0,0.0,-0.2258,-0.5096,-0.852,-0.8884,-0.6473,-0.0452,0.0,0.0,0.0,0.0,0.0,0.0,0.0,0.0,0.0,0.0,0.0,-0.0,-0.2573,-0.5493,-0.8903,-0.889,-0.8883,-0.8883,-0.8856,-0.885,-0.885,-0.8947,-0.892,-0.8828,-0.819,-0.7988,-0.7994,-0.8032,-0.6042,-0.3215,0.0,0.0,0.0,0.0,0.0,0.0,0.0,0.0,0.0,0.0,0.6291,0.5842,0.4729,0.1863,-0.1192,-0.4264,-0.457,0.0,0.0,0.4169,0.4693,0.6237,0.6325,0.6379,0.6471,0.2198,0.0,0.0,0.0,0.0,-0.01,-0.5536,-0.7972,-0.8045,-0.8045,-0.8038,-0.8038,-0.8038,-0.8004,-0.8252,-1.0635,-1.325,-1.5577,-1.3532,-1.0499,-0.7265,-0.7158,-0.7322,0.0,0.0,-0.7629,-0.7736,-0.7778,-0.7767,-0.776,-0.7994,-0.8021,-0.7997,-0.7987,0.0,0.0,-0.1327,0.0,0.0,0.0,0.0,0.0,0.0,0.0,0.0,0.0,0.0,0.0,0.0,0.0,0.0,0.0,0.0,0.0,0.0,0.0,-0.2417,-0.8499,-0.9185,-0.6584,-0.046,0.0,0.0,0.0,0.0,0.0,0.0,0.0,0.0,0.0,0.0,0.0,0.0,0.0,-0.2264,-0.6449,-0.641,-0.6405,-0.6425,-0.6497,-0.7382,-0.8863,-0.8843,-0.8859,-0.8817,-0.8441,-0.8157,-0.7799,-0.6316,-0.3327,0.0,0.0,0.0,0.0,0.0,0.0,0.0,0.0,0.0,0.0,0.0,0.0,0.0,0.0,0.0083,-0.0083,-0.0163,-0.0159,0.0,0.0,0.3976,0.6231,0.6278,0.6319,0.6567,0.7025,0.2414,0.0,0.0,0.0,0.0,-0.0101,-0.5441,-0.7985,-0.7972,-0.8052,-0.8038,-0.8038,-0.8038,-0.8004,-0.8153,-0.9917,-1.2716,-1.5721,-1.5167,-1.1882,-0.7583,-0.7471,0.0,-0.7088,-0.7138,-0.7099,-0.7119,-0.7169,-0.712,0.0,-0.787,-0.8021,-0.8045,0.0,0.0,-0.5937,-0.1204,0.0,0.0,0.0,0.0,0.0,0.0,0.0,0.0,0.0,0.0,0.0,0.0,0.0,0.0,0.0,0.0,0.0,0.0,0.0,-0.259,0.0,-0.9787,-0.7057,-0.0469,0.0,0.0,0.0,0.0,0.0,0.0,0.0,0.0,0.0,0.0,0.0,0.0,0.0,-0.0117,-0.023,-0.0225,-0.0225,-0.0228,-0.0224,-0.3567,-0.8863,-0.8863,-0.8886,-0.8953,-0.8906,-0.8556,-0.7389,-0.2129,-0.0102,0.0,0.0,0.0,0.0,0.0,0.0,0.0,0.0,0.0,0.0,0.0,0.0,0.0,0.0,0.0,0.0,0.0,0.0,0.0,0.0,0.8008,0.9072,0.639,0.6279,0.6562,0.7092,0.2478,0.0,0.0,0.0,0.0,-0.0101,-0.3869,-0.6771,-0.8635,-0.8302,-0.8194,-0.8187,-0.8085,-0.8024,-0.8103,-0.9934,-1.2662,-1.5467,-1.2886,-1.0964,-0.94,0.0,0.0,-0.7061,-0.7108,-0.7128,-0.7135,-0.7091,-0.7086,-0.721,-0.7835,-0.8049,-0.7993,-0.8021,0.0,-0.2,-0.0396,0.0,0.0,0.0,0.0,0.0,0.0,0.0,0.0,0.0,0.0,0.0,0.0,0.0,0.0,0.0,0.0,0.0,0.0,0.0,0.0,0.0,0.0,0.0,-0.0119,0.0,0.0,0.0,0.0,0.0,0.0,0.0,0.0,0.0,0.0,0.0,0.0,0.0,0.0,0.0,0.0,0.0,0.0,0.0,-0.1116,-0.3349,-0.7287,-0.8856,-0.8452,-0.4561,-0.5285,-0.8314,-0.6128,-0.3045,0.0,0.0,0.0,0.0,0.0,0.0,0.0,0.0,0.0,0.0,0.0,0.0,0.0,0.0,0.0,0.0,0.0,0.0,0.0,0.0,0.0,1.0466,0.645,0.6512,0.6705,0.705,0.4344,0.1925,0.0,0.0,0.0,-0.0,-0.2033,-0.501,-0.8845,-0.8512,-0.8295,-0.818,-0.8079,-0.8038,-0.8131,-0.9186,-1.2083,-1.5428,-1.2296,-1.0315,0.0,0.0,-0.8601,-0.7143,-0.7143,-0.7143,-0.7143,-0.7143,-0.7065,-0.7217,-0.7597,-0.7828,-0.8014,-0.7952,-0.4055,0.0,0.0,0.0,0.0,0.0,0.0,0.0,0.0,0.0,0.0,0.0,0.0,0.0,0.0,0.0,0.0,0.0,0.0,0.0,0.0,0.0,-0.2302,0.0,0.0,0.0,0.0,0.0,0.0,0.0,0.0,0.0,0.0,0.0,0.0,0.0,0.0,0.0,0.0,0.0,0.0,0.0,0.0,0.0,0.0,0.0,0.0,-0.0335,-0.4139,-0.6959,-0.8542,-0.4724,-0.5473,-0.8811,-0.8214,-0.4596,0.0,0.0,0.0,0.0,0.0,0.0,0.0,0.0,0.0,0.0,0.0,0.0,0.0,0.0,0.0,0.0,0.0,0.0,0.0,0.0,0.0,0.0,0.6456,0.6854,0.7104,0.7021,0.7667,0.5378,0.0,0.0,0.0,0.0,0.0,-0.3215,-0.8829,-0.8585,-0.8357,-0.8052,-0.8045,-0.8031,-0.8011,-0.7904,-1.0915,-1.5197,-1.3109,0.0,0.0,0.0,0.0,0.0,-0.7143,0.0,0.0,0.0,-0.7072,-0.7093,-0.7106,-0.7496,-0.7925,-0.7979,-0.4065,0.0,0.0,0.0,0.0,0.0,0.0,0.0,0.0,0.0,0.0,0.0,0.0,0.0,0.0,0.0,0.0,0.0,0.0,0.0,0.0,0.0,0.0,0.0,0.0,0.0,0.0,0.0,0.0,0.0,0.0,0.0,0.0,0.0,0.0,0.0,0.0,0.0,0.0,0.0,0.0,0.0,0.0,0.0,0.0,0.0,0.0,0.0,0.0,-0.336,-0.8444,-0.8426,-0.8497,-0.8381,-0.7809,-0.4393,0.0,0.0,0.0,0.0,0.0,0.0,0.0,0.0,0.0,0.0,0.0,0.0,0.0,0.0,0.0,0.0,0.0,0.0,0.0,0.0,0.0,0.0,0.6368,0.6783,0.6947,0.6551,0.0,0.0,0.0,0.0,0.0,0.0,0.0,-0.2979,-0.8289,-0.8452,-0.8431,-0.8323,-0.8092,-0.7872,-0.7862,0.0,-0.9819,-0.9859,0.0,0.0,0.0,0.0,0.0,0.0,0.0,0.0,0.0,0.0,-0.706,-0.7132,-0.7051,-0.7171,-0.7466,-0.7898,-0.4111,0.0,0.0,0.0,0.0,0.0,0.0,0.0,0.0,0.0,0.0,0.0,0.0,0.0,0.0,0.0,0.0,0.0,0.0,0.0,0.0,0.0,-0.0614,-0.2099,-0.0861,0.0,0.0,0.0,0.0,0.0,0.0,0.0,0.0,0.0,0.0,0.0,0.0,0.0,0.0,0.0,0.0,0.0,0.0,0.0,0.0,0.0,0.0,0.0,0.0,-0.0907,-0.2241,-0.2232,-0.2213,-0.2304,-0.2099,-0.1209,0.0,0.0,0.0,0.0,0.0,0.0,0.0,0.0,0.0,0.0,0.0,0.0,0.0,0.0,0.0,0.0,0.0,0.0,0.0,0.0,0.0,0.6297,0.6312,0.6798,0.6919,0.6647,0.0,0.0,0.0,0.0,0.0,0.0,0.0,-0.1596,-0.4503,-0.4682,-0.6075,-0.8294,-0.8098,0.0,0.0,0.0,0.0,0.0,0.0,0.0,0.0,0.0,0.0,0.0,0.0,0.0,-0.7085,-0.7145,-0.7283,-0.7502,-0.7475,0.0,-0.707,-0.5053,-0.2296,0.0,0.0,0.0,0.0,0.0,0.0,0.0,0.0,-0.1641,0.0,0.0,0.0,0.0,0.0,0.0,0.0,0.0,0.0,0.0,0.0,0.0,0.0,0.0,0.0,0.0,0.0,0.0,0.0,0.0,0.0,0.0,0.0,0.0,0.0,0.0,0.0,0.0,0.0,0.0,0.0,0.0,0.0,0.0,0.0,0.0,0.0,0.0,0.0,0.0,0.0,0.0,0.0,0.0,0.0,0.0,0.0,0.0,0.0,0.0,0.0,0.0,0.0,0.0,0.0,0.0,0.0,0.6309,0.0,0.0,0.0,0.0,0.0,0.0,0.0,0.0,0.0,0.0,0.0,0.6784,0.684,0.0,0.0,0.0,0.0,0.0,0.0,0.0,0.0,0.0,0.0,0.0,0.0,0.0,0.0,0.0,0.0,0.0,0.0,0.0,0.0,0.0,0.0,0.0,0.0,0.0,0.0,-0.6679,-0.6299,-0.7014,-0.7543,-0.8023,-0.8044,-0.7966,-0.6784,-0.1467,0.0,0.0,0.0,0.0,0.0,0.0,0.0,-0.0195,-0.0779,0.0,-0.5706,-0.0897,0.0,0.0,0.0,0.0,0.0,0.0,0.0,0.0,0.0,0.0,0.0,0.0,0.0,0.0,0.0,0.0,0.0,0.0,0.0,0.0,0.0,0.0,0.0,0.0,0.0,0.0,0.0,0.0,0.0,0.0,0.0,0.0,0.0,0.0,0.0,0.0,0.0,0.0,0.0,0.0,0.0,0.0,0.0,0.0,0.0,0.0,0.0,0.0,0.0,0.0,0.0,0.0,0.0,0.0,0.0,0.6614,0.5068,0.0,0.0,0.0,0.0,0.0,0.0,0.0,0.0,0.0,0.0,0.0,0.0,0.0,0.0,0.0,0.0,0.0,0.0,0.0,0.0,0.0,0.0,0.0,0.0,0.0,0.0,0.0,0.0,0.0,0.0,0.0,0.0,0.0,0.0,0.0,0.0,0.0,0.0,-0.4442,-0.1977,-0.6475,-0.789,-0.8,-0.8028,-0.8004,-0.6825,-0.1495,0.0,0.0,0.0,0.0,0.0,0.0,0.0,0.0,0.0,-0.6923,-0.6266,-0.098,0.0,0.0,0.0,0.0,0.0,0.0,0.0,0.0,0.0,0.0,0.0,0.0,0.0,0.0,0.0,0.0,0.0,0.0,0.0,0.0,0.0,0.0,0.0,0.0,0.0,0.0,0.0,0.0,0.0,0.0,0.0,0.0,0.0,0.0,0.0,0.0,0.0,0.0,0.0,0.0,0.0,0.0,0.0,0.0,0.0,0.0,0.0,0.0,0.0,0.0,0.0,0.0,0.651,0.664,0.6874,0.6892,0.6067,0.3804,0.1397,0.0,0.0,0.0,0.0,0.0,0.0,0.0,0.0,0.0,0.0,0.0,0.0,0.0,0.0,0.0,0.0,0.0,0.0,0.0,0.0,0.0,0.0,0.0,0.0,0.0,0.0,0.0,0.0,0.0,0.0,0.0,0.0,0.0,0.0,0.0,0.0,-0.1913,-0.0964,-0.6333,-0.7977,-0.797,-0.8045,-0.7985,-0.6877,-0.1506,0.0,0.0,0.0,0.0,0.0,0.0,0.0,0.0,0.0,-0.5346,-0.3076,-0.0494,0.0,0.0,0.0,0.0,0.0,0.0,0.0,0.0,0.0,0.0,0.0,0.0,0.0,0.0,0.0,0.0,0.0,0.0,0.0,0.0,0.0,0.0,0.0,0.0,0.0,0.0,0.0,0.0,0.0,0.0,0.0,0.0,0.0,0.0,0.0,0.0,0.0,0.0,0.0,0.0,0.0,0.0,0.0,0.0,0.0,0.0,0.0,0.0,0.0,0.0,0.0,0.0,0.6739,0.6915,0.7082,0.7081,0.7081,0.7007,0.3749,0.1338,0.0,0.0,0.0,0.0,0.0,0.0,0.0,0.0,0.0,0.0,0.0,0.0,0.0,0.0,0.0,0.0,0.0,0.0,0.0,0.0,0.0,0.0,0.0,0.0,0.0,0.0,0.0,0.0,0.0,0.0,0.0,0.0,0.0,0.0,0.0,0.0,-0.078,-0.4967,-0.631,-0.6315,-0.6242,-0.6258,-0.5354,-0.1107,0.0,0.0,0.0,0.0,0.0,0.0,-0.0764,0.0,0.0,-0.2576,0.0,0.0,0.0,0.0,0.0,0.0,0.0,0.0,0.0,0.0,0.0,0.0,0.0,0.0,0.0,0.0,0.0,0.0,0.0,0.0,0.0,0.0,0.0,0.0,0.0,0.0,0.0,0.0,0.0,0.0,0.0,0.0,0.0,0.0,0.0,0.0,0.0,0.0,0.0,0.0,0.0,0.0,0.0,0.0,0.0,0.0,0.0,0.0,0.0,0.0,0.0,0.0,0.0,0.0,0.7392,0.778,0.7183,0.7098,0.723,0.7529,0.6882,0.5603,0.0,0.0,0.0,0.0,0.0,0.0,0.0,0.0,0.0,0.0,0.0,0.0,0.0,0.0,0.0,0.0,0.0,0.0,0.0,0.0,0.0,0.0,0.0,0.0,0.0,0.0,0.0,0.0,0.0,0.0,0.0,0.0,0.0,0.0,0.0,0.0,-0.0096,-0.0575,-0.0774,-0.0687,-0.0698,0.0,0.0,-0.0101,0.0,0.0,0.0,0.0,0.0,0.0,0.0,0.0,-0.1435,-0.029,0.0,0.0,0.0,0.0,0.0,0.0,0.0,0.0,0.0,0.0,0.0,0.0,0.0,0.0,0.0,0.0,0.0,0.0,0.0,0.0,0.0,0.0,0.0,0.0,0.0,0.0,0.0,0.0,0.0,0.0,0.0,0.0,0.0,0.0,0.0,0.0,0.0,0.0,0.0,0.0,0.0,0.0,0.0,0.0,0.0,0.0,0.0,0.0,0.0,0.0,0.0,0.0,0.0,0.7458,0.7386,0.7289,0.7353,0.7382,0.7516,0.7841,0.7637,0.7001,0.5807,0.0,0.0,0.0,0.0,0.0,0.0,0.0,0.0,0.0,0.0,0.0,0.0,0.0,0.0,0.0,0.0,0.0,0.0,0.0,0.0,0.0,0.0,0.0,0.0,0.0,0.0,0.0,0.0,0.0,0.0,0.0,0.0,0.0,0.0,0.0,0.0,0.0,0.0,0.0,0.0,0.0,0.0,0.0,0.0,0.0,0.0,0.0,0.0,0.0,0.0,-0.231,-0.0381,0.0,0.0,0.0,0.0,0.0,0.0,0.0,0.0,0.0,0.0,0.0,0.0,0.0,0.0,0.0,0.0,0.0,0.0,0.0,0.0,0.0,0.0,0.0,0.0,0.0,0.0,0.0,0.0,0.0,0.0,0.0,0.0,0.0,0.0,0.0,0.0,0.0,0.0,0.0,0.0,0.0,0.0,0.0,0.0,0.0,0.0,0.0,0.0,0.0,0.0,0.0,0.0,0.0,0.7344,0.7706,0.7552,0.7468,0.7616,0.7645,0.7767,0.8011,0.7909,0.7637,0.733,0.7282,0.0,0.0,0.0,0.0,0.0,0.0,0.0,0.0,0.0,0.0,0.0,0.0,0.0,0.0,0.0,0.0,0.0,0.0,0.0,0.0,0.0,0.0,0.0,0.0,0.0,0.0,0.0,0.0,0.0,0.0,0.0,0.0,0.0,0.0,0.0,0.0,0.0,0.0,0.0,0.0,0.0,0.0,0.0,0.0,0.0,0.0,0.0,0.0,0.0,0.0,0.0,0.0,0.0,0.0,0.0,0.0,0.0,0.0,0.0,0.0,0.0,0.0,0.0,0.0,0.0,0.0,0.0,0.0,0.0,0.0,0.0,0.0,0.0,0.0,0.0,0.0,0.0,0.0,0.0,0.0,0.0,0.0,0.0,0.0,0.0,0.0,0.0,0.0,0.0,0.0,0.0,0.0,0.0,0.0,0.0,0.0,0.0,0.0,0.0,0.0,0.0,0.0,0.0,0.0,0.0,0.6887,0.8054,0.8776,0.7722,0.7644,0.7791,0.8024,0.7825,0.7738,0.7711,0.7678,0.0,0.0,0.0,0.0,0.0,0.0,0.0,0.0,0.0,0.0,0.0,0.0,0.0,0.0,0.0,0.0,0.0,0.0,0.0,0.0,0.0,0.0,0.0,0.0,0.0,0.0,0.0,0.0,0.0,0.0,0.0,0.0,0.0,0.0,0.0,0.0,0.0,0.0,0.0,0.0,0.0,0.0,0.0,0.0,0.0,0.0,0.0,0.0,0.0,0.0,0.0,0.0,0.0,0.0,0.0,0.0,0.0,0.0,0.0,0.0,0.0,0.0,0.0,0.0,0.0,0.0,0.0,0.0,0.0,0.0,0.0,0.0,0.0,0.0,0.0,0.0,0.0,0.0,0.0,0.0,0.0,0.0,0.0,0.0,0.0,0.0,0.0,0.0,0.0,0.0,0.0,0.0,0.0,0.0,0.0,0.0,0.0,0.0,0.0,0.0,0.0,0.0,0.0,0.0,0.0,0.0,0.8861,0.762,0.7667,0.7523,0.7671,0.8011,0.7905,0.7929,0.7925,0.7685,0.0,0.0,0.0,0.0,0.0,0.0,0.0,0.0,0.0,0.3701,0.0,0.0,0.0,0.0,0.0,0.0,0.0,0.0,0.0,0.0,0.0,0.0,0.0,0.0,0.0,0.0,0.0,0.0,0.0,0.0,0.0,0.0,0.0,0.0,0.0,0.0,0.0,0.0,0.0,0.0,0.0,0.0,0.0,0.0,0.0,0.0,0.0,0.0,0.0,0.0,0.0,0.0,0.0,0.0,0.0,0.0,0.0,0.0,0.0,0.0,0.0,0.0,0.0,0.0,0.0,0.0,0.0,0.0,0.0,0.0,0.0,0.0,0.0,0.0,0.0,0.0,0.0,0.0,0.0,0.0,0.0,0.0,0.0,0.0,0.0,0.0,0.0,0.0,0.0,0.0,0.0,0.0,0.0,0.0,0.0,0.0,0.0,0.0,0.0,0.0,0.0,0.0,0.0,0.0,0.0,0.0,1.1004,0.9043,0.7646,0.7611,0.7677,0.8011,0.8038,0.8004,0.8007,0.7814,0.0,0.0,0.0,0.0,0.0,0.0,0.0,0.0,0.6037,0.3313,0.0,0.2024,0.3035,0.301,0.304,0.1913,0.0,0.0,0.0,0.0,0.0,0.0,0.0,0.0,0.0,0.0,0.0,0.0,0.0,0.0,0.0,0.0,0.0,0.0,0.0,0.0,0.0,0.0,0.0,0.0,0.0,0.0,0.0,0.0,0.0,0.0,0.0,0.0,0.0,0.0,0.0,0.0,0.0,0.0,0.0,0.0,0.0,0.0,0.0,0.0,0.0,0.0,0.0,0.0,0.0,0.0,0.0,0.0,0.0,0.0,0.0,0.0,0.0,0.0,0.0,0.0,0.0,0.0,0.0,0.0,0.0,0.0,0.0,0.0,0.0,0.0,0.0,0.0,0.0,0.0,0.0,0.0,0.0,0.0,0.0,0.0,0.0,0.0,0.0,0.0,0.0,0.0,0.0,0.0,0.0,0.0,1.413,1.2445,0.7752,0.7577,0.7959,0.8024,0.8038,0.8038,0.8038,0.0,0.0,0.0,0.0,0.0,0.0,0.0,0.0,0.7972,0.3102,0.06,0.0601,0.5528,0.8024,0.8092,0.8051,0.5133,0.0,0.0,0.0,0.0,0.0,0.0,0.0,0.0,0.0,0.0,0.0,0.0,0.0,0.0,0.0,0.0,0.0,0.0,0.0,0.0,0.0,0.0,0.0,0.0,0.0,0.0,0.0,0.0,0.0,0.0,0.0,0.0,0.0,0.0,0.0,0.0,0.0,0.0,0.0302,0.0604,0.0606,0.0624,0.0,0.0,0.0,0.0,0.0,0.0,0.0,0.0,0.0,0.0,0.0,0.0,0.0,0.0,0.0,0.0,0.0,0.0,0.0,0.0,0.0,0.0,0.0,0.0,0.0,0.0,0.0,0.0,0.0,0.0,0.0,0.0,0.0,0.0,0.0,0.0,0.0,0.0,0.0,0.0,0.0,0.0,0.0,0.0,0.0,0.0,0.0,0.0,0.0,0.0,0.0,0.7208,0.7452,0.7912,0.8038,0.8038,0.0,0.0,0.0,0.0,0.0,0.0,0.0,0.0,0.0,0.7972,0.6742,0.6132,0.6132,0.739,0.8213,0.867,0.8227,0.5153,0.0,0.0,0.0,0.0,0.0,0.0,0.0,0.0,0.0,0.0,0.0,0.0,0.0,0.4627,0.3443,0.0,0.0,0.0,0.0,0.0,0.0,0.0,0.0,0.0,0.0,0.0,0.0,0.0,0.0,0.0,0.0,0.0,0.0,0.0,0.0,0.0,0.0,0.0,0.3332,0.6078,0.6093,0.6911,0.0,0.0,0.0,0.0,0.0,0.0,0.0,0.0,0.0,0.0,0.0,0.0,0.0,0.0,0.0,0.0,0.0,0.0,0.0,0.0,0.0,0.0,0.0,0.0,0.0,0.0,0.0,0.0,0.0,0.0,0.0,0.0,0.0,0.0,0.0,0.0,0.0,0.0,0.0,0.0,0.0,0.0,0.0,0.0,0.0,0.0,0.0,0.0,0.0,0.0,0.0,0.0,0.7617,0.8004,0.8038,0.0,0.0,0.0,0.0,0.0,0.0,0.0,0.0,0.0,0.8045,0.7959,0.7959,0.7959,0.7959,0.8026,0.8126,0.8471,0.8153,0.517,0.0,0.0,0.0,0.0,0.0,0.0,0.0,0.0,0.0,0.0,0.0,0.0,0.0,0.5731,0.5752,0.0,0.361,0.2036,0.0,0.0,0.0,0.0,0.0,0.0,0.0,0.0,0.0,0.0,0.0,0.0,0.0,0.0,0.0,0.0,0.0,0.0,0.0,0.3543,0.0,0.0,0.0,0.6484,0.0,0.0,0.0,0.0,0.0,0.0,0.0,0.0,0.0,0.0,0.0,0.0,0.1727,0.0,0.0,0.1417,0.4413,0.1627,0.0,0.0,0.0,0.0,0.0,0.0,0.0,0.0,0.0,0.0,0.0,0.0,0.0,0.0,0.0,0.0,0.0,0.0,0.0,0.0,0.0,0.0,0.0,0.0,0.0,0.0,0.0,0.0,0.0,0.0,0.0,0.0,0.0,0.0,0.0,0.0,0.0,0.0,0.0,0.0,0.0,0.0,0.0,0.0,0.0,0.8038,0.8038,0.8038,0.8038,0.8038,0.8038,0.7985,0.8004,0.8012,0.7208,0.481,0.1203,0.1206,0.0804,0.0,0.0,0.0,0.0,0.0,0.0,0.0,0.0,0.0,0.0,0.0,0.0,0.0,0.7767,0.4936,0.1082,0.03,0.0,0.0,0.0,0.0,0.0,0.0,0.0,0.0,0.0,0.0,0.0,0.0,0.0,0.0,0.0,0.0,0.0,0.0,0.0,0.0,0.0,0.0,0.0,0.0,0.0,0.0,0.0,0.0,0.0,0.0,0.0,0.0,0.0,0.0,0.4821,0.0,0.1055,0.3252,0.8904,0.4184,0.125,0.074,0.1234,0.1234,0.074,0.0742,0.0747,0.0754,0.0249,0.0,0.0,0.0,0.0,0.0,0.0,0.0,0.0,0.0,0.0,0.0,0.0,0.0,0.0,0.0,0.0,0.0,0.0,0.0,0.0,0.0,0.0,0.0,0.0,0.0,0.0,0.0,0.0,0.0,0.0,0.0,0.0,0.0,0.0,0.0,0.8038,0.8038,0.8038,0.8038,0.8038,0.8038,0.8038,0.7985,0.7955,0.7955,0.3397,0.317,0.6782,0.6788,0.4236,0.0,0.0,0.0,0.0,0.0,0.0,0.0,0.0,0.0,0.0,0.0,0.0,0.0,0.7767,0.7419,0.6011,0.1402,0.0,0.0,0.0,0.0,0.0,0.0,0.0,0.0,0.0,0.0,0.0,0.0,0.0,0.0,0.0,0.0,0.0,0.0,0.0,0.0,0.0,0.0,0.0,0.0,0.0,0.0,0.0,0.0,0.0,0.0,0.0,0.0,0.0,0.0,0.0,0.0,0.598,0.4606,0.5678,0.7361,0.6927,0.418,0.6922,0.6922,0.418,0.4481,0.436,0.4074,0.1264,0.0,0.0,0.0,0.0,0.0,0.0,0.0,0.0,0.0,0.0,0.0,0.0,0.0,0.0,0.0,0.0,0.0,0.0,0.0,0.0,0.0,0.0,0.0,0.0,0.0,0.0,0.0,0.0,0.0,0.0,0.0,0.0,0.0,0.0,0.8038,0.8038,0.8038,0.8038,0.8038,0.8019,0.7958,0.7958,0.7994,0.819,0.8334,0.2695,0.2881,0.8018,0.7951,0.5044,0.0,0.0,0.0,0.0302,0.0,0.0,0.0,0.0,0.0,0.0,0.0,0.0,0.0,0.0,0.8048,0.755,0.5143,0.0,0.0,0.0,0.0,0.0,0.0,0.0,0.0,0.0,0.2221,0.4347,0.0,0.0,0.0,0.0,0.0,0.0,0.0,0.0,0.0,0.0,0.0,0.0,0.0,0.0,0.0,0.0,0.0,0.0,0.0,0.0,0.0,0.0,0.0,0.0,0.0,0.0,0.7972,0.7863,0.9178,0.9105,0.7807,0.928,0.9255,0.7862,0.798,0.8044,0.7933,0.6293,0.4616,0.2804,0.0,0.0,0.0,0.0,0.0,0.0,0.0,0.0,0.0,0.0,0.0,0.0,0.0,0.0,0.0,0.0,0.0,0.0,0.0,0.0,0.0,0.0,0.0,0.0,0.0,0.0,0.0,0.0,0.0,0.0,0.0,0.0,0.8038,0.8038,0.8038,0.7959,0.7992,0.7998,0.8077,0.8213,0.8249,0.7687,0.6749,0.2097,0.2179,0.6215,0.7459,0.5044,0.0,0.0,0.0,0.0502,0.0,0.0,0.0,0.0,0.0,0.0,0.0,0.0,0.0,0.0,0.0,0.0,0.0,0.0,0.0,0.7932,0.5014,0.1706,0.11,0.0903,0.0806,0.0,0.0,0.0,0.0,0.0,0.0,0.0,0.0,0.0,0.0,0.0,0.0,0.0,0.0,0.0,0.0,0.0,0.0,0.0,0.0,0.0,0.0,0.0,0.0,0.0,0.0,0.0,0.0,0.0,1.0643,1.0404,1.0101,1.0015,1.0283,1.0181,1.0141,1.0287,1.031,1.0426,1.0637,1.0466,0.901,0.6402,0.3641,0.1551,0.0,0.0,0.0,0.0,0.0,0.0,0.0,0.0,0.0,0.0,0.0,0.0,0.0,0.0,0.0,0.0,0.0,0.0,0.0,0.0,0.0,0.0,0.0,0.0,0.0,0.0,0.0,0.0,0.0,0.0,0.8038,0.8038,0.8038,0.8006,0.8037,0.7948,0.8233,0.8793,0.8842,0.607,0.065,0.0214,0.021,0.0826,0.5809,0.5048,0.0,0.0,0.0,0.0501,0.5832,0.0,0.0,0.0,0.0,0.0,0.0,0.0,0.0,0.0,0.0,0.0,0.0,0.0,0.7938,0.766,0.7563,0.6924,0.443,0.3669,0.3112,0.0603,0.0,0.0,0.0,0.0,0.0,0.0,0.0,0.0,0.0,0.0,0.0,0.0,0.0,0.0,0.0,0.0,0.0,0.0,0.0,0.0,0.0,0.0,0.0,0.0,0.0,0.0,0.0,0.0,0.0,1.0493,1.0215,1.0134,1.0276,1.027,1.027,1.027,1.0412,1.0419,1.031,1.0595,1.0451,1.0088,0.9971,0.6201,0.0,0.0,0.0,0.0,0.0,0.0,0.0,0.0,0.0,0.0,0.0,0.0,0.0,0.0,0.0,0.0,0.0,0.0,0.0,0.0,0.0,0.0,0.0,0.0,0.0,0.0,0.0,0.0,0.0,0.8038,0.8038,0.8038,0.8038,0.8012,0.7948,0.8357,0.8632,0.8879,0.894,0.581,0.0,0.0,0.0,0.0103,0.2136,0.1913,0.0201,0.3525,0.4935,0.5122,0.7153,0.7959,0.0,0.0,0.0,0.0,0.0,0.0,0.0,0.0,0.7733,0.7706,0.7952,0.8028,0.7957,0.7865,0.7813,0.7653,0.6691,0.6515,0.6247,0.0,0.0,0.0,0.0,0.0,0.0,0.0,0.0,0.0,0.0,0.0,0.0,0.0,0.0,0.0,0.0,0.0,0.0,0.0,0.0,0.0,0.0,0.0,0.0,0.0,0.0,0.0,0.0,0.0,0.0,1.0636,1.0432,1.0399,1.0555,1.046,1.046,1.0555,1.0609,1.0609,1.0561,1.0677,1.067,1.0575,1.0717,0.9215,0.6469,0.427,0.3341,0.3195,0.0932,0.0,0.0529,0.5066,0.386,0.0,0.0,0.0,0.0,0.0,0.0,0.0,0.0,0.0,0.0,0.0,0.0,0.0,0.0,0.0,0.0,0.0,0.0,0.0,0.8011,0.8031,0.8038,0.8038,0.8038,0.7999,0.8024,0.8357,0.8673,0.8866,0.9062,0.598,0.0,0.0,0.0949,0.2482,0.0712,0.0504,0.1603,0.6057,0.7999,0.7972,0.7965,0.7952,0.0,0.0,0.0,0.0,0.0,0.0,0.0,0.0,0.7999,0.7984,0.7938,0.7923,0.797,0.797,0.7912,0.7846,0.7905,0.7932,0.7979,0.0,0.0,0.0,0.0,0.0,0.0,0.0,0.0,0.0,0.0,0.0,0.0,0.0,0.0,0.0,0.0,0.0,0.0,0.0,0.0,0.0,0.0,0.0,0.0,0.0,0.0,0.0,0.0,0.0,0.0,0.0,1.0568,1.0568,1.0717,1.0568,1.0568,1.0717,1.0717,1.0717,1.0717,1.0717,1.0717,1.0724,1.0738,1.0744,1.0485,0.8051,0.7111,0.6849,0.4294,0.2682,0.228,0.7273,0.6598,0.3222,0.0,0.0,0.0,0.0,0.0,0.0,0.0,0.0,0.0,0.0,0.0,0.0,0.0,0.0,0.0,0.0,0.0,0.0,0.7957,0.8004,0.8038,0.8038,0.8038,0.7979,0.7951,0.8024,0.8307,0.8932,0.9478,0.6443,0.0,0.0,0.2957,0.782,0.2443,0.1511,0.4218,0.6859,0.7985,0.7972,0.8045,0.8038,0.8024,0.0,0.0,0.0,0.0,0.0,0.0,0.0,0.7936,0.7834,0.7991,0.7936,0.7814,0.7814,0.7923,0.8004,0.7855,0.7923,0.0,0.0,0.0,0.0,0.0,0.0,0.0,0.0,0.0,0.0,0.0,0.0,0.0,0.0,0.0,0.0,0.0,0.0,0.0,0.0,0.0,0.0,0.0,0.0,0.0,0.0,0.0,0.0,0.0,0.0,0.0,0.0,1.0575,1.0568,1.0717,1.0568,1.0568,1.0717,1.0717,1.0717,1.0717,1.0717,1.0717,1.0717,1.0717,1.0731,1.0751,1.0751,1.0638,1.0672,1.0672,0.8611,0.5496,0.5496,0.7665,1.0257,0.0,0.0,0.0,0.0,0.0,0.0,0.0,0.0,0.0,0.0,0.0,0.0,0.0,0.0,0.0,0.0,0.0,0.0,0.8252,0.8004,0.8038,0.8038,0.8038,0.7952,0.7972,0.8405,0.873,0.8932,0.9127,0.6065,0.0107,0.3896,0.6448,0.7883,0.6385,0.5031,0.421,0.6848,0.7965,0.8052,0.8045,0.8038,0.8024,0.0,0.0,0.0,0.0,0.0,0.0,0.0,0.0,0.0,0.7991,0.8011,0.797,0.797,0.8004,0.8031,0.7984,0.8004,0.0,0.0,0.0,0.0,0.0,0.0,0.0,0.0,0.0,0.0,0.0,0.0,0.0,0.0,0.0,0.0,0.0,0.0,0.0,0.0,0.0,0.0,0.0,0.0,0.0,0.0,0.0,0.0,0.0,0.0,0.0,0.0,1.0677,1.0677,1.0717,1.0677,1.0677,1.0717,1.0717,1.0717,1.0717,1.0717,1.0717,1.0717,1.0717,1.0724,1.0731,1.0731,1.0738,1.0744,1.0765,1.0085,0.9128,0.9128,0.9825,1.0531,0.0,0.0,0.0,0.0,0.0,0.0,0.0,0.0,0.0,0.0,1.5127,0.0,0.0,0.0,0.0,0.0,0.0,0.0,0.0,0.8004,0.8038,0.8038,0.8018,0.8004,0.8004,0.846,0.8723,0.8765,0.8642,0.5656,0.0105,0.5525,0.7955,0.8012,0.7999,0.7054,0.5712,0.7353,0.7959,0.8038,0.8038,0.8038,0.8031,0.0,0.0,0.0,0.0,0.0,0.0,0.0,0.0,0.0,0.8011,0.8038,0.8038,0.8038,0.8038,0.8038,0.8038,0.0,0.0,0.0,0.0,0.0,0.0,0.0,0.0,0.0,0.0,0.0,0.0,0.0,0.0,0.0,0.0,0.0,0.0,0.0,0.0,0.0,0.0,0.0,0.0,0.0,0.0,0.0,0.0,0.0,0.0,0.0,0.0,0.0,1.0717,1.0717,1.0717,1.0717,1.0717,1.0717,1.0717,1.0717,1.0717,1.0717,1.0717,1.0717,1.0717,1.0717,1.0717,1.0717,1.0717,1.0724,1.0738,1.0738,1.0738,1.0738,1.0751,1.0632,0.0,0.0,1.4349,1.491,0.0,0.0,0.0,0.0,0.0,0.0,1.5832,1.5832,0.0,0.0,0.0,0.0,0.0,0.0,0.0,0.0,0.8343,0.8343,0.84,0.828,0.8096,0.8397,0.8536,0.8471,0.8203,0.5341,0.0513,0.5588,0.8037,0.7992,0.7985,0.7965,0.8038,0.7959,0.7959,0.8038,0.8038,0.8038,0.8038,0.8038,0.0,0.0,0.0,0.0,0.0,0.0,0.0,0.0,0.8038,0.8038,0.8038,0.8038,0.8038,0.8038,0.8038,0.0,0.0,0.0,0.0,0.0,0.0,0.0,0.0,0.0,0.0,0.0,0.0,0.0,0.0,0.0,0.0,0.0,0.0,0.0,0.0,0.0,0.0,0.0,0.0,0.0,0.0,0.0,0.0,0.0,0.0,0.0,0.0,1.0717,1.0717,1.0717,1.0717,1.0717,1.0717,0.0,1.0717,1.0717,1.0717,1.0717,1.0717,1.0717,1.0717,1.0717,1.0717,1.0717,1.0717,1.0717,1.0717,1.0717,1.0717,1.0717,1.0717,1.0717,0.0,0.0,1.4883,1.5244,0.0,0.0,0.0,0.0,0.0,0.0,0.0,0.0,0.0,0.0,0.0,0.0,0.0,0.0,0.0,0.9912,1.1067,1.1067,1.1297,1.0593,0.8706,0.8647,0.8522,0.8323,0.8131,0.6287,0.3224,0.6486,0.8012,0.7979,0.7959,0.8045,0.8038,0.8045,0.8045,0.8038,0.8038,0.8038,0.8038,0.8038,0.8038,0.0,0.0,0.0,0.0,0.0,0.0,0.0,0.8038,0.8038,0.8038,0.8038,0.8038,0.8038,0.0,0.0,0.0,0.0,0.0,0.0,0.0,0.0,0.0,0.0,0.0,0.0,0.0,0.0,0.0,0.0,0.0,0.0,0.0,0.0,0.0,0.0,0.0,0.0,0.0,0.0,0.0,0.0,0.0,0.0,1.0717,0.0,0.0,1.0717,1.0717,1.0717,1.0717,1.0717,1.0717,0.0,1.0717,1.0717,1.0717,1.0717,1.0717,1.0717,1.0717,1.0717,1.0717,1.0717,1.0717,1.0717,1.0717,1.0717,1.0717,1.0717,1.0717,1.0717,0.0,0.0,0.0,0.0,0.0,0.0,0.0,0.0,0.0,0.0,0.0,0.0,0.0,0.0,0.0,0.0,0.0,0.0,0.0,0.0,1.2464,1.3734,1.2453,1.1098,0.9694,0.8998,0.8377,0.816,0.811,0.734,0.5927,0.7353,0.7972,0.7972,0.8052,0.8038,0.8038,0.8038,0.8336,0.8924,0.8924,0.9312,0.9895,0.9895,0.9509,0.8924,0.8924,0.0,0.0,0.0,0.0,0.0,0.0,0.0,0.8038,0.8038,0.8038,0.8038,0.0,0.0,0.0,0.0,0.0,0.0,0.0,0.0,0.0,0.0,0.0,0.0,0.0,0.0,0.0,0.0,0.0,0.0,0.0,0.0,0.0,0.0,0.0,0.0,0.0,0.0,0.0,0.0,0.0,1.0717,1.0717,1.0717,1.0717,1.0717,1.0717,1.0717,1.0717,1.0717,1.0717,1.0717,1.0717,1.0717,1.0717,1.0717,1.0717,1.0717,1.0717,1.0717,1.0717,1.0717,1.0717,1.0717,1.0717,1.0717,1.0717,1.0717,1.0717,1.0717,0.0,0.0,0.0,0.0,0.0,0.0,0.0,0.0,0.0,0.0,0.0,0.0,0.0,0.0,0.0,0.0,0.0,0.0,0.0,0.0,0.0,1.5744,1.2819,1.1107,1.0913,0.9328,0.8323,0.8079,0.818,0.0,0.0,0.0,0.7965,0.7965,0.8045,0.8038,0.8038,0.8237,0.9023,0.9993,1.019,1.0974,1.1853,1.1658,1.0877,1.0002,0.9706,0.8924,0.8038,0.8038,0.0,0.0,0.0,0.0,0.8038,0.8038,0.8038,0.8038,0.0,0.0,0.0,0.0,0.0,0.0,0.0,0.0,0.0,0.0,0.0,0.0,0.0,0.0,0.0,0.0,0.0,0.0,0.0,0.0,0.0,0.0,0.0,0.0,0.0,0.0,0.0,0.0,0.0,1.0717,1.0717,1.0717,1.0717,1.0717,1.0717,1.0717,1.0717,1.0717,1.0717,1.0717,1.0717,1.0717,1.0717,1.0717,1.0717,1.0717,1.0717,1.0717,1.0717,1.0717,1.0717,1.0717,1.0717,1.0717,1.0717,1.0717,1.0717,1.0724,0.0,0.0,0.0,0.0,0.0,0.0,0.0,0.0,0.0,0.0,1.5805,0.0,0.0,1.5458,1.4309,1.1569,1.114,1.0573,0.9661,0.0,0.0,1.6122,1.3556,1.2143,1.2292,0.9658,0.8282,0.8241,0.0,0.0,0.0,0.0,0.0,0.8045,0.0,0.8038,0.8038,0.9213,0.9805,1.0092,1.117,1.1755,1.1755,1.0681,1.019,0.0,0.0,0.8137,0.8038,0.8038,0.8038,0.0,0.0,0.0,0.0,0.8038,0.8038,0.8038,0.0,0.0,0.0,0.0,0.0,0.0,0.0,0.0,0.0,0.0,0.0,0.0,0.0,0.0,0.0,0.0,0.0,0.0,0.0,0.0,0.0,0.0,0.0,0.0,0.0,0.0,0.0,0.0,1.0717,1.0717,1.0717,1.0717,1.0717,1.0717,1.0717,1.0717,1.0717,1.0717,1.0717,1.0717,1.0717,1.0717,1.0717,1.0717,1.0717,1.0717,1.0717,1.0717,1.0717,1.0717,1.0717,1.0717,1.0717,1.0717,1.0717,1.0717,1.0717,1.0738,0.0,0.0,0.0,0.0,0.0,0.0,0.0,0.0,0.0,0.0,0.0,1.5605,1.5631,1.5498,1.4587,1.2685,1.2363,1.221,1.1879,1.316,1.4508,1.5923,1.3464,1.2132,1.2233,0.9562,0.814,0.814,0.0,0.0,0.0,0.8038,0.8038,0.0,0.0,0.0,0.9114,0.0,1.0877,1.2231,1.2813,1.3499,1.398,0.0,0.0,0.0,0.0,0.0,0.0,0.0,0.0,0.0,0.0,0.0,0.0,0.0,0.0,0.0,0.8241,0.0,0.0,0.0,0.0,0.0,0.0,0.0,0.0,0.0,0.0,0.0,0.0,0.0,0.0,0.0,0.0,0.0,0.0,0.0,0.0,0.0,0.0,0.0,0.0,0.0,0.0,0.0,1.0717,1.0717,1.0717,1.0717,1.0717,1.0717,1.0717,1.0717,1.0717,1.0717,1.0717,1.0717,1.0717,1.0717,1.0717,1.0717,1.0717,1.0717,1.0717,1.0717,1.0717,1.0717,1.0717,1.0717,1.0717,1.0717,1.0717,1.0717,1.0772,1.086,0.0,0.0,0.0,0.0,0.0,0.0,0.0,0.0,0.0,0.0,0.0,1.5484,1.5698,0.0,0.0,0.0,1.303,1.3053,1.3368,1.3956,1.4779,1.5724,1.3307,1.195,1.195,0.9312,0.8038,0.0,0.0,0.0,0.8038,0.8038,0.8038,0.0,0.8038,0.0,0.0,0.0,0.0,0.0,0.0,1.4949,1.5737,0.0,0.0,0.0,0.0,0.0,0.0,0.0,0.0,0.0,0.0,0.0,0.0,0.0,0.0,0.0,0.0,0.0,0.0,0.0,0.0,0.0,0.0,0.0,0.0,0.0,0.0,0.0,0.0,0.0,0.0,0.0,0.0,0.0,0.0,0.0,0.0,0.0,0.0,0.0,0.0,0.0,0.0,0.0,1.0717,1.0717,1.0717,1.0717,1.0717,1.0717,1.0717,1.0717,1.0717,1.0717,1.0717,1.0717,1.0717,1.0717,1.0717,1.0717,1.0717,1.0717,1.0717,1.0717,1.0717,1.0717,1.0717,1.0717,1.0717,1.0717,1.0717,1.0717,1.0819,1.0955,0.0,0.0,0.0,0.0,0.0,0.0,0.0,0.0,0.0,0.0,0.0,1.5404,1.5418,1.5164,1.441,1.2957,1.2657,1.2866,1.3356,1.4638,1.5445,1.5818,1.3307,0.0,1.195,0.9312,0.0,0.0,0.0,0.0,0.8038,0.8038,0.8038,0.8038,0.8038,0.8726,1.01,0.0,0.0,0.0,1.5235,1.5737,0.0,0.0,0.0,0.0,0.0,0.0,0.0,0.0,0.0,0.0,0.0,0.0,0.0,0.0,0.0,0.0,0.0,0.0,0.0,0.0,0.0,0.0,0.0,0.0,0.0,0.0,0.0,0.0,0.0,0.0,0.0,0.0,0.0,0.0,0.0,0.0,0.0,0.0,0.0,0.0,0.0,0.0,0.0,0.0,1.0717,1.0717,1.0717,1.0717,1.0717,1.0717,1.0717,1.0717,1.0717,1.0717,1.0717,1.0717,1.0717,1.0717,1.0717,1.0717,1.0717,1.0717,1.0717,1.0717,1.0717,1.0717,1.0717,1.0717,1.0717,1.0717,1.0717,1.0717,1.0819,1.0968,0.0,0.0,0.0,0.0,0.0,0.0,0.0,0.0,0.0,0.0,0.0,0.0,0.0,1.5137,1.4652,1.3999,1.4052,1.4321,1.4705,1.5284,1.5725,1.5832,1.3307,1.195,1.195,0.9312,0.0,0.0,0.0,0.8428,0.9312,0.8428,0.8038,0.8038,0.8924,0.9993,1.1268,1.2619,0.0,0.0,1.5629,1.5832,1.5737,0.0,0.0,0.0,0.0,0.0,0.0,0.0,0.0,0.0,0.0,0.0,0.0,0.0,0.0,0.0,0.0,0.0,0.0,0.0,0.0,0.0,0.0,0.0,0.0,0.0,0.0,0.0,0.0,0.0,0.0,0.0,0.0,0.0,0.0,0.0,0.0,0.0,0.0,0.0,0.0,0.0,0.0,0.0,0.0,1.0717,1.0717,1.0717,1.0717,1.0717,1.0717,1.0717,1.0717,1.0717,1.0717,1.0717,1.0717,1.0717,1.0717,1.0717,1.0717,1.0717,1.0717,1.0717,1.0717,1.0717,1.0717,1.0717,1.0717,1.0717,1.0717,1.0717,1.0873,1.109,0.0,0.0,0.0,0.0,0.0,0.0,0.0,0.0,0.0,0.0,0.0,0.0,0.0,0.0,1.499,1.4696,1.4843,1.5084,1.5378,1.5578,1.5725,1.5832,1.3307,1.2145,1.2522,0.0,0.0,0.0,0.0,0.0,0.0,0.8627,0.8237,0.8726,1.0092,1.1072,0.0,0.0,0.0,1.5832,0.0,1.5832,1.5832,0.0,0.0,0.0,0.0,0.0,0.0,0.0,0.0,0.0,0.0,0.0,0.0,0.0,0.0,0.0,0.0,0.0,0.0,0.0,0.0,0.0,0.0,0.0,0.0,0.0,0.0,0.0,0.0,0.0,0.0,0.0,0.0,0.0,0.0,0.0,0.0,0.0,0.0,0.0,0.0,0.0,0.0,0.0,0.0,0.0,1.0717,1.0717,1.0717,1.0717,1.0717,1.0717,1.0717,1.0717,1.0717,1.0717,1.0717,1.0717,1.0717,1.0717,1.0717,1.0717,1.0717,1.0717,1.0717,1.0717,1.0717,1.0717,1.0717,1.0751,1.0799,1.0799,1.0982,1.124,0.0,0.0,0.0,0.0,0.0,0.0,0.0,0.0,0.0,1.5391,0.0,0.0,0.0,0.0,0.0,1.5003,1.4977,1.5097,1.5391,1.5404,1.5538,1.5818,1.3307,1.2522,1.3872,0.0,0.0,0.0,0.0,0.0,0.0,0.0,0.8726,1.0092,1.1365,1.195,1.2047,0.0,1.4663,1.5832,0.0,1.5832,1.5832,0.0,0.0,0.0,1.5832,1.5832,0.0,0.0,0.0,0.0,0.0,0.0,0.0,0.0,0.0,0.0,0.0,0.0,0.0,0.0,0.0,0.0,1.1628,0.0,1.2971,0.0,0.0,0.0,0.0,0.0,0.0,0.0,0.0,0.0,0.0,0.0,0.0,0.0,0.0,0.0,0.0,0.0,0.0,0.0,1.0717,1.0717,1.0717,1.0717,1.0717,1.0717,1.0717,1.0717,1.0717,1.0717,1.0717,1.0717,1.0717,1.0717,1.0717,1.0717,1.0717,1.0717,1.0717,1.0717,1.0717,1.0717,1.0717,1.0717,1.0717,1.0812,1.0948,1.0948,1.1138,1.1389,0.0,0.0,0.0,0.0,0.0,0.0,1.5444,1.5391,1.5391,0.0,0.0,0.0,0.0,1.5257,1.5137,1.5271,1.5284,1.5404,1.5698,1.5712,1.5752,1.5832,1.4172,1.3488,1.3872,0.0,0.0,0.0,0.0,0.0,0.0,0.0,0.0,0.0,1.2328,1.3392,1.3392,1.4758,0.0,0.0,1.5832,1.5832,0.0,0.0,0.0,0.0,0.0,1.5832,0.0,0.0,1.5534,1.5248,0.0,0.0,0.0,0.0,0.0,0.0,1.2608,0.0,0.0,0.0,0.0,0.0,1.3733,1.4503,1.5468,0.0,0.0,0.0,0.0,0.0,0.0,0.0,0.0,0.0,0.0,0.0,0.0,0.0,0.0,0.0,0.0,0.0,0.0,0.0,1.0717,1.0717,1.0717,1.0717,1.0717,1.0717,1.0717,1.0717,1.0717,1.0717,1.0717,1.0717,1.0717,1.0717,1.0717,1.0717,1.0717,1.0717,1.0717,1.0717,1.0717,1.0717,1.0717,1.0717,1.0717,1.0812,1.0948,1.0948,1.1138,1.1389,0.0,0.0,1.5832,1.5832,0.0,1.5765,1.5605,1.5578,1.5578,0.0,0.0,0.0,0.0,0.0,1.5391,1.5565,1.5578,1.5645,1.5818,1.5832,1.5832,1.5832,1.4555,1.4172,1.4651,0.0,0.0,0.0,0.0,0.0,0.0,0.0,0.0,0.0,1.3199,0.0,0.0,0.0,0.0,0.0,1.5832,0.0,0.0,1.5832,1.5832,0.0,0.0,0.0,1.5832,1.5832,1.5832,0.0,0.0,0.0,0.0,0.0,0.0,0.0,0.0,0.0,0.0,0.0,0.0,0.0,1.3987,1.4559,1.5217,0.0,0.0,0.0,0.0,0.0,0.0,0.0,0.0,0.0,0.0,0.0,0.0,0.0,0.0,0.0,0.0,1.1213,1.0812,1.0812,1.0758,1.0717,1.0717,1.0717,1.0717,1.0717,1.0717,1.0717,1.0717,1.0717,1.0717,1.0717,1.0717,1.0717,1.0717,1.0717,1.0717,1.0717,1.0717,1.0717,1.0717,1.0717,1.0717,1.0717,1.0717,1.0853,1.1036,1.1036,1.1226,1.1484,0.0,0.0,1.5832,1.5832,1.5832,1.5832,1.5832,1.5832,1.5832,0.0,1.5832,1.5832,0.0,0.0,1.5832,1.5832,1.5832,1.5832,1.5832,1.5832,1.5832,1.5832,1.4758,1.4651,1.5737,1.4651,1.4663,0.0,0.0,0.0,0.0,0.0,0.0,0.0,1.4064,1.4758,0.0,0.0,0.0,1.5832,1.5832,1.5832,0.0,0.0,1.5832,0.0,1.5832,1.5832,1.5832,1.5832,1.5832,0.0,0.0,0.0,0.0,0.0,1.4064,0.0,0.0,0.0,0.0,0.0,0.0,0.0,1.347,1.3516,1.3997,1.6668,0.0,0.0,0.0,0.0,0.0,0.0,0.0,0.0,0.0,0.0,0.0,0.0,0.0,0.0,1.3737,1.2277,1.1205,1.1191,1.0932,1.0717,1.0717,1.0717,1.0717,1.0717,1.0717,1.0717,1.0717,1.0717,1.0717,1.0717,1.0717,1.0717,1.0717,1.0717,1.0717,1.0717,1.0717,1.0717,1.0717,1.0717,1.0731,1.0744,1.0744,1.0928,1.1185,1.1185,1.1369,1.1619,1.5818,1.5832,1.5832,1.5832,1.5832,1.5832,1.5832,1.5832,1.5832,1.5832,1.5832,0.0,0.0,0.0,1.5832,1.5832,1.5832,1.5832,1.5832,1.5832,1.5832,1.5832,1.5534,1.5534,1.5832,1.5534,1.5534,1.5832,0.0,0.0,0.0,0.0,0.0,0.0,1.4949,1.5534,0.0,0.0,0.0,1.5832,1.5832,0.0,1.5832,1.5832,1.5832,1.5832,1.5832,1.5832,1.5832,0.0,1.5832,1.5832,0.0,0.0,0.0,0.0,0.0,0.0,0.0,0.0,0.0,0.0,0.0,0.0,1.5744,1.6215,1.6753,0.0,1.8542,0.0,0.0,0.0,0.0,0.0,0.0,0.0,0.0,0.0,0.0,0.0,0.0,0.0,1.5737,1.4263,1.3144,1.2865,1.1519,1.0717,1.0717,1.0717,1.0717,1.0717,1.0717,1.0717,1.0717,1.0717,1.0717,1.0717,1.0717,1.0717,1.0717,1.0717,1.0717,1.0717,1.0717,1.0717,1.0717,1.0717,1.0792,1.0907,1.0907,1.1084,1.1348,1.1348,1.1463,1.1633,1.5832,1.5832,1.5832,1.5832,1.5832,1.5832,1.5832,1.5832,1.5832,1.5832,1.5832,0.0,0.0,0.0,0.0,1.5832,1.5832,1.5832,1.5832,1.5832,1.5832,1.5832,1.5832,1.5832,1.5832,1.5832,1.5832,1.5832,0.0,0.0,0.0,0.0,0.0,0.0,0.0,0.0,0.0,0.0,1.5832,1.5832,1.5832,0.0,1.5832,1.5832,1.5832,1.5832,1.5832,1.5832,1.5832,1.5832,1.5925,0.0,0.0,1.5925,1.6019,0.0,1.5832,1.5858,0.0,0.0,0.0,1.6064,0.0,0.0,0.0,1.7048,1.7408,1.8303,1.849,1.8242,0.0,0.0,0.0,0.0,0.0,0.0,0.0,0.0,0.0,0.0,0.0,0.0,1.763,1.5347,1.362,1.3341,1.163,1.0717,1.0717,1.0717,1.0717,1.0717,1.0717,1.0717,1.0717,1.0717,1.0717,1.0717,1.0717,1.0717,1.0717,1.0717,1.0717,1.0717,1.0717,1.0717,1.0717,1.0717,1.0853,1.105,1.0975,1.1131,1.1389,1.1389,1.1531,1.1735,1.5832,1.5832,1.5832,1.5832,1.5832,1.5832,1.5832,1.5832,1.5832,1.5832,0.0,0.0,0.0,0.0,0.0,0.0,0.0,1.5832,0.0,0.0,1.5805,1.5752,1.5805,1.5805,1.5752,1.5805,1.5832,1.5832,1.5832,0.0,0.0,0.0,0.0,0.0,0.0,0.0,0.0,0.0,0.0,1.5832,0.0,1.5832,1.5832,1.5832,1.5832,1.5832,1.5832,1.5832,1.5832,1.5899,0.0,1.6246,1.6059,1.6126,0.0,0.0,0.0,0.0,0.0,0.0,0.0,0.0,0.0,1.6994,0.0,0.0,0.0,1.7929,0.0,0.0,0.0,0.0,0.0,0.0,0.0,0.0,0.0,0.0,0.0,0.0,0.0,0.0,0.0,1.5942,1.3906,1.3341,1.2025,1.1108,1.0717,1.0717,1.0717,1.0717,1.0717,1.0717,1.0717,1.0717,1.0717,1.0717,1.0717,1.0717,1.0717,1.0717,1.0717,1.0717,1.0717,1.0717,1.0724,1.0751,1.0921,1.1151,1.1036,1.1172,1.1436,1.1463,1.1626,1.1837,1.5832,1.5832,1.5832,1.5832,1.5832,1.5832,1.5832,1.5832,1.5832,1.5832,1.5832,0.0,0.0,0.0,0.0,0.0,0.0,0.0,1.5832,0.0,0.0,1.5458,1.5698,1.5712,1.5444,1.5698,1.5832,1.5832,1.5832,1.5832,0.0,0.0,0.0,0.0,1.5832,0.0,0.0,0.0,1.5832,0.0,1.5832,1.5832,0.0,1.5832,1.5832,1.5832,1.5832,1.5832,1.5872,0.0,1.6246,1.6313,0.0,1.6446,0.0,0.0,0.0,0.0,0.0,0.0,0.0,0.0,1.7502,0.0,0.0,0.0,1.7635,1.7969,0.0,0.0,0.0,0.0,0.0,0.0,0.0,0.0,0.0,0.0,0.0,0.0,0.0,0.0,0.0,1.6105,1.5062,1.3456,1.3062,1.2281,1.0717,1.0717,1.0717,1.0717,1.0717,1.0717,1.0717,1.0717,1.0717,1.0717,1.0717,1.0717,1.0717,1.0717,1.0717,1.0717,1.0717,1.0717,1.0731,1.0867,1.1016,1.1158,1.1145,1.1321,1.1606,1.1735,1.1803,1.187,1.5832,1.5832,1.5832,1.5832,1.5832,1.5832,1.5832,1.5832,1.5885,1.6059,0.0,0.0,0.0,0.0,0.0,0.0,0.0,0.0,0.0,0.0,0.0,1.5658,1.5765,0.0,1.5645,1.5765,1.5832,1.5832,1.5832,1.5832,1.5832,0.0,0.0,0.0,1.5832,0.0,1.5832,0.0,0.0,0.0,0.0,0.0,0.0,1.5832,1.5832,1.5832,1.5832,1.5832,1.5845,0.0,1.6246,0.0,0.0,0.0,0.0,0.0,0.0,0.0,0.0,0.0,0.0,0.0,0.0,0.0,0.0,0.0,1.7675,0.0,0.0,0.0,0.0,0.0,0.0,0.0,0.0,0.0,0.0,0.0,0.0,0.0,0.0,0.0,0.0,0.0,0.0,0.0,1.3325,1.2545,1.085,1.0717,1.0717,1.0717,1.0717,1.0717,1.0717,1.0717,1.0717,1.0717,1.0717,1.0717,1.0717,1.0717,1.0717,1.0717,1.0717,1.0772,1.086,1.0921,1.1084,1.1294,1.1294,1.143,1.164,1.1775,1.1884,1.1993,1.5832,0.0,0.0,0.0,0.0,1.5832,1.5832,1.5832,0.0,0.0,0.0,0.0,1.6647,1.6259,0.0,0.0,0.0,1.5832,0.0,0.0,1.5792,0.0,0.0,0.0,0.0,0.0,1.5832,1.5832,1.5832,1.5832,1.5832,0.0,0.0,0.0,0.0,1.5912,1.5832,0.0,0.0,1.5832,1.5912,1.5952,1.5939,1.5858,1.5832,1.5832,1.5832,1.5832,1.5845,1.5925,1.6233,0.0,1.6179,0.0,0.0,0.0,0.0,0.0,1.7983,0.0,0.0,0.0,0.0,0.0,0.0,0.0,0.0,0.0,0.0,0.0,0.0,0.0,0.0,0.0,0.0,0.0,0.0,0.0,0.0,0.0,0.0,0.0,0.0,0.0,0.0,0.0,0.0,1.2751,1.1497,1.0941,1.0677,1.0717,1.0717,1.0717,1.0717,1.0717,1.0717,1.0717,1.0717,1.0717,1.0717,1.0717,1.0717,1.0724,1.0765,1.0846,1.0955,1.1036,1.1199,1.1396,1.1436,1.1545,1.1694,1.1843,1.1993,1.2149,1.5832,1.5832,0.0,0.0,0.0,0.0,0.0,0.0,0.0,0.0,0.0,0.0,0.0,0.0,0.0,0.0,0.0,1.5832,1.5832,0.0,1.5698,0.0,0.0,0.0,0.0,0.0,0.0,1.5832,1.5832,1.5832,0.0,0.0,0.0,0.0,0.0,1.6099,1.5845,1.6139,1.6086,1.5858,1.6139,1.6259,1.6233,0.0,1.5832,1.5832,1.5832,0.0,0.0,1.6166,1.6273,0.0,0.0,0.0,0.0,0.0,0.0,0.0,0.0,0.0,0.0,0.0,0.0,0.0,0.0,0.0,1.8384,0.0,0.0,0.0,0.0,0.0,0.0,0.0,0.0,0.0,0.0,0.0,0.0,0.0,0.0,0.0,0.0,0.0,0.0,0.0,0.0,0.0,1.3185,1.1482,1.0568,1.0717,1.0717,1.0717,1.0717,1.0717,1.0717,1.0717,1.0717,1.0717,1.0717,1.0717,1.0717,1.0731,1.0873,1.0941,1.0968,1.126,1.1382,1.1402,1.1552,1.1701,1.1843,1.1999,1.2149,1.2305,0.0,0.0,0.0,0.0,0.0,0.0,0.0,1.5832,0.0,0.0,0.0,0.0,0.0,0.0,1.6553,0.0,0.0,1.6046,1.5845,1.6019,0.0,0.0,0.0,1.6179,0.0,0.0,0.0,0.0,0.0,0.0,1.6112,0.0,0.0,0.0,0.0,1.5925,0.0,0.0,0.0,0.0,0.0,1.6393,1.6513,0.0,0.0,1.5832,1.5832,1.5832,0.0,1.5939,1.6112,1.6259,1.6152,1.6326,1.6593,1.6794,1.7128,0.0,0.0,0.0,1.837,1.8464,0.0,0.0,0.0,0.0,0.0,0.0,0.0,0.0,0.0,0.0,0.0,0.0,0.0,0.0,0.0,0.0,1.7255,0.0,0.0,0.0,0.0,0.0,0.0,0.0,0.0,0.0,0.0,1.3778,1.2996,1.0717,1.1762,1.1894,1.0717,1.0717,1.0717,1.0717,1.0717,1.0717,1.0717,1.0717,1.0717,1.0731,1.088,1.1002,1.1104,1.1307,1.145,1.1545,1.1599,1.1769,1.1993,1.204,1.2155,1.2311,1.6871,0.0,0.0,0.0,0.0,0.0,0.0,0.0,0.0,0.0,1.6633,0.0,1.7515,0.0,1.686,0.0,1.65,1.6233,1.6152,1.6126,0.0,1.5992,1.6246,0.0,0.0,0.0,0.0,0.0,0.0,1.6233,0.0,0.0,0.0,0.0,0.0,0.0,0.0,0.0,1.646,0.0,0.0,1.654,0.0,0.0,1.5992,1.5979,0.0,1.5832,1.5832,1.5832,1.5952,1.6086,1.5885,1.6086,1.642,1.6526,1.6887,1.7355,1.7756,1.8023,0.0,1.8437,1.8277,0.0,1.8183,0.0,0.0,0.0,0.0,0.0,0.0,0.0,0.0,0.0,0.0,0.0,0.0,1.7806,0.0,0.0,0.0,0.0,0.0,0.0,0.0,0.0,0.0,0.0,0.0,0.0,1.3604,1.0767,1.1732,1.1894,1.0717,1.0717,1.0717,1.0717,1.0717,1.0717,1.0724,1.0778,1.0799,1.0812,1.1016,1.1158,1.1253,1.1409,1.1531,1.1619,1.1619,1.1803,1.206,1.206,1.2189,1.2379,0.0,0.0,0.0,0.0,1.5845,0.0,0.0,0.0,1.6406,0.0,1.6994,1.7288,1.7569,1.7341,1.7168,1.7154,1.6633,0.0,1.6673,1.6179,0.0,0.0,1.6005,1.5858,1.5832,0.0,0.0,0.0,0.0,0.0,0.0,0.0,0.0,0.0,1.6593,0.0,1.5912,1.6794,1.6847,1.6366,1.6607,1.6714,1.6687,1.638,0.0,1.6233,1.5939,1.5832,1.5832,1.5832,1.5832,1.5832,1.5832,1.5845,1.5912,1.6192,1.6486,1.6847,1.7408,1.8009,1.8477,1.849,0.0,0.0,0.0,0.0,1.9372,0.0,0.0,0.0,0.0,0.0,0.0,0.0,0.0,0.0,0.0,0.0,0.0,0.0,0.0,0.0,0.0,0.0,0.0,0.0,0.0,0.0,0.0,0.0,1.266,1.076,1.1038,1.0982,1.085,1.085,1.085,1.0717,1.0717,1.0724,1.0738,1.088,1.0955,1.0975,1.1267,1.1389,1.1402,1.1558,1.1619,1.1619,1.1626,1.1809,1.2074,1.2081,1.2264,1.2515,1.7059,1.6661,1.6152,0.0,1.5979,1.5979,0.0,0.0,0.0,0.0,1.7422,1.7582,1.7889,1.7649,1.7382,1.7271,1.7007,0.0,0.0,0.0,0.0,1.5952,1.6286,1.6273,1.5845,1.6326,0.0,1.6273,0.0,0.0,1.67,0.0,0.0,0.0,0.0,0.0,1.6219,1.7101,1.7382,1.7208,1.6847,1.6834,0.0,0.0,1.6086,1.6233,1.5939,1.5832,1.5832,1.5832,1.5832,1.5832,1.5832,1.5979,1.6179,1.6246,1.6633,1.7074,1.7221,1.7702,1.821,1.8437,1.8544,1.8637,0.0,0.0,0.0,0.0,0.0,0.0,0.0,0.0,0.0,0.0,0.0,0.0,0.0,0.0,0.0,0.0,0.0,0.0,0.0,0.0,0.0,0.0,0.0,0.0,0.0,0.0,0.0,1.466,1.5754,1.5265,1.2676,1.2676,1.2025,1.0717,1.0717,1.0778,1.0894,1.0928,1.1009,1.1118,1.1307,1.1389,1.1402,1.1558,1.1619,1.1633,1.1735,1.1965,1.2244,1.2352,1.2508,1.2671,1.7056,0.0,0.0,1.6633,0.0,0.0,1.6948,0.0,0.0,1.7528,1.7702,0.0,1.8023,1.8009,1.7916,1.7756,1.7488,0.0,0.0,0.0,0.0,1.642,1.6473,1.642,1.6219,1.6406,0.0,1.666,0.0,0.0,1.7088,1.6954,0.0,0.0,0.0,1.7483,0.0,1.7626,1.7662,1.7729,1.7141,0.0,0.0,1.6259,1.6046,1.6072,1.6032,1.5939,1.5832,1.5832,1.5912,1.6019,1.6019,1.6233,1.6486,1.662,1.6887,1.7208,1.7475,1.7889,1.8317,1.8611,1.8784,1.8918,1.9078,1.9239,1.9399,0.0,0.0,0.0,0.0,0.0,0.0,0.0,0.0,0.0,0.0,0.0,0.0,0.0,0.0,0.0,0.0,0.0,0.0,0.0,0.0,0.0,0.0,0.0,0.0,1.5757,1.6043,1.5361,1.3325,1.2624,1.1703,1.0717,1.0785,1.0867,1.0955,1.1084,1.1185,1.1274,1.1423,1.1491,1.1504,1.1653,1.1708,1.1735,1.1945,1.2176,1.2393,1.2474,1.2596,1.2732,0.0,0.0,0.0,0.0,0.0,0.0,0.0,1.7729,0.0,1.802,0.0,1.8156,1.8156,1.8357,1.849,1.849,0.0,1.7742,1.7969,1.7221,1.686,1.7088,1.6607,1.6446,1.67,1.65,0.0,0.0,0.0,0.0,1.7515,1.7315,0.0,0.0,0.0,0.0,0.0,1.7984,1.7716,0.0,1.7355,1.6994,1.6727,1.6433,1.6166,1.5979,1.6233,1.6112,1.5832,1.5872,1.6059,1.6273,1.6273,1.65,1.6807,1.7074,1.7208,1.7382,1.7903,1.829,1.8611,1.8865,1.9145,1.9372,1.9372,1.9372,1.9452,1.9733,1.9573,1.9533,0.0,0.0,0.0,0.0,0.0,0.0,0.0,0.0,0.0,0.0,0.0,0.0,0.0,0.0,0.0,0.0,0.0,0.0,0.0,0.0,0.0,1.5763,1.4782,1.3944,1.3434,0.0,1.1184,1.0812,1.0921,1.0989,1.1016,1.1274,1.1402,1.143,1.1579,1.1647,1.166,1.1803,1.187,1.1918,1.2189,1.2379,1.2501,1.2501,1.261,1.2759,0.0,0.0,0.0,0.0,0.0,2.181,2.1787,2.0773,2.0141,2.0464,1.9487,0.0,1.8771,1.8597,1.849,1.849,1.817,0.0,0.0,0.0,0.0,1.6794,1.6687,1.666,1.67,1.6901,1.7048,0.0,0.0,0.0,0.0,0.0,0.0,0.0,0.0,0.0,1.7921,1.766,0.0,1.7301,1.7194,1.7114,1.7034,1.674,1.6593,1.6553,1.6607,1.6286,1.5872,1.6112,1.6233,1.6273,1.6273,1.6647,1.7088,1.7141,1.7488,1.7889,1.8009,1.8437,1.8865,1.8905,1.9145,1.9372,1.9372,1.9372,1.9452,1.9733,1.9573,1.9466,1.9813,0.0,0.0,0.0,0.0,0.0,0.0,0.0,0.0,0.0,0.0,0.0,0.0,0.0,0.0,0.0,0.0,0.0,0.0,0.0,0.0,0.0,1.7904,0.0,0.0,0.0,1.2674,1.1274,1.1172,1.1192,1.1314,1.1369,1.1457,1.1586,1.1735,1.1796,1.1809,1.1959,1.2094,1.2216,1.2271,1.2379,1.2501,1.2501,1.2678,1.2922,0.0,0.0,0.0,0.0,0.0,0.0,0.0,2.4132,0.0,2.1329,2.055,1.9794,1.9031,1.8931,1.8945,1.8945,1.8677,1.8437,1.829,1.8009,1.7716,1.7408,1.7395,0.0,1.7395,0.0,1.7382,1.7849,0.0,0.0,0.0,0.0,0.0,1.9179,0.0,1.8517,0.0,0.0,0.0,1.7836,1.7675,1.7515,1.7341,1.7048,1.6834,1.6727,1.6874,1.666,1.6299,1.6446,1.6593,1.6727,1.6727,1.7021,1.7408,1.7569,1.7809,1.8103,1.841,1.8704,1.8958,1.9118,1.9265,1.9372,1.9372,1.9372,1.9412,1.9546,1.9466,1.9452,1.9746,1.9679,0.0,0.0,0.0,0.0,0.0,0.0,0.0,0.0,0.0,0.0,0.0,0.0,0.0,0.0,0.0,0.0,0.0,0.0,0.0,0.0,0.0,0.0,0.0,0.0,0.0,1.2789,1.1831,1.1321,1.1396,1.147,1.1592,1.1735,1.1803,1.1877,1.1965,1.2115,1.2311,1.2508,1.2433,1.2583,1.2834,1.2678,1.2861,1.3166,0.0,2.0711,0.0,0.0,2.3928,0.0,2.6532,2.6995,2.5993,2.2479,2.1632,2.0856,1.9314,1.9412,1.9533,1.9466,1.9185,1.8985,1.8931,1.8651,1.8384,1.8156,1.8143,1.8143,1.8143,1.7609,1.7662,0.0,0.0,0.0,0.0,0.0,0.0,0.0,0.0,0.0,0.0,0.0,1.8183,1.8384,1.821,1.7996,1.7756,1.7528,1.7288,1.7101,1.7275,1.7235,1.7074,1.7007,1.7061,1.7154,1.7221,1.7448,1.7742,1.805,1.8183,1.833,1.8798,1.8971,1.9092,1.9386,1.9466,1.9479,1.9533,1.9546,1.9533,1.9466,1.9466,1.9533,1.976,1.9853,0.0,0.0,0.0,0.0,0.0,0.0,0.0,0.0,0.0,0.0,0.0,0.0,0.0,0.0,0.0,0.0,0.0,0.0,0.0,0.0,0.0,1.8974,1.8604,0.0,1.4849,0.0,1.292,1.1995,1.2002,1.1736,1.1728,1.1837,1.1898,1.2013,1.2162,1.2284,1.2474,1.2671,1.2583,1.2766,1.3051,1.2854,1.3024,1.3315,0.0,0.0,0.0,0.0,0.0,0.0,0.0,2.8622,2.8202,2.4994,2.338,2.186,2.0227,2.0134,2.004,1.9786,1.9492,1.9212,1.8945,1.8651,1.8477,1.845,1.845,1.845,1.845,1.813,1.7862,0.0,0.0,0.0,0.0,0.0,0.0,0.0,0.0,0.0,0.0,1.7822,1.8063,1.8103,1.8343,1.8437,1.8397,1.837,1.8343,1.829,1.805,1.8116,1.8277,1.8009,1.7582,1.7194,1.7462,1.7756,1.8063,1.8357,1.8637,1.8851,1.8905,1.9118,1.9399,1.9693,1.976,1.9826,2.0094,2.0147,2.008,1.9813,1.976,1.9773,1.98,2.0013,2.0107,0.0,0.0,0.0,0.0,0.0,0.0,0.0,0.0,0.0,0.0,0.0,0.0,0.0,0.0,0.0,0.0,0.0,0.0,1.8593,0.0,1.8541,1.7147,1.7057,0.0,1.7196,1.5044,1.4123,1.4131,1.246,1.1816,1.1843,1.2128,1.2332,1.2461,1.2474,1.2501,1.2535,1.2657,1.2732,1.2786,1.2895,1.3051,1.3193,0.0,0.0,0.0,0.0,0.0,0.0,0.0,2.9609,2.9203,2.7317,2.5293,2.3047,2.047,2.0227,2.0187,2.0067,1.996,1.976,1.9466,1.9345,1.9118,1.8771,1.8918,1.8931,1.8758,1.8637,1.8517,0.0,0.0,0.0,0.0,0.0,0.0,0.0,0.0,1.9582,1.9305,1.8632,1.841,1.8597,1.8905,1.8905,1.8744,1.8744,1.8637,1.8477,1.8357,1.8397,1.8477,1.8357,1.8036,1.7742,1.8036,1.809,1.8143,1.8611,1.8838,1.8958,1.9145,1.9399,1.9653,1.9773,1.9933,2.0094,2.0214,2.0227,2.0201,2.008,2.0201,2.0321,2.0321,2.0414,2.0454,0.0,0.0,0.0,0.0,0.0,0.0,0.0,0.0,0.0,0.0,0.0,0.0,0.0,0.0,0.0,0.0,0.0,0.0,1.9916,0.0,2.0435,1.9999,1.9495,1.9193,1.9293,1.6327,1.477,1.477,1.2816,1.202,1.2121,1.2325,1.2447,1.2508,1.2603,1.2691,1.2786,1.2847,1.2976,1.3139,1.32,1.3322,1.3458,2.6051,0.0,2.6417,0.0,2.821,2.9121,2.9883,3.0234,2.9737,2.7736,2.6185,2.4158,2.1446,2.0726,2.0454,2.0374,2.0361,2.0241,1.9947,1.984,1.9653,1.9319,1.9345,0.0,1.9185,1.9011,1.8878,1.8798,1.9015,0.0,0.0,0.0,0.0,0.0,2.0585,2.0255,2.0614,1.9223,1.8784,1.9078,1.9279,1.9239,1.9052,1.9052,1.8931,1.8731,1.8651,1.8677,1.8731,1.8651,1.8477,1.8343,1.8544,1.8477,1.841,1.8905,1.9118,1.9225,1.9439,1.9706,1.9947,2.004,2.0214,2.0388,2.0468,2.0494,2.0468,2.0374,2.0535,2.0681,2.0681,2.0748,2.0775,2.0695,0.0,0.0,0.0,0.0,0.0,0.0,0.0,1.9078,1.8824,0.0,0.0,0.0,0.0,0.0,0.0,0.0,0.0,0.0,0.0,0.0,0.0,2.1685,2.1346,2.142,1.7689,1.5865,1.5865,1.329,1.2237,1.2427,1.2528,1.2596,1.2644,1.2752,1.2861,1.2963,1.301,1.3152,1.3342,1.3437,1.3539,1.3648,2.7656,2.832,2.8906,2.8906,2.9609,3.0039,2.9648,3.0332,2.9498,2.5846,2.5753,2.5359,2.3683,2.209,2.0989,2.0695,2.0668,2.0548,2.0254,1.996,1.992,0.0,0.0,1.9506,1.9786,1.9225,1.8784,1.849,0.0,0.0,2.1777,0.0,2.3913,2.2445,2.1542,2.0898,2.0629,1.9444,1.9092,1.9359,1.9372,1.9359,1.9359,1.9359,1.9359,1.9319,1.9025,1.9105,1.9319,1.9011,1.8918,1.8918,1.8918,1.8918,1.8971,1.9279,1.9559,1.9786,1.9786,2.0,2.0294,2.0588,2.0668,2.0748,2.1029,2.1096,2.1015,2.0735,2.0668,2.0681,2.0681,2.0909,2.1015,2.0722,0.0,0.0,0.0,0.0,0.0,0.0,1.9973,1.9452,1.8584,0.0,0.0,0.0,0.0,0.0,0.0,0.0,0.0,2.0668,2.1523,0.0,2.2846,2.3166,2.3474,2.3768,1.9793,1.7895,1.7759,1.4002,1.2447,1.2725,1.2725,1.2813,1.2956,1.2956,1.2963,1.2976,1.3119,1.3173,1.3214,1.3512,1.3627,1.3648,2.8516,2.8965,2.9453,2.9746,3.0019,3.0254,3.0449,3.0703,3.047,2.9226,2.8217,2.7073,2.5375,2.2702,2.1069,0.0,2.0975,2.0842,0.0,2.0454,2.0347,2.0241,2.0054,2.0,2.0094,1.972,1.9822,2.0627,0.0,0.0,0.0,2.589,2.6361,2.5451,2.3402,2.2592,2.2609,2.0288,1.9399,1.9639,1.9452,1.9492,1.9666,1.9666,1.9546,1.9412,1.9706,1.9626,1.9386,1.9492,1.9519,1.9519,1.9519,1.9386,1.9279,1.9573,1.9867,2.0094,2.0094,2.0307,2.0561,2.0655,2.0828,2.1002,2.1082,2.1109,2.1082,2.0989,2.0975,2.0975,2.0975,2.1042,2.1082,2.0989,2.1042,0.0,0.0,0.0,0.0,0.0,0.0,1.8931,0.0,1.8718,0.0,0.0,0.0,0.0,0.0,0.0,0.0,0.0,2.1924,0.0,2.318,2.3674,2.4075,2.4356,2.165,1.9041,1.6321,1.3908,1.28,1.2888,1.2888,1.2915,1.2969,1.3064,1.3105,1.3119,1.3268,1.3329,1.3356,1.3553,1.3688,1.3797,2.9141,2.9512,2.9883,3.0156,3.0351,3.0547,3.084,3.0898,3.0645,3.002,2.8545,2.6832,2.5253,2.2702,0.0,2.1109,2.1109,2.1029,2.0855,2.0735,2.0641,2.0561,2.0347,2.0281,2.0401,0.0,0.0,2.1765,2.2765,2.4251,2.6188,2.7487,2.8086,2.7882,2.5133,2.402,2.4007,2.0943,1.98,1.9947,1.976,1.98,1.996,1.996,1.9853,1.9733,2.0107,2.0,1.972,1.9907,1.996,1.996,1.996,1.992,1.9867,1.9947,2.0174,2.0401,2.0401,2.0615,2.0842,2.0842,2.0975,2.1109,2.1109,2.1109,2.1109,2.1109,2.1109,2.1109,2.1109,2.1109,2.1109,2.1109,2.1109,2.1002,2.0722,0.0,0.0,0.0,0.0,0.0,0.0,1.9011,0.0,0.0,0.0,0.0,0.0,0.0,0.0,2.1697,2.2392,0.0,2.3647,2.4128,2.4516,2.4796,2.2916,1.9817,1.5937,1.4797,1.3778,1.3044,1.3044,1.3071,1.3132,1.322,1.3261,1.3268,1.3363,1.3437,1.3505,1.3654,1.3804,1.3946,2.9531,2.9961,0.0,0.0,3.0605,0.0,3.0898,3.0898,3.0392,2.8783,2.7349,2.5774,2.4054,2.2606,2.1628,2.1475,0.0,0.0,0.0,2.0855,2.0828,2.1096,2.0588,2.0428,2.0695,2.0537,2.1054,2.2326,2.5061,2.7027,2.8398,2.8789,2.918,2.9458,2.6301,2.4895,2.4662,2.1512,2.0241,2.0267,2.0241,2.0241,2.0267,2.0267,2.0254,2.0241,2.0281,2.0267,2.0241,2.0254,2.0267,2.0267,2.0267,2.0468,2.0655,2.0347,2.0468,2.0708,2.0708,2.0909,2.1109,2.1109,2.1109,2.1109,2.1109,2.1109,2.1109,2.1109,2.1109,2.1109,2.1109,2.1122,2.1136,2.1109,2.1109,2.1002,2.0695,0.0,0.0,0.0,0.0,0.0,0.0,1.972,1.9987,0.0,0.0,0.0,0.0,0.0,2.1764,2.2031,2.2913,2.3661,2.4222,2.4516,2.4823,2.5117,2.3384,2.0522,1.659,1.629,1.5281,1.3513,1.3349,1.3268,1.3403,1.3403,1.3403,1.3403,1.341,1.3505,1.3648,1.379,1.3939,1.4095,0.0,0.0,3.0723,3.0723,3.082,3.0898,3.0898,3.0898,3.0762,3.0392,3.0287,2.9508,2.7486,2.721,2.6527,2.5024,2.2577,2.1109,2.1109,2.1042,2.1042,2.1109,2.0975,2.0935,2.1002,2.193,2.3619,2.6047,2.7921,2.8906,2.9277,2.9375,2.9473,2.9458,2.6301,2.4895,2.4662,2.1512,2.0361,2.0548,2.0321,2.0374,2.0575,2.0575,2.0428,2.0294,2.0735,2.0615,2.0267,2.0494,2.0575,2.0575,2.0575,2.0775,2.0949,2.0655,2.0775,2.1002,2.1002,2.1056,2.1109,2.1109,2.1109,2.1109,2.1109,2.1109,2.1109,2.1109,2.1109,2.1109,2.1109,2.1296,2.1376,2.1149,2.1109,2.0922,2.0414,2.0281,0.0,0.0,1.9867,1.9987,1.9626,1.9786,1.9933,0.0,0.0,0.0,0.0,2.1991,2.2579,2.2659,2.3527,2.4168,2.4529,2.4823,2.5117,2.5411,2.3695,2.2372,2.1086,1.7897,1.622,1.5771,1.3995,1.337,1.3403,1.3403,1.3403,1.341,1.3532,1.36,1.3648,1.379,1.3939,1.4075,3.0469,3.0723,3.0898,3.0898,3.1055,3.1113,3.0918,3.1055,3.1172,3.1172,3.0753,2.9934,2.8835,2.827,2.7381,2.6139,2.3683,2.2215,2.2215,2.1475,2.1109,2.1109,2.1109,2.1475,2.2215,2.2915,2.4699,2.7524,2.9145,2.9863,2.9863,3.0078,3.0176,3.0062,2.6824,2.539,2.5152,2.1939,2.0722,2.0855,2.0695,2.0735,2.0869,2.0869,2.0775,2.0668,2.0989,2.0909,2.0655,2.0815,2.0869,2.0869,2.0869,2.0989,2.1082,2.0922,2.1082,2.1283,2.1149,2.1203,2.1309,2.1309,2.1309,2.1309,2.1309,2.1309,2.1309,2.1309,2.1416,2.151,2.151,2.1537,2.1496,2.1336,2.1082,2.0748,2.0294,2.0227,0.0,1.9626,2.008,2.0321,2.0027,2.0241,2.0347,2.0241,0.0,0.0,2.1496,2.2766,2.3354,2.3086,2.3941,2.4543,2.4836,2.5264,2.5625,2.5919,2.5097,2.4099,2.3117,2.08,1.9231,1.8247,1.5964,1.4976,1.4976,1.3922,1.3478,1.36,1.362,1.3715,1.3844,1.3919,1.4048,1.4177,3.082,3.0937,3.0957,3.0898,3.1289,3.1484,3.1055,3.1348,3.1601,3.1523,3.0325,2.9562,2.9434,2.8167,2.7344,2.683,2.5397,2.4285,2.3574,2.1964,2.1109,2.1109,2.1109,2.1853,2.3574,2.4054,2.561,2.829,2.9604,3.0293,3.0312,3.0762,3.0996,3.0859,2.7591,2.6116,2.5823,2.2523,2.1149,2.1109,2.1109,2.1109,2.1109,2.1109,2.1109,2.1109,2.1109,2.1109,2.1109,2.1109,2.1109,2.1122,2.1162,2.1176,2.1189,2.1229,2.1456,2.1603,2.1269,2.139,2.1617,2.1617,2.1617,2.1617,2.1617,2.1617,2.1617,2.1617,2.1817,2.1991,2.1991,2.1777,2.1603,2.1563,2.1056,2.0575,2.0267,0.0,2.0147,1.9893,2.0428,2.0708,2.0454,2.0882,2.1002,2.0588,2.1443,2.2071,0.0,2.35,2.4022,2.3607,2.4356,2.4917,2.5211,2.5705,2.6106,2.6386,2.6426,2.5602,2.4028,2.3691,2.2538,2.0724,1.8551,1.7399,1.7251,1.5293,1.4426,1.4337,1.4238,1.4187,1.4075,1.4095,1.419,1.4299,3.0879,3.1172,3.1309,3.0957,3.1543,3.1914,3.1484,3.1797,3.1934,3.1562,3.1595,3.1416,3.0702,3.1003,3.113,3.0711,2.9483,2.7266,2.3852,2.1964,2.1109,2.1109,2.1109,2.1853,2.3574,2.6244,2.8527,3.0432,3.0665,3.0781,3.0801,3.1211,3.1426,3.1307,2.8288,2.6744,2.6339,2.2978,2.1336,2.1109,2.1109,2.1109,2.1109,2.1109,2.1109,2.1109,2.1109,2.1109,2.1109,2.1109,2.1109,2.1149,2.1403,2.1483,2.1537,2.1777,2.2058,2.2164,2.163,2.1697,2.1924,2.1924,2.1924,2.1924,2.1924,2.1924,2.1924,2.1924,2.1951,2.1991,2.1991,2.1951,2.1844,2.159,2.1056,2.0575,2.0267,0.0,2.0214,2.0174,2.0909,2.1403,2.1349,2.143,2.1643,2.2044,2.2017,2.2432,2.3434,2.3941,2.4396,2.4796,2.5184,2.5518,2.5812,2.5919,2.6106,2.6386,2.664,2.6613,2.617,2.4353,2.3365,2.3016,2.0527,1.9568,1.9736,1.9376,1.8181,1.6713,1.6845,1.5737,1.4089,1.4217,1.4278,1.4299,3.123,3.1426,3.1601,3.1582,3.1758,3.1894,3.1875,3.2226,3.2441,3.2226,3.2383,3.2363,3.1953,3.2266,3.2344,3.1914,3.0512,2.8942,2.6968,2.4462,2.251,2.1477,2.2215,2.3953,2.6544,2.8672,3.0252,3.123,3.123,3.123,3.123,3.166,3.1875,3.1754,2.8532,2.6991,2.6701,2.3135,2.147,2.1336,2.1176,2.1109,2.1109,2.1109,2.1203,2.1349,2.1349,2.1443,2.1577,2.1577,2.1577,2.1603,2.1737,2.179,2.1817,2.1951,2.2084,2.2164,2.2044,2.2111,2.2218,2.2218,2.2218,2.2218,2.2218,2.2218,2.2218,2.2218,2.2352,2.2458,2.2458,2.2191,2.1991,2.2017,2.1122,0.0,0.0,2.0575,2.0535,2.0681,2.1349,2.179,2.179,2.1924,2.2124,2.2392,2.2739,2.326,2.3968,2.4583,2.5037,2.5304,2.5598,2.5812,2.5959,2.6266,2.6413,2.64,2.6841,2.6974,2.6827,2.6143,2.5703,2.5401,2.3257,2.2334,2.2255,2.1128,2.0111,1.9381,1.9362,1.8061,1.6094,1.6179,1.5337,1.4299,3.168,3.1816,3.1992,3.2148,3.2129,3.2148,3.2285,3.2676,3.291,3.2812,3.2793,3.2754,3.2656,3.2734,3.2656,3.2344,3.1238,3.0387,2.9994,2.7449,2.5092,2.3064,2.4411,2.6536,2.9148,3.0477,3.1348,3.168,3.168,3.168,3.168,3.2109,3.206,3.155,2.8702,2.7033,2.6424,2.312,2.171,2.163,2.1403,2.1309,2.1309,2.1309,2.1456,2.1657,2.1657,2.1804,2.1991,2.1991,2.2031,2.2098,2.2164,2.2245,2.2311,2.2378,2.2405,2.2445,2.2672,2.2632,2.2539,2.2605,2.2632,2.2605,2.2539,2.2579,2.2605,2.2539,2.2699,2.2859,2.2859,2.2432,2.2138,2.2298,0.0,0.0,0.0,2.0975,2.0962,2.1189,2.1737,2.2084,2.2084,2.2418,2.2659,2.2726,2.35,2.4128,2.4489,2.5211,2.5638,2.5718,2.5879,2.6026,2.6159,2.66,2.6747,2.66,2.7121,2.7255,2.7041,2.7495,2.7575,2.7375,2.5841,2.5094,2.4963,2.3078,2.2234,2.2063,2.1884,2.0554,1.8453,1.7929,1.6729,1.4992,3.2129,3.2441,3.2598,3.2226,3.2793,3.3164,3.2812,3.3105,3.3242,3.2851,3.2793,3.2656,3.2266,3.2559,3.2793,3.2754,3.2961,3.2397,3.0809,3.0424,2.9317,2.6947,2.8425,2.9421,2.9668,3.1302,3.209,3.2129,3.2129,3.2129,3.2129,3.2559,3.1846,3.0302,2.8844,2.6982,2.5126,2.314,2.2205,2.1951,2.1924,2.1924,2.1924,2.1924,2.1937,2.1951,2.1951,2.1964,2.1991,2.1991,2.2164,2.2432,2.2712,2.2993,2.3287,2.3554,2.3634,2.3647,2.3661,2.326,2.2899,2.318,2.326,2.318,2.2899,2.306,2.318,2.2886,2.2846,2.2859,2.2859,2.2605,2.2311,2.2058,0.0,0.0,2.1149,2.1323,2.1496,2.151,2.2031,2.2392,2.2392,2.2913,2.3367,2.3647,2.4235,2.4823,2.5384,2.5745,2.6052,2.6319,2.6092,2.6213,2.6747,2.68,2.6947,2.7201,2.7522,2.7655,2.7642,2.7682,2.7682,2.7655,2.7237,2.7277,2.7363,2.7337,2.6142,2.4508,2.4496,2.2944,2.0702,1.8627,1.7763,1.7238,3.2559,3.2891,3.3125,3.2969,3.3203,3.3379,3.3203,3.332,3.3359,3.3203,3.3184,3.3125,3.2969,3.3086,3.3184,3.3184,3.3574,3.3436,3.2511,3.1672,3.0531,2.9112,2.9476,3.0346,3.1637,3.2041,3.2285,3.2559,3.2559,3.2559,3.2559,3.2988,3.2264,3.0555,2.8884,2.7174,2.5189,2.3278,2.2352,2.2231,2.2058,2.1991,2.1991,2.1991,2.2098,2.2258,2.2258,2.2365,2.2552,2.2752,2.2886,2.3033,2.3327,2.3514,2.3661,2.3955,2.3915,2.3848,2.4209,2.3875,2.346,2.3567,2.3607,2.3567,2.346,2.3514,2.3567,2.3447,2.342,2.342,2.342,2.318,2.3006,2.3086,0.0,2.1911,2.2164,2.2138,2.2151,2.2338,2.2899,2.326,2.326,2.3794,2.4182,2.4302,2.5024,2.5558,2.5772,2.6066,2.636,2.6653,2.6373,2.6413,2.6814,2.7001,2.7148,2.7268,2.7562,2.7602,2.7442,2.7802,2.7869,2.7709,2.7776,2.7869,2.7976,2.7976,2.7525,2.6927,2.6927,2.5373,2.3126,2.0702,1.9836,1.9315,3.2988,3.334,3.3633,3.3633,3.373,3.3828,3.3828,3.3828,3.3828,3.3828,3.3828,3.3828,3.3828,3.3828,3.3828,3.3828,3.4101,3.4082,3.3652,3.2577,3.1488,3.0392,3.0626,3.152,3.2988,3.2715,3.2695,3.2988,3.3125,3.3125,3.3008,3.3555,3.2815,3.097,2.9796,2.7995,2.5786,2.404,2.3133,2.2672,2.2378,2.2325,2.2405,2.2405,2.2592,2.2846,2.2846,2.2979,2.318,2.3394,2.3527,2.3634,2.3848,2.3968,2.4075,2.4275,2.4195,2.4155,2.4636,2.4489,2.4142,2.3955,2.3915,2.3888,2.3794,2.3848,2.3888,2.3794,2.3768,2.3768,2.3768,2.3607,2.35,2.3607,2.302,2.2659,2.2966,2.2913,2.2913,2.3126,2.3514,2.3768,2.3768,2.4302,2.4636,2.4636,2.5451,2.6039,2.6226,2.6413,2.6667,2.6947,2.6854,2.6894,2.7094,2.7215,2.7308,2.7402,2.7696,2.7736,2.7549,2.7963,2.803,2.7856,2.8056,2.8136,2.8136,2.8136,2.8136,2.8136,2.8136,2.7279,2.5543,2.3126,2.2256,2.1739,3.3437,3.3769,3.4082,3.4082,3.4414,3.4707,3.4707,3.4707,3.4707,3.4707,3.4707,3.4707,3.4707,3.4707,3.4707,3.4707,3.4707,3.4531,3.4101,3.3672,3.2638,3.09,3.2492,3.3418,3.3418,3.3418,3.3418,3.3437,3.3867,3.3848,3.3457,3.4297,3.3519,3.1402,3.1402,2.9581,2.6583,2.5801,2.4653,2.33,2.2993,2.306,2.3327,2.3327,2.3514,2.3768,2.3768,2.3768,2.3768,2.3768,2.3968,2.4209,2.4209,2.4409,2.4636,2.4636,2.4636,2.4703,2.4997,2.5077,2.4943,2.4356,2.4209,2.4142,2.3848,2.3995,2.4128,2.3834,2.3781,2.3781,2.3781,2.3781,2.3688,2.3394,2.3581,2.3674,2.338,2.3594,2.3768,2.3768,2.3768,2.3781,2.3781,2.4302,2.4649,2.4649,2.5464,2.6213,2.6787,2.6827,2.6961,2.7255,2.7549,2.7696,2.7696,2.7415,2.7415,2.7709,2.8003,2.8136,2.8136,2.8136,2.8136,2.8136,2.8136,2.8136,2.8136,2.8136,2.8136,2.8136,2.8136,2.8136,2.7968,2.5556,2.4691,2.4337,3.3887,3.4219,3.4512,3.4512,3.4609,3.4707,3.4707,3.4707,3.4707,3.4707,3.4707,3.4707,3.4707,3.4707,3.4707,3.4707,3.5,3.5,3.4531,3.4394,3.3921,3.3206,3.332,3.3418,3.3418,3.3418,3.3574,3.3887,3.4004,3.416,3.4316,3.457,3.369,3.1951,3.1951,2.9953,2.6613,2.6418,2.5322,2.3634,2.3541,2.3554,2.3634,2.3634,2.3688,2.3768,2.3768,2.3768,2.3808,2.4008,2.4262,2.4543,2.4756,2.4877,2.4943,2.4943,2.4943,2.497,2.505,2.493,2.4783,2.481,2.4823,2.4743,2.4449,2.4449,2.4543,2.4663,2.469,2.4756,2.4957,2.4823,2.4663,2.4569,2.4289,2.4048,2.3955,2.4022,2.4075,2.4075,2.4249,2.4382,2.4382,2.4903,2.5251,2.5251,2.6066,2.6734,2.7108,2.7134,2.7268,2.7562,2.7455,2.7495,2.7696,2.7615,2.7722,2.8003,2.7883,2.7936,2.8136,2.8136,2.8136,2.8136,2.8136,2.8136,2.8136,2.8136,2.8136,2.8136,2.8136,2.8136,2.7968,2.5556,2.5726,2.6575,3.4082,3.4551,3.498,3.498,3.5117,3.5215,3.5215,3.5215,3.5215,3.5215,3.5215,3.5215,3.5215,3.5215,3.5215,3.5215,3.5332,3.5273,3.5,3.4805,3.459,3.4336,3.4062,3.3926,3.3926,3.3926,3.4062,3.4316,3.4512,3.4629,3.4707,3.5059,3.4585,3.3479,3.3479,3.1472,2.7975,2.7694,2.6158,2.3928,2.3821,2.3834,2.3941,2.3941,2.4008,2.4115,2.4115,2.4115,2.4155,2.4449,2.4743,2.501,2.5197,2.5251,2.5251,2.5251,2.5251,2.5277,2.5398,2.5211,2.505,2.5358,2.5157,2.489,2.4823,2.481,2.489,2.5184,2.5251,2.5304,2.5478,2.5371,2.5211,2.5104,2.4783,2.4516,2.4396,2.4369,2.4369,2.4369,2.4529,2.469,2.4796,2.5237,2.5651,2.5999,2.6627,2.7121,2.7415,2.7442,2.7575,2.7869,2.7709,2.7696,2.7869,2.7869,2.7909,2.7963,2.7896,2.7963,2.8136,2.8136,2.8136,2.8136,2.8136,2.8136,2.8136,2.8136,2.8136,2.8136,2.8136,2.8136,2.7968,2.6588,2.6927,2.7799,3.418,3.4863,3.5449,3.5449,3.5762,3.6016,3.6016,3.6016,3.6016,3.6016,3.6016,3.6016,3.6016,3.6016,3.6016,3.6016,3.5664,3.543,3.5391,3.5039,3.4805,3.4766,3.4824,3.4883,3.4883,3.4766,3.4726,3.4766,3.5176,3.5195,3.4844,3.5644,3.582,3.5449,3.5449,3.3668,3.0543,2.96,2.7446,2.4499,2.4098,2.4008,2.4249,2.4249,2.4422,2.4676,2.4649,2.4663,2.4756,2.5064,2.5317,2.5518,2.5545,2.5558,2.5558,2.5558,2.5558,2.5611,2.5879,2.5745,2.5585,2.5852,2.5304,2.4783,2.5064,2.5117,2.5197,2.5491,2.5558,2.5558,2.5585,2.5545,2.5424,2.5157,2.5077,2.4943,2.4676,2.4636,2.4636,2.4636,2.4663,2.4783,2.505,2.5384,2.5959,2.6827,2.7148,2.7428,2.7722,2.7736,2.7856,2.8136,2.8136,2.8136,2.8136,2.8136,2.8003,2.7749,2.8016,2.8136,2.8136,2.8136,2.8136,2.8136,2.8136,2.8136,2.8136,2.8136,2.8136,2.8136,2.8136,2.8136,2.8136,2.8136,2.8136,2.8136,3.5039,3.5527,3.5879,3.5879,3.5957,3.6016,3.6016,3.6016,3.6016,3.6016,3.6016,3.6016,3.6016,3.6016,3.6016,3.6016,3.5937,3.5742,3.541,3.5605,3.5586,3.5254,3.5879,3.625,3.625,3.5234,3.4883,3.5234,3.5351,3.5508,3.5742,3.5937,3.5976,3.5879,3.5879,3.4652,3.2438,3.0848,2.8727,2.6677,2.5048,2.4489,2.4543,2.4543,2.473,2.4957,2.4716,2.493,2.5371,2.5665,2.5651,2.5558,2.5785,2.5865,2.5865,2.5865,2.5865,2.5879,2.5932,2.5745,2.5531,2.5598,2.5464,2.5344,2.5411,2.5424,2.5504,2.5798,2.5865,2.5932,2.6159,2.5825,2.5491,2.5424,2.5037,2.4716,2.4649,2.4636,2.4636,2.4636,2.4836,2.501,2.5077,2.5758,2.656,2.7442,2.7562,2.7736,2.803,2.8043,2.807,2.8136,2.8136,2.8136,2.8136,2.8136,2.811,2.8043,2.811,2.8136,2.8136,2.8136,2.8136,2.8136,2.8136,2.8136,2.8136,2.8136,2.8136,2.8136,2.8136,2.8136,2.8136,2.8136,2.8136,2.8136,3.5351,3.5723,3.6016,3.6016,3.6016,3.6016,3.6016,3.6016,3.6016,3.6016,3.6016,3.6094,3.6309,3.6152,3.6094,3.6309,3.6328,3.6328,3.6309,3.6504,3.6543,3.6309,3.6738,3.6973,3.6973,3.6289,3.5957,3.5996,3.5996,3.6016,3.6016,3.6016,3.6016,3.6016,3.6016,3.5021,3.3031,3.1158,2.9186,2.736,2.5359,2.4636,2.4649,2.4796,2.4863,2.489,2.501,2.5344,2.5745,2.5905,2.5945,2.5959,2.6119,2.6159,2.6159,2.6159,2.6159,2.6159,2.6159,2.5945,2.5758,2.5892,2.5825,2.5718,2.5718,2.5718,2.5812,2.6106,2.6159,2.6213,2.636,2.6026,2.5678,2.5531,2.5144,2.4796,2.4649,2.4636,2.469,2.4836,2.4983,2.5237,2.5665,2.6373,2.7054,2.7655,2.7829,2.7976,2.8136,2.8136,2.8136,2.8136,2.8136,2.8136,2.8136,2.8136,2.8136,2.8136,2.8136,2.8136,2.8136,2.8136,2.8136,2.8136,2.8136,2.8136,2.8136,2.8136,2.8136,2.8136,2.8136,2.8136,2.8136,2.8136,2.8136,2.7968,3.5488,3.5781,3.6016,3.6016,3.6016,3.6035,3.6113,3.6133,3.6152,3.623,3.623,3.6367,3.6738,3.6465,3.6387,3.6738,3.6777,3.6934,3.7266,3.7305,3.7305,3.7305,3.7363,3.7402,3.7402,3.748,3.7266,3.6777,3.6777,3.6601,3.623,3.623,3.6211,3.6133,3.6133,3.5234,3.3586,3.1316,2.9472,2.778,2.5492,2.4636,2.4676,2.497,2.4957,2.485,2.5331,2.5705,2.5959,2.6012,2.6186,2.6386,2.6386,2.6386,2.6386,2.6386,2.6386,2.6386,2.6386,2.6213,2.6092,2.6333,2.6213,2.6039,2.6039,2.6039,2.6092,2.6333,2.6386,2.6386,2.6386,2.6146,2.5879,2.5625,2.5344,2.5064,2.4823,2.4783,2.4877,2.513,2.5197,2.5571,2.6453,2.6987,2.7402,2.7749,2.8003,2.8136,2.8136,2.8136,2.8136,2.8136,2.8136,2.8136,2.8136,2.8136,2.8136,2.8136,2.8136,2.8136,2.8136,2.8136,2.8136,2.8136,2.8136,2.8136,2.8136,2.8136,2.8136,2.8136,2.8136,2.8136,2.8136,2.8136,2.8136,2.7968,3.5859,3.5976,3.6016,3.6016,3.6016,3.6152,3.6523,3.6582,3.6719,3.707,3.7129,3.7148,3.7207,3.7168,3.7148,3.7207,3.7207,3.7226,3.7285,3.7305,3.7305,3.7305,3.7637,3.7832,3.7832,3.8203,3.8008,3.7207,3.7207,3.7187,3.7129,3.7129,3.6934,3.6582,3.6582,3.623,3.5451,3.1878,3.0168,2.9599,2.6064,2.4636,2.4676,2.497,2.5211,2.5398,2.5478,2.5705,2.5999,2.6239,2.636,2.6386,2.6386,2.6386,2.6386,2.6386,2.6386,2.6386,2.6386,2.636,2.6333,2.6373,2.636,2.6333,2.6333,2.6333,2.6346,2.6386,2.6386,2.6386,2.6386,2.6146,2.5945,2.5905,2.5651,2.5438,2.5398,2.5398,2.5411,2.5451,2.5678,2.6186,2.7068,2.7215,2.7495,2.8043,2.8123,2.8136,2.8136,2.8136,2.8136,2.8136,2.8136,2.8136,2.8136,2.8136,2.8136,2.8136,2.8136,2.8136,2.8136,2.8136,2.8136,2.8136,2.8136,2.8136,2.8136,2.8136,2.8136,2.8136,2.8136,2.8136,2.8136,2.8136,2.8136,2.8136,3.5996,3.6211,3.6387,3.6387,3.6582,3.6797,3.6992,3.7012,3.709,3.7266,3.7305,3.7383,3.7617,3.7656,3.7656,3.7656,3.7656,3.7851,3.834,3.8359,3.8476,3.873,3.8926,3.9023,3.9023,3.8965,3.875,3.8359,3.7891,3.7519,3.7305,3.7305,3.7207,3.7012,3.7012,3.6914,3.658,3.3819,3.1929,3.0598,2.7688,2.6001,2.5144,2.5277,2.5398,2.5531,2.5705,2.5945,2.6213,2.6346,2.6386,2.6386,2.6386,2.6386,2.6386,2.6386,2.6386,2.6386,2.6386,2.6386,2.6386,2.6386,2.6386,2.6386,2.6386,2.6386,2.6386,2.6386,2.6386,2.6386,2.6386,2.6146,2.5959,2.5959,2.5705,2.5518,2.5518,2.5518,2.5571,2.5745,2.6159,2.6653,2.7215,2.7415,2.7682,2.811,2.8136,2.8136,2.8136,2.8136,2.8136,2.8136,2.8136,2.8136,2.8136,2.8136,2.8136,2.8136,2.8136,2.8136,2.8136,2.8136,2.8136,2.8136,2.8136,2.8136,2.8136,2.8136,2.8136,2.8136,2.8136,2.8136,2.8136,2.8136,2.8136,2.7968]}]]